GFSMW_850_rhum_000.txt.gz
RH
21 23 25 25 20 20 23 24 23 23 25 26 26 27 25 26 29 32 37 44 52 62 70 78 80 79 84 83 92 95 91 92 93 99 93 87 86 83 65 40 37 35 30
17 17 18 17 23 22 21 22 23 24 25 27 26 31 34 30 31 31 32 34 40 51 64 70 79 84 90 94 99 100 99 98 94 98 97 92 73 77 75 53 47 42 41
20 19 21 18 16 18 24 23 21 22 23 23 29 32 33 29 28 25 22 23 30 40 51 61 72 83 89 88 94 99 99 99 99 99 96 86 77 77 69 61 60 58 65
23 23 18 18 20 22 20 25 24 24 25 29 28 27 26 26 18 21 21 22 26 31 38 49 62 73 84 86 90 96 98 97 96 99 96 93 84 84 76 76 83 79 72
29 30 23 18 18 18 21 22 24 24 22 22 24 26 27 24 21 24 21 24 29 29 38 47 54 57 68 78 87 99 99 94 94 88 99 90 88 90 96 92 86 84 83
31 30 27 23 18 17 17 17 17 17 17 18 19 19 18 19 21 20 24 27 28 26 32 41 50 49 48 58 74 88 95 89 89 86 92 98 98 91 88 91 87 87 84
32 32 26 25 24 21 18 18 18 19 19 19 21 25 26 26 22 21 25 26 27 26 27 35 41 39 35 39 51 77 86 87 88 90 89 92 95 95 95 90 88 84 82
32 32 29 28 27 26 24 21 21 21 18 18 20 22 25 32 44 72 80 73 68 52 46 42 46 48 47 47 52 60 69 84 88 88 92 92 94 94 95 98 93 94 90
33 31 30 31 31 29 28 27 26 26 24 22 20 20 21 23 24 24 27 29 29 30 33 33 31 34 47 51 53 54 53 69 82 86 88 92 92 93 94 95 92 96 94
36 36 34 34 35 36 34 32 31 31 30 28 27 25 23 22 23 24 24 24 23 23 24 26 32 34 36 44 62 57 55 65 69 82 92 90 91 95 94 92 90 88 91
35 43 48 48 44 42 41 41 41 40 37 36 34 32 30 28 26 24 23 23 23 24 24 26 28 29 30 32 41 47 51 60 63 69 82 90 90 90 91 91 90 94 94
39 50 53 54 55 54 54 54 48 46 45 43 42 42 40 36 31 28 26 26 26 26 25 24 26 27 31 35 45 46 44 53 57 55 73 85 93 92 93 94 90 88 88
56 57 56 56 56 58 57 56 56 50 48 46 47 44 44 45 44 43 40 35 31 26 26 27 28 28 28 39 38 44 50 44 47 56 61 64 83 91 91 94 92 87 84
57 59 57 61 60 58 57 56 55 52 46 44 47 46 47 46 44 46 46 45 45 45 42 37 32 29 31 40 39 54 60 42 43 49 59 65 79 78 89 94 90 88 87
54 51 50 48 50 53 57 53 40 40 45 47 50 55 49 50 49 46 45 45 44 44 46 46 44 40 34 31 34 55 57 59 50 67 47 60 65 77 87 93 87 88 92
49 52 52 54 55 71 80 69 68 60 57 59 60 59 59 58 59 58 55 49 48 47 45 45 48 48 44 38 31 38 68 91 87 91 68 62 59 69 87 94 95 75 82
53 58 63 67 82 94 84 79 75 69 68 63 59 54 52 51 56 60 61 64 69 78 73 65 63 53 48 44 39 41 45 86 39 56 99 99 89 67 66 95 89 74 86
58 63 73 94 100 91 82 60 50 49 58 74 64 58 56 58 61 73 78 80 79 80 81 73 71 66 51 47 47 44 55 52 49 82 79 100 99 81 67 74 86 71 71
82 94 100 99 94 90 80 61 57 57 58 57 58 58 60 65 66 70 76 78 80 81 81 76 69 70 70 57 52 52 56 56 50 92 43 70 98 77 67 80 75 80 95
91 90 87 91 86 73 66 65 69 70 81 78 74 73 75 73 73 72 74 78 80 81 79 80 81 76 68 67 61 56 64 74 55 67 79 70 88 99 85 96 77 100 98
97 88 75 70 69 68 67 67 69 67 68 61 58 57 55 60 53 54 68 76 80 85 84 85 86 91 85 74 67 62 70 93 95 74 76 80 96 100 99 98 89 99 95
70 73 76 78 77 76 74 69 67 69 67 59 58 56 54 55 56 54 60 71 77 79 81 83 88 90 96 85 77 70 72 82 96 96 99 99 98 100 100 100 100 100 100
86 80 76 71 69 68 63 57 54 51 50 52 55 53 45 47 52 49 47 64 70 68 66 69 78 90 88 92 89 79 74 75 90 80 96 100 100 100 100 100 100 96 100
63 55 52 48 46 40 28 30 29 29 44 51 50 48 40 42 47 45 42 48 49 61 66 59 51 64 87 95 100 95 78 75 76 72 94 100 100 100 100 100 99 100 100
24 23 30 38 37 28 24 32 29 32 47 48 47 48 44 45 51 49 43 46 47 38 36 27 51 58 50 84 95 99 89 79 99 93 99 100 100 99 100 100 100 100 98
46 31 34 38 35 27 36 38 40 49 49 48 48 49 47 46 53 45 39 41 23 16 12 12 26 47 30 44 90 95 91 85 100 99 100 100 100 100 99 100 100 100 99

GFSMW_850_rhum_003.txt.gz
RH
16 16 19 22 23 24 30 34 35 39 53 61 54 39 28 30 32 27 26 39 47 57 58 59 69 80 82 79 86 92 93 93 92 89 85 84 81 79 73 70 66 53 43
17 19 21 22 22 23 26 30 38 41 44 58 61 67 60 53 40 29 25 31 38 46 60 59 61 74 88 92 90 93 95 94 93 89 90 90 82 81 79 78 79 75 76
24 24 26 29 23 22 22 28 33 42 47 50 57 62 68 66 55 30 27 26 38 43 52 55 67 75 92 92 93 96 97 96 96 93 91 86 82 64 67 70 70 54 52
27 29 31 32 28 21 23 26 32 39 43 42 45 34 36 44 26 29 33 36 38 34 39 46 55 64 79 84 96 100 98 100 99 99 98 92 81 79 73 72 75 73 71
30 31 34 33 23 21 23 24 26 30 34 38 43 51 56 58 58 65 63 62 69 58 45 48 54 55 63 69 75 95 100 100 100 98 100 99 91 87 95 91 83 83 83
30 32 33 28 26 22 21 21 24 27 25 24 26 37 55 62 66 64 64 66 71 75 82 76 78 71 68 67 73 82 90 95 98 100 100 100 99 92 94 97 90 90 85
32 33 31 29 29 28 27 25 24 23 21 21 24 32 35 40 39 43 56 65 68 71 69 70 52 47 48 52 55 62 62 69 91 94 98 100 95 93 95 94 92 89 86
32 35 35 34 34 33 32 30 29 29 28 27 25 24 28 36 51 66 74 74 73 72 74 81 72 52 58 60 65 69 55 57 70 86 89 93 89 93 93 97 99 96 94
34 37 40 36 39 41 41 40 39 36 35 33 31 30 29 26 29 38 54 61 73 75 75 81 86 88 84 77 86 88 73 75 81 71 61 69 79 94 93 98 100 99 97
36 41 44 47 49 47 47 50 51 51 45 40 38 37 35 32 29 29 32 39 46 57 67 73 80 84 89 92 92 97 94 96 92 86 80 71 59 78 95 98 100 100 99
40 45 47 51 54 54 54 52 53 54 51 47 46 46 44 40 40 40 39 38 35 40 41 54 64 70 75 81 88 93 94 96 96 99 99 92 77 87 93 98 100 100 100
46 48 50 51 50 52 52 52 52 54 57 56 53 54 53 52 52 49 42 41 41 41 43 43 43 41 50 65 78 84 89 94 98 97 100 96 88 94 93 100 100 100 100
48 48 50 52 52 52 51 51 50 53 58 61 62 62 62 65 63 62 63 62 58 52 47 45 44 43 43 44 44 53 70 88 95 97 99 98 100 100 98 100 98 100 100
48 48 47 44 44 46 54 61 60 62 69 58 66 72 72 63 58 54 50 51 53 56 59 66 66 59 55 50 45 47 62 79 86 96 88 98 100 100 100 100 98 99 100
48 46 46 46 44 45 59 71 76 73 68 68 67 71 70 66 56 50 55 56 54 57 58 61 62 65 68 68 63 63 66 67 75 94 97 99 96 99 100 100 98 67 89
46 47 48 50 51 63 81 85 86 79 76 75 76 78 65 54 50 48 45 46 50 50 56 64 75 80 77 74 66 68 74 72 63 70 90 100 85 99 100 100 99 100 84
50 48 51 55 68 86 90 87 83 71 69 70 73 74 72 73 73 75 75 74 72 72 72 74 74 77 73 66 75 78 78 70 62 56 63 95 100 100 99 100 100 100 100
52 57 68 90 92 92 86 81 77 71 71 70 71 73 74 75 75 75 73 70 72 75 77 78 80 84 85 87 87 85 88 82 66 62 71 93 100 100 100 99 100 98 100
72 83 87 91 90 84 76 70 64 64 65 64 65 63 62 66 66 63 60 60 66 70 75 76 82 82 84 89 92 96 96 89 79 67 88 84 99 98 99 99 99 99 100
83 90 86 78 72 70 68 66 63 63 61 63 66 65 64 63 59 58 60 60 57 64 72 75 74 78 81 87 92 85 95 98 95 79 73 75 93 100 98 99 100 99 99
79 82 77 74 71 68 67 65 59 54 52 54 57 58 58 57 52 50 53 53 50 52 67 68 64 65 62 65 57 74 92 100 99 98 86 80 86 98 99 99 100 78 89
84 77 72 68 61 57 52 44 38 37 38 40 45 49 49 48 47 42 46 47 44 44 52 53 57 53 54 43 42 37 78 82 92 100 90 81 79 93 98 100 100 100 100
74 64 61 50 39 34 33 33 34 35 36 38 39 41 41 41 42 41 42 46 46 43 43 48 50 49 46 20 40 59 35 58 83 88 98 89 89 93 97 98 100 100 100
54 40 41 32 30 31 31 33 35 38 40 40 41 40 40 42 44 43 43 46 43 42 49 52 60 62 34 34 35 42 33 41 80 89 96 99 96 100 87 99 100 100 100
43 45 37 36 34 34 34 36 39 42 45 47 46 45 46 48 49 46 44 46 45 45 47 48 70 69 71 65 32 36 36 51 95 100 98 98 98 100 100 100 100 100 100
40 38 39 38 37 40 42 43 46 49 52 53 54 55 57 56 54 52 50 52 55 59 62 54 48 61 70 75 25 19 28 46 99 98 100 100 100 100 100 100 100 100 100

GFSMW_850_rhum_006.txt.gz
RH
17 18 18 18 19 21 24 27 31 35 42 48 51 52 44 44 44 36 30 34 34 38 39 45 52 65 71 71 74 76 76 78 82 86 88 84 78 77 77 75 73 65 65
25 26 28 24 22 19 20 25 28 33 37 42 44 50 50 44 46 42 37 37 42 45 58 55 55 66 75 78 82 89 87 86 90 94 95 95 88 83 75 70 63 56 64
31 32 28 22 21 21 22 21 26 32 38 42 46 49 58 68 70 62 70 74 76 76 80 80 84 84 88 83 86 93 96 92 92 95 93 86 82 74 68 64 60 62 73
30 31 28 24 21 21 21 23 25 29 37 45 50 55 60 65 63 67 68 67 68 63 60 66 76 87 94 94 94 98 99 100 93 90 91 91 90 83 79 74 73 68 70
30 30 29 28 27 24 24 27 31 30 32 42 46 53 59 62 63 71 74 72 69 67 68 67 74 78 89 98 100 100 100 100 98 92 93 95 94 95 99 94 86 83 79
31 30 29 29 29 29 28 29 28 28 28 31 36 42 44 50 55 58 65 66 65 67 69 72 74 76 84 92 97 100 100 100 100 94 88 95 96 94 99 100 99 96 87
33 33 32 30 30 32 32 32 33 33 33 32 32 32 37 49 62 72 78 79 79 77 75 75 77 78 80 84 95 100 100 100 100 100 94 86 90 96 98 100 98 99 94
34 38 43 41 38 37 37 37 37 36 36 35 36 36 34 34 34 36 42 56 69 77 81 82 85 89 90 91 92 98 100 100 100 100 99 99 100 100 100 100 99 97 97
35 41 45 44 40 39 41 44 43 43 42 41 40 39 39 38 39 40 41 41 41 41 44 62 73 79 82 89 94 95 96 99 100 99 99 99 100 100 100 100 100 99 95
37 43 46 48 47 46 48 50 51 51 50 46 44 48 51 51 50 49 50 49 47 48 47 46 46 49 58 69 78 86 92 94 96 97 98 98 100 100 100 100 100 100 100
40 45 48 50 50 52 52 53 52 52 50 49 47 46 50 58 58 57 57 57 56 56 59 62 62 59 53 48 49 54 70 84 91 94 94 95 97 99 100 100 99 99 100
44 48 49 50 50 52 52 52 52 53 53 48 43 44 50 53 51 48 43 39 38 36 36 38 45 51 58 67 66 60 56 63 67 77 89 86 86 90 96 99 100 100 100
47 48 48 49 46 45 49 52 55 50 49 45 53 57 58 56 53 50 47 44 44 42 38 35 35 42 52 63 63 69 69 69 75 81 82 76 84 91 90 92 97 100 100
47 47 48 45 46 45 49 56 56 58 70 66 56 50 49 48 43 42 41 41 44 49 48 43 38 39 47 61 73 77 77 79 79 78 72 66 63 71 86 97 100 95 95
46 47 47 48 48 52 62 70 76 81 77 64 60 57 62 58 52 48 46 46 48 52 54 52 54 64 66 65 80 75 79 87 86 83 80 73 65 67 74 95 96 98 100
46 48 48 50 58 69 80 73 79 82 80 71 67 68 71 68 63 60 61 63 64 60 56 57 60 59 69 70 62 87 90 89 89 85 79 77 72 62 65 86 82 97 98
51 50 57 63 68 61 63 74 78 80 71 69 64 69 66 60 61 63 64 64 62 60 65 63 73 71 62 71 83 87 88 92 93 91 90 83 97 96 86 74 79 88 93
56 64 60 52 49 60 78 80 76 66 61 60 62 60 56 58 58 60 60 58 56 62 59 58 65 73 73 78 77 76 72 71 72 84 94 96 98 99 100 93 74 90 93
64 58 58 59 67 74 72 69 64 64 57 58 52 43 42 41 41 43 48 44 47 53 46 48 54 67 67 65 58 55 44 38 48 98 100 100 95 83 90 100 97 76 96
74 74 69 69 73 71 65 60 55 42 41 32 28 26 25 28 31 34 36 38 44 37 48 43 45 50 55 44 31 22 59 65 65 35 32 57 73 82 87 99 100 85 87
75 74 78 72 68 54 48 35 28 24 27 26 24 22 24 29 30 35 36 42 34 44 36 45 43 44 50 43 32 19 40 83 54 28 32 43 69 78 83 88 91 89 88
86 86 65 54 38 28 23 18 18 20 19 18 17 16 21 25 29 38 42 39 36 40 46 45 43 49 45 35 26 26 52 62 32 20 30 62 85 80 82 88 87 97 99
87 67 43 22 13 16 19 18 16 19 19 22 24 26 28 32 38 41 39 41 43 42 47 47 51 48 32 38 36 74 76 49 32 21 35 80 97 98 94 94 98 99 100
69 41 16 12 16 20 19 17 18 22 27 31 31 32 34 41 36 40 49 46 49 51 51 56 60 68 69 64 81 89 78 48 28 35 58 100 100 100 100 99 98 100 100
33 16 18 19 17 17 18 19 24 31 34 33 28 29 34 36 37 44 52 60 56 57 65 72 74 77 77 79 82 93 87 90 67 93 99 100 96 92 97 98 100 100 100
22 23 22 18 15 17 19 20 26 34 38 37 35 36 45 47 48 61 64 59 72 80 80 78 79 78 78 80 96 80 90 53 94 96 99 100 100 99 99 99 100 100 100

GFSMW_850_rhum_009.txt.gz
RH
22 19 17 16 16 19 24 28 34 42 42 42 46 47 47 48 50 53 56 60 66 68 71 72 67 63 70 66 68 74 80 79 80 86 84 82 77 77 77 76 72 70 68
24 21 18 18 17 17 18 20 25 31 37 47 45 46 46 49 55 60 69 71 72 74 78 78 73 69 76 79 77 80 82 85 90 89 92 96 90 82 75 72 70 72 72
31 28 22 20 18 17 18 21 21 26 31 37 47 52 54 59 57 55 62 70 77 80 81 80 78 81 86 87 88 92 94 95 94 96 97 98 83 74 65 63 65 64 60
32 30 28 24 22 22 22 23 25 28 33 40 45 53 60 62 63 65 68 72 77 79 78 75 74 77 82 87 89 97 100 100 98 99 99 98 96 88 83 75 77 77 74
32 33 32 32 31 28 27 27 25 24 26 33 41 47 52 56 58 66 72 74 74 73 72 71 73 76 79 81 86 92 95 95 100 96 97 100 100 99 96 94 86 90 90
34 37 37 36 35 35 33 33 32 33 34 33 32 34 39 42 45 51 59 68 75 77 79 81 82 83 84 83 82 84 92 96 94 100 98 99 98 98 100 100 93 92 93
33 35 35 37 38 37 36 36 36 36 38 39 40 41 42 42 43 44 46 45 45 46 52 70 81 74 79 87 92 92 92 92 95 92 98 99 98 94 97 99 95 93 90
35 35 36 39 42 43 44 42 41 42 43 42 41 43 44 46 48 50 51 51 51 51 51 50 49 52 62 69 72 82 89 92 92 94 88 90 99 100 99 100 100 96 91
35 37 40 43 46 47 47 48 48 48 46 44 43 42 42 41 44 49 52 51 50 48 46 46 49 49 49 50 52 58 66 76 85 89 94 99 96 96 95 98 100 100 98
37 40 42 44 47 51 53 53 52 52 50 42 35 36 39 42 48 49 46 43 40 38 37 36 34 32 34 41 48 50 50 52 53 59 66 80 90 96 97 94 97 95 98
39 41 44 48 52 52 54 52 52 52 39 34 37 43 45 46 49 47 45 43 41 38 37 37 36 34 33 34 40 54 64 68 70 68 68 68 69 79 85 84 91 100 100
40 43 47 50 51 53 55 54 55 53 42 44 51 55 51 46 45 43 44 43 41 40 42 43 43 42 41 40 45 58 68 87 88 87 84 82 77 75 73 77 85 100 98
41 48 51 51 46 51 51 51 54 53 45 54 59 60 55 51 52 53 50 45 43 44 49 57 59 56 57 56 54 70 86 82 75 77 82 84 83 80 74 72 74 77 81
47 49 48 47 49 54 56 55 53 39 54 71 70 73 67 63 60 57 50 45 44 45 47 50 55 62 61 65 76 77 70 83 90 91 91 90 92 94 87 91 94 92 88
48 49 48 50 53 55 58 56 45 48 61 66 67 69 65 60 58 50 44 45 47 52 54 54 55 54 57 66 59 75 85 86 90 85 82 80 83 83 86 95 97 99 93
48 49 51 54 55 60 49 48 56 62 69 70 62 57 56 54 38 26 24 26 32 38 38 51 50 48 51 49 63 79 74 72 65 50 38 47 67 92 98 97 95 98 100
55 59 60 58 51 52 52 54 60 65 59 54 49 47 38 16 10 11 14 16 20 19 23 48 29 41 39 54 64 70 67 58 25 27 39 48 80 59 56 81 85 87 90
62 60 55 58 58 58 57 57 56 51 43 30 22 14 10 11 12 14 17 21 23 28 42 28 41 42 29 45 64 49 42 26 19 18 24 26 18 29 36 78 96 86 87
62 59 61 65 66 65 60 50 44 28 13 11 13 13 13 13 14 16 18 22 26 31 19 31 33 44 42 53 52 43 31 40 33 63 68 31 16 16 31 90 100 99 87
62 65 64 82 79 65 50 36 19 13 15 16 15 15 16 17 19 20 22 24 28 24 27 25 34 47 49 45 37 27 63 74 86 94 67 36 23 19 34 98 100 100 98
67 69 80 83 68 50 28 18 18 17 16 17 17 18 19 20 21 23 26 32 33 34 36 38 48 50 46 29 29 71 80 87 98 96 91 42 22 24 65 98 100 100 100
82 85 88 64 43 25 21 20 17 17 19 20 19 19 21 22 24 31 33 35 40 47 44 54 56 56 60 39 63 81 86 91 97 98 94 57 34 70 100 100 100 100 100
89 94 74 42 20 18 18 15 15 18 20 21 21 22 24 26 28 34 35 43 44 51 63 65 70 79 71 61 78 87 86 93 95 97 95 90 98 99 99 99 100 100 100
96 71 42 16 16 17 14 16 19 21 23 25 26 28 31 32 32 36 42 46 56 69 75 84 91 93 87 87 91 89 94 88 92 92 92 100 100 98 100 98 99 98 99
90 40 16 17 16 14 15 17 22 24 25 29 31 32 33 34 34 34 38 49 57 84 94 94 95 97 95 93 91 97 91 94 95 95 96 100 98 100 100 100 96 92 98
27 18 18 14 14 16 18 20 24 27 30 30 32 38 43 44 46 50 46 42 58 92 95 95 96 94 91 93 90 94 93 92 98 95 100 100 100 100 100 100 96 95 98

GFSMW_850_rhum_012.txt.gz
RH
27 22 19 18 18 18 21 27 32 37 43 45 46 45 45 46 48 48 51 60 68 76 81 82 81 82 86 84 85 86 87 86 87 91 89 87 83 81 80 80 79 77 76
25 22 21 22 21 22 22 22 24 27 30 37 46 48 48 49 52 57 64 70 70 73 79 82 83 84 86 85 86 89 91 93 93 96 100 98 90 88 86 79 70 53 58
28 26 24 23 23 21 22 24 25 26 30 35 40 49 55 58 61 71 76 78 82 84 85 87 87 87 85 84 82 84 86 92 92 94 99 98 90 80 78 77 72 72 66
34 34 31 28 28 29 27 26 26 30 36 40 46 52 60 66 67 66 68 72 75 75 75 76 77 76 79 81 82 86 87 87 88 84 94 96 99 98 92 84 86 84 82
37 37 36 36 36 34 33 33 32 32 33 35 40 46 49 52 53 54 56 60 65 76 80 81 82 84 83 82 83 81 95 94 91 86 93 99 96 100 100 98 87 84 86
39 38 39 39 37 38 37 36 35 37 38 38 38 39 40 41 40 41 41 43 44 45 46 47 54 62 69 69 71 78 85 90 99 100 98 100 99 99 100 100 100 98 78
35 36 38 38 39 39 39 40 43 43 44 44 43 43 44 45 47 49 50 51 49 47 47 47 46 48 51 54 59 62 67 76 85 92 100 100 100 100 100 100 100 100 99
33 32 34 38 42 44 43 45 46 46 45 41 37 36 37 41 45 49 50 46 43 40 38 36 34 33 32 33 40 49 56 61 64 65 66 72 81 95 100 100 100 99 99
33 35 36 41 45 46 49 50 49 49 44 34 32 35 39 41 44 46 45 41 40 39 38 35 34 32 32 32 31 31 32 43 57 65 66 73 74 70 69 77 89 99 99
37 38 39 45 50 53 54 53 52 52 48 35 33 40 42 42 43 43 41 43 44 43 40 38 37 37 37 37 38 39 38 46 57 73 76 76 76 78 80 80 80 83 100
38 40 45 50 54 56 56 56 57 56 48 34 37 44 46 49 52 52 51 51 50 46 42 42 46 49 50 50 50 48 51 74 83 82 80 79 79 80 80 81 82 87 92
39 44 50 53 56 60 60 57 54 52 41 37 44 49 46 47 54 53 54 53 46 40 38 39 43 47 52 58 57 61 72 71 70 72 84 91 90 87 86 88 92 92 90
45 50 52 53 54 56 54 52 54 49 40 43 46 48 53 57 60 55 48 38 27 22 21 25 31 39 50 49 54 79 60 74 79 84 86 86 79 71 52 72 85 83 90
49 52 52 50 53 56 56 58 52 42 44 45 49 56 57 55 49 38 19 8 5 5 6 7 8 15 26 29 49 47 68 75 75 74 69 69 41 41 43 82 94 98 100
52 51 50 59 63 63 61 48 47 50 52 54 56 52 47 36 14 5 5 5 5 6 6 6 7 13 15 18 24 44 57 75 60 58 56 42 20 24 84 77 35 62 97
53 53 62 65 63 56 50 57 61 58 57 53 45 31 13 6 6 5 5 5 5 6 6 6 7 7 9 24 17 39 77 62 52 49 42 31 26 43 64 19 19 32 92
52 58 62 62 54 59 62 64 63 61 51 35 15 7 7 6 6 7 8 10 11 12 13 13 13 12 16 28 38 64 58 52 48 38 27 19 26 88 66 26 21 27 52
62 67 61 58 60 72 72 67 63 48 24 10 8 7 7 8 10 11 12 14 16 17 17 17 17 19 20 32 59 54 35 23 22 53 32 37 80 87 70 46 59 33 45
67 63 63 71 82 81 74 62 43 18 9 8 8 9 11 12 13 14 15 17 19 21 24 26 27 27 40 52 40 50 59 74 82 76 79 93 94 86 95 97 99 96 90
67 67 76 84 82 76 63 40 16 10 10 9 10 12 15 16 17 19 21 23 25 27 29 30 33 40 53 49 65 77 83 88 90 94 94 88 88 94 93 100 100 100 98
70 84 87 86 84 68 42 15 12 10 10 12 14 16 18 20 21 24 24 25 28 32 35 40 39 58 66 67 85 90 91 94 96 93 93 85 92 95 98 100 100 100 100
81 86 89 89 78 42 16 14 12 14 15 16 16 18 19 22 24 26 27 29 32 40 47 63 74 80 84 85 93 94 91 92 95 97 91 94 96 98 100 100 100 100 100
92 89 87 86 67 18 18 14 15 16 16 17 17 19 21 23 25 33 32 35 45 58 73 88 96 96 90 79 93 92 93 98 97 96 96 93 99 100 99 99 100 99 98
86 88 83 26 18 18 14 16 18 18 18 18 19 21 25 30 32 34 37 44 54 77 94 100 100 100 95 99 91 98 95 89 92 94 93 97 100 100 97 89 99 100 98
84 49 26 19 18 16 15 17 19 19 19 21 22 24 30 35 35 34 40 53 65 97 97 97 98 96 97 92 95 97 94 98 95 89 95 96 92 96 92 99 100 100 99
56 23 19 18 16 16 17 18 19 22 24 23 25 30 38 41 44 45 42 43 65 93 96 96 95 93 91 96 88 95 99 99 92 93 96 96 99 100 100 100 100 100 98

GFSMW_850_rhum_018.txt.gz
RH
34 31 29 26 24 23 24 24 23 22 24 30 41 49 55 61 67 71 70 72 72 74 81 84 88 91 89 88 86 88 85 79 80 96 85 87 80 74 72 69 68 65 62
35 33 30 27 26 27 28 26 24 25 26 32 42 54 64 73 79 81 81 81 82 82 80 78 77 78 77 78 79 81 84 90 94 100 100 99 94 90 86 85 82 78 72
35 35 32 32 32 30 28 26 26 25 27 33 44 58 71 80 76 69 65 64 63 63 63 64 65 64 63 63 63 66 70 86 85 92 100 98 94 97 98 95 90 94 89
40 40 38 36 34 35 34 31 30 30 33 34 36 42 48 46 47 48 49 48 47 46 46 46 43 42 40 39 39 41 46 56 66 75 87 98 99 100 96 97 97 98 89
40 43 42 40 40 39 36 35 33 35 39 39 40 40 42 46 46 40 36 31 32 31 31 30 30 31 31 32 32 31 31 33 36 43 59 68 74 83 99 98 92 90 90
46 47 46 44 42 42 40 40 38 39 40 38 35 32 30 30 28 28 28 29 30 31 32 33 36 38 38 37 36 34 35 36 38 40 45 56 87 92 96 100 100 100 98
47 47 46 45 44 44 44 44 43 41 37 33 31 29 29 30 31 34 36 36 36 37 38 40 40 39 37 34 32 31 32 35 40 45 51 60 78 89 85 91 98 100 90
48 47 46 46 47 47 47 46 46 44 46 44 38 34 35 37 39 40 41 44 45 45 43 39 34 28 20 14 11 12 18 28 40 52 61 63 59 63 77 90 92 98 90
46 46 47 49 49 49 49 51 51 51 51 46 40 37 39 41 43 44 45 45 44 39 30 18 7 4 3 3 3 4 5 9 31 62 61 50 59 70 89 97 81 90 97
46 45 49 50 51 53 54 55 55 55 52 46 41 42 46 48 49 49 47 41 30 16 6 4 4 4 4 4 4 4 4 9 29 30 20 38 67 81 99 72 61 57 80
43 44 50 54 54 56 59 59 60 57 51 46 46 50 53 54 52 47 36 20 7 4 4 4 5 5 5 5 5 5 6 11 12 15 28 79 77 76 64 61 58 57 49
43 47 52 55 58 62 64 65 62 57 50 51 58 59 57 54 45 29 12 5 5 5 5 6 6 6 6 6 7 8 10 14 21 44 74 61 61 52 46 58 54 59 70
44 52 56 59 64 68 71 68 62 53 55 61 62 61 55 41 22 9 5 5 6 6 6 7 7 7 7 7 8 10 12 25 46 81 68 57 42 31 53 64 74 78 82
47 53 61 66 72 76 72 66 56 60 63 66 65 55 37 18 8 6 6 6 7 7 8 8 8 9 9 9 10 12 15 25 53 71 57 41 42 55 75 78 88 91 93
54 58 64 73 79 76 69 58 63 70 72 67 54 36 18 9 7 6 7 8 8 9 9 10 10 10 10 11 14 18 31 48 67 56 43 42 52 79 88 92 94 98 94
58 61 68 75 76 70 61 69 79 79 70 57 37 19 10 7 7 8 9 9 10 11 11 11 11 11 11 13 17 51 68 68 68 60 55 63 68 84 92 95 92 90 88
54 60 70 76 71 63 76 84 80 74 69 57 27 12 8 8 10 10 10 11 12 13 13 12 12 13 16 19 30 80 86 83 76 76 77 78 86 95 94 92 93 94 92
56 66 74 71 65 81 84 80 73 67 53 27 18 8 10 11 11 12 12 14 14 14 14 15 16 19 21 30 48 91 90 89 85 87 88 98 99 91 88 95 96 94 82
65 75 70 68 82 85 79 75 68 50 30 16 9 10 12 12 13 14 14 15 16 17 17 18 20 25 24 36 84 95 92 88 90 79 81 100 93 91 95 97 96 94 90
75 70 69 81 85 82 77 65 57 39 15 10 11 12 14 14 15 16 17 20 21 20 18 19 25 31 34 44 96 94 92 99 89 87 98 82 87 92 96 90 95 98 80
72 72 79 85 86 78 76 62 24 16 13 12 13 14 15 16 18 20 22 22 22 22 21 22 22 31 67 86 96 94 91 95 97 96 81 68 98 97 87 88 95 95 94
76 79 84 86 81 78 41 24 17 14 12 13 14 16 18 20 22 23 23 24 24 24 24 26 36 78 98 95 96 94 92 95 95 93 80 92 98 92 89 95 99 99 100
80 83 88 86 73 41 26 16 14 13 13 15 17 20 22 24 24 25 25 26 27 30 33 63 97 100 98 92 82 95 100 97 91 87 97 95 95 87 73 98 100 100 96
86 91 89 62 38 22 16 14 14 15 16 19 22 25 27 26 27 27 28 30 32 46 79 100 100 99 96 95 84 98 94 90 88 95 97 94 80 89 98 94 83 88 100
92 83 69 45 18 15 14 16 17 19 21 24 27 29 29 29 29 30 33 35 45 88 99 100 98 96 96 94 95 95 94 94 97 89 88 78 96 100 100 97 92 92 100
76 77 54 17 16 15 17 20 22 24 26 28 32 32 31 31 33 34 34 42 59 95 92 97 99 93 94 94 97 93 95 98 88 86 84 100 100 100 100 100 100 96 100

GFSMW_850_rhum_021.txt.gz
RH
35 35 33 28 26 26 27 25 23 22 26 32 42 52 55 60 63 65 70 76 79 81 82 80 76 73 73 72 72 72 70 67 72 97 92 100 88 78 80 82 81 81 76
37 35 33 32 29 27 26 23 22 25 30 34 44 54 67 75 78 78 75 72 66 61 58 55 52 50 47 44 43 42 42 42 45 93 89 94 84 83 88 80 85 85 90
36 36 35 33 32 31 28 26 25 26 30 36 51 64 69 70 60 50 46 46 46 44 40 37 34 32 31 32 32 33 34 36 34 36 76 93 82 98 89 90 90 91 92
40 40 38 36 35 35 34 32 31 32 35 38 39 39 40 40 45 45 41 34 30 30 31 32 34 35 35 36 35 35 34 35 37 35 37 41 50 85 81 65 81 79 90
41 41 40 40 40 40 37 36 34 36 38 37 35 33 32 32 33 32 32 33 36 38 40 40 40 38 36 33 30 27 26 27 34 42 55 61 79 86 98 95 82 84 81
47 44 45 45 44 43 42 40 37 37 34 32 31 30 30 32 32 34 37 39 42 42 42 39 36 32 25 17 9 4 4 4 7 18 39 93 99 98 93 88 84 90 85
47 45 47 48 47 47 45 44 40 39 40 40 38 36 35 36 38 40 44 46 48 47 42 34 25 13 5 4 4 4 4 4 4 7 25 57 70 71 90 92 98 97 98
48 48 49 50 51 50 50 47 47 47 47 44 42 40 40 41 45 50 52 52 46 38 26 14 5 4 4 5 5 5 5 5 5 11 19 16 17 39 88 85 99 96 84
49 50 51 53 53 54 54 53 53 52 50 46 44 43 44 50 53 56 54 46 33 20 9 5 5 5 6 6 7 7 6 6 7 7 8 11 22 93 88 95 88 84 83
52 53 54 56 58 58 58 59 58 55 52 48 46 48 54 57 58 54 44 31 17 7 5 6 6 7 7 8 8 8 8 8 8 10 13 27 75 49 48 47 44 48 76
50 55 57 59 61 62 63 62 61 57 52 49 53 57 60 59 53 44 30 16 7 6 6 7 8 8 9 10 10 10 9 10 12 17 37 81 70 55 53 36 49 71 71
49 55 59 61 64 66 67 67 64 58 53 57 61 64 59 53 46 30 14 7 6 7 8 9 10 11 11 11 11 10 10 14 23 47 78 78 64 60 61 66 77 86 86
52 57 63 66 69 70 71 69 63 57 61 67 68 63 54 38 25 13 7 7 8 9 10 11 13 13 13 12 12 12 13 22 40 59 70 68 70 68 74 88 90 92 91
49 58 66 69 73 74 74 69 61 64 74 72 66 60 46 26 14 8 8 8 10 11 13 14 15 14 14 13 13 14 24 38 56 66 75 75 80 84 89 88 91 93 94
53 60 66 72 76 77 74 64 70 78 73 69 61 53 32 15 8 8 9 10 12 14 16 16 16 16 15 14 15 26 41 54 65 74 73 82 90 94 93 94 92 97 96
57 61 67 74 80 79 67 73 81 75 69 61 53 37 17 9 9 10 11 13 16 18 18 19 18 17 16 16 16 24 71 89 90 82 80 88 88 92 93 96 90 88 93
55 62 72 81 81 69 75 81 75 70 64 53 37 25 12 10 11 12 14 17 19 21 21 20 19 18 17 17 21 83 93 94 91 93 93 86 94 97 93 90 91 97 99
59 70 81 83 70 77 82 77 74 66 54 34 20 14 10 11 12 15 19 21 22 22 22 22 20 19 20 24 49 96 93 90 91 92 93 96 95 87 90 96 97 88 76
64 74 81 72 74 82 80 77 69 64 45 21 14 11 12 14 16 20 24 24 24 24 24 23 22 22 23 37 74 96 90 84 90 90 96 100 87 87 93 97 96 84 86
72 77 72 72 82 82 78 72 66 49 26 14 12 13 15 18 22 25 26 26 26 26 24 23 24 29 34 47 98 94 90 92 89 99 100 90 85 89 98 95 94 96 84
73 73 73 81 84 81 76 64 51 30 14 12 14 16 19 23 27 29 28 28 27 26 24 24 31 37 56 92 96 95 91 95 95 95 94 86 92 97 90 88 94 95 93
74 74 80 84 84 80 56 49 24 15 13 15 18 20 23 28 31 31 30 29 27 27 27 28 38 59 89 98 97 94 92 95 96 95 87 95 98 85 89 92 99 96 99
78 80 83 86 84 59 42 19 14 15 16 18 20 23 28 34 34 31 30 28 28 31 33 52 79 90 84 93 96 97 100 99 91 90 100 96 83 88 91 95 98 99 98
83 85 86 86 67 45 18 16 17 18 20 21 22 30 37 36 32 30 29 31 32 38 59 91 99 93 85 88 86 97 96 97 92 97 92 84 86 96 93 94 96 99 100
88 91 83 66 41 18 18 19 20 21 22 25 35 39 37 33 31 30 32 34 38 56 94 97 98 94 94 90 96 92 92 95 97 87 87 85 93 94 92 98 100 100 100
90 79 74 37 18 18 20 22 22 23 29 39 41 37 34 32 33 31 27 35 47 70 82 98 98 92 95 95 94 92 93 98 90 92 94 94 98 100 100 100 100 97 100

GFSMW_850_rhum_024.txt.gz
RH
34 34 33 31 31 31 32 30 31 33 38 52 76 81 63 69 72 77 79 76 73 67 57 49 44 40 38 36 33 35 35 51 59 56 58 58 64 77 62 72 87 74 75
44 38 37 36 33 30 28 28 29 36 44 51 60 63 69 74 73 68 58 47 43 39 33 29 28 29 31 33 34 35 35 41 55 61 62 49 53 47 63 51 51 63 59
42 47 43 33 31 28 28 27 28 31 42 57 63 64 64 56 46 43 37 31 29 30 34 37 38 38 37 35 32 34 48 64 60 61 63 63 56 66 56 55 54 55 65
45 48 49 37 34 34 33 32 32 33 37 38 40 41 41 35 32 31 32 36 39 41 43 42 40 35 29 23 16 14 20 47 49 50 51 63 66 67 65 50 58 55 65
46 53 52 40 40 39 36 36 36 36 35 32 30 29 29 30 33 37 40 44 48 49 46 40 33 24 15 8 4 5 11 25 38 49 56 62 65 63 59 66 47 48 49
51 57 45 44 42 40 38 37 35 34 33 32 33 34 35 37 40 44 50 52 50 45 40 31 22 13 6 5 5 6 8 6 7 21 59 73 66 52 55 54 56 60 55
54 60 54 48 45 43 41 39 37 39 40 40 40 40 40 42 46 51 53 50 46 41 35 26 14 7 6 6 7 7 8 8 9 12 64 47 45 48 52 56 72 70 75
54 57 61 54 48 46 44 42 45 45 45 44 43 43 44 49 53 53 50 48 42 33 27 15 6 6 7 8 8 9 11 14 25 59 52 50 53 58 70 76 76 84 65
56 59 64 61 52 51 49 50 50 50 48 47 46 47 51 54 55 53 49 44 37 26 11 7 6 7 8 10 12 14 18 22 36 41 45 49 53 68 70 66 62 61 61
57 61 66 68 65 57 55 56 55 54 51 49 51 54 57 58 54 44 38 32 22 11 7 7 8 9 11 14 15 20 23 33 37 41 47 53 55 68 64 57 53 51 53
57 62 65 69 65 61 60 60 59 56 53 53 57 61 62 59 51 39 30 19 12 8 7 9 11 14 16 17 19 25 30 39 44 48 51 55 59 61 56 56 56 58 62
56 62 68 75 65 65 65 64 62 58 56 59 66 66 60 52 42 28 18 12 7 8 10 12 16 18 18 18 19 26 38 45 49 52 55 58 57 61 59 60 62 67 67
60 67 74 75 72 70 69 68 64 59 62 70 68 62 54 48 34 19 10 8 9 11 14 18 19 20 20 20 24 37 46 52 55 58 62 64 66 65 65 69 72 72 73
62 67 75 78 75 72 72 70 63 66 73 70 61 54 50 40 21 9 9 10 12 16 20 21 22 22 22 21 34 32 56 60 62 66 71 71 71 71 75 77 74 82 93
63 70 76 79 77 75 74 68 68 76 72 63 54 47 36 28 12 9 11 13 17 22 23 24 24 24 23 30 19 35 69 71 71 72 70 71 77 87 87 88 94 97 91
61 72 82 80 76 76 74 67 78 74 66 59 48 37 29 18 10 11 13 18 24 26 26 27 27 26 29 21 20 31 83 80 75 71 71 70 74 75 86 88 86 86 97
64 76 84 82 79 78 70 77 77 71 63 52 40 31 25 12 12 14 20 26 28 29 30 33 33 30 29 26 27 90 91 82 74 72 71 71 70 86 88 79 79 86 98
69 80 84 83 83 74 75 79 75 67 57 43 37 26 12 12 15 20 26 30 31 32 38 43 31 42 44 50 75 94 88 78 75 74 74 74 85 90 83 83 93 96 91
62 69 78 83 76 74 81 77 69 57 50 46 24 12 13 15 20 26 30 32 32 35 39 45 50 50 48 54 82 95 85 79 76 76 77 91 86 78 85 95 94 88 83
65 73 82 77 74 81 79 72 61 49 48 23 12 13 16 20 24 30 34 33 35 39 40 48 50 55 60 78 94 94 88 81 81 82 93 84 82 84 96 96 92 96 85
72 78 74 75 81 80 77 66 53 39 21 12 14 17 20 23 31 36 34 35 39 42 46 49 53 66 74 81 90 94 90 88 92 95 90 82 86 97 87 82 89 88 91
74 74 76 81 82 81 75 58 41 21 13 15 18 20 24 34 38 34 33 38 45 46 48 52 64 72 75 83 89 93 92 93 96 90 90 89 99 82 83 86 88 89 93
75 77 79 81 84 80 70 46 19 14 16 18 20 26 38 39 37 36 37 46 48 52 58 64 71 73 80 81 86 89 94 95 93 89 94 97 83 84 85 87 91 93 94
78 79 80 82 81 69 40 18 15 16 18 21 29 40 39 34 36 35 40 40 52 61 69 76 78 83 84 84 85 87 90 91 87 94 96 83 82 83 87 86 87 94 100
80 82 86 86 64 38 17 16 17 19 22 32 40 40 37 35 35 36 45 48 51 59 89 90 92 94 91 89 94 92 94 94 97 97 83 84 84 88 90 90 92 98 97
85 88 83 69 42 17 17 19 21 23 32 40 41 38 34 36 34 41 52 67 80 92 74 59 99 96 96 95 94 93 96 98 94 90 88 88 94 97 95 95 98 98 98

GFSMW_850_rhum_027.txt.gz
RH
38 43 45 49 51 58 64 67 64 72 74 76 80 87 82 78 73 74 73 66 50 38 32 29 31 35 39 46 42 44 39 36 51 52 57 45 46 47 50 55 69 72 63
37 43 47 48 51 59 65 75 78 82 80 82 78 75 74 73 66 51 41 34 29 31 36 39 40 40 39 38 34 31 33 42 42 52 48 48 47 45 38 28 39 44 49
36 43 47 52 53 57 62 53 61 56 57 60 63 64 55 51 48 38 31 34 38 41 45 45 40 35 32 29 22 20 23 40 26 40 47 46 44 55 48 47 45 46 42
36 41 48 53 52 44 40 38 39 39 50 60 60 57 47 35 34 34 38 43 48 47 40 38 36 32 26 18 10 13 21 41 35 25 35 39 50 59 58 40 36 39 38
37 45 52 57 51 42 39 37 36 37 38 34 30 29 30 33 38 44 50 50 47 44 42 38 33 26 18 9 7 8 15 24 23 24 34 44 58 54 46 43 36 43 41
41 51 59 61 48 43 41 38 34 33 32 32 34 36 39 43 45 50 50 48 47 46 44 36 28 18 10 8 8 8 9 11 12 16 22 58 58 48 47 49 50 54 61
46 55 59 61 63 56 45 43 40 38 39 39 40 41 43 46 50 51 50 49 46 44 41 33 19 12 8 8 8 9 11 15 19 19 36 50 47 47 50 52 61 72 68
47 53 55 60 66 63 58 53 48 44 44 44 44 45 48 51 53 52 50 46 42 40 34 24 15 9 8 8 11 14 19 30 29 33 38 42 45 45 51 54 70 67 61
47 50 56 61 66 67 66 58 50 48 47 46 47 50 53 55 55 52 49 46 41 30 22 15 8 8 10 15 19 21 26 30 30 34 37 42 45 50 51 60 66 64 60
46 50 57 61 65 68 69 62 58 52 50 49 51 55 58 60 57 52 47 40 28 22 12 8 9 11 16 19 20 22 26 31 34 37 42 46 49 50 55 57 59 58 58
47 52 56 62 68 70 65 63 58 55 53 53 57 62 62 58 53 48 41 32 17 9 9 10 12 17 20 21 23 25 31 34 38 42 47 49 51 55 56 59 60 61 63
47 52 56 66 73 69 67 66 63 59 56 58 64 64 59 53 50 43 31 13 9 10 11 14 19 22 24 24 29 33 36 37 44 49 51 54 58 61 64 64 65 68 70
49 52 58 68 68 68 66 66 65 60 60 66 66 58 54 50 43 31 14 9 10 11 16 22 24 26 27 31 37 38 38 48 54 56 59 62 65 67 66 68 74 75 80
49 54 61 66 65 67 65 64 62 61 67 69 62 55 50 45 38 22 11 10 12 17 24 27 29 30 36 38 39 38 44 58 66 68 67 68 66 66 70 75 83 95 94
51 56 61 64 66 66 64 62 61 67 71 67 60 53 46 37 26 15 11 12 18 25 29 32 37 39 39 37 41 50 63 73 78 76 71 66 66 70 74 75 91 93 95
51 56 62 65 66 65 62 63 65 73 70 64 56 49 39 26 15 11 13 18 23 30 36 40 42 41 40 44 56 70 80 86 84 77 71 68 68 66 72 82 82 92 92
50 58 66 68 68 66 63 65 72 72 67 59 50 43 27 14 12 13 17 24 32 37 41 42 42 42 43 49 60 77 91 92 80 74 71 70 70 75 72 86 86 87 88
53 64 72 72 70 67 64 61 72 70 61 51 44 29 16 11 13 17 24 32 39 41 42 42 42 46 46 52 66 85 91 86 82 77 75 75 80 79 86 89 91 87 94
66 74 77 74 70 69 65 76 74 66 54 44 27 16 11 14 17 22 31 37 40 38 41 42 45 45 45 56 72 87 89 87 84 83 81 87 94 84 86 95 97 95 89
79 79 76 74 71 66 76 76 71 55 43 29 17 12 15 18 23 32 37 37 38 42 44 46 44 44 50 62 76 84 90 90 91 91 90 86 85 88 95 96 95 96 82
70 74 77 69 64 74 77 75 60 49 34 18 13 15 18 24 35 38 36 37 43 45 44 43 44 51 59 65 74 83 89 95 97 92 94 94 84 97 90 80 87 86 95
72 75 66 64 74 79 79 66 52 42 22 13 16 18 26 36 37 36 40 43 47 45 44 46 51 60 63 70 77 82 86 86 97 96 97 88 98 87 80 81 82 84 87
72 67 68 75 79 80 71 60 54 27 14 16 19 27 36 37 37 38 46 48 46 45 48 56 65 72 79 82 82 86 88 90 92 93 92 100 84 82 82 83 86 89 93
72 72 75 79 80 78 75 62 27 14 17 20 26 34 38 38 40 48 48 47 46 54 63 68 86 92 92 93 89 93 96 95 88 97 97 84 82 82 85 87 88 94 98
75 75 77 81 80 79 64 20 16 18 20 24 31 39 41 43 47 48 47 50 56 68 81 89 95 97 96 92 90 92 95 94 97 93 88 85 87 90 92 92 96 99 96
77 77 83 85 79 61 18 17 18 19 23 28 39 43 43 46 48 48 48 51 62 70 76 84 89 90 91 91 90 88 93 97 90 92 90 92 95 97 97 99 96 96 98

GFSMW_850_rhum_030.txt.gz
RH
32 37 46 46 52 60 63 54 45 49 58 77 81 84 86 90 85 73 72 58 40 31 31 37 39 40 38 35 33 30 27 25 20 18 19 17 24 25 40 50 27 21 16
37 43 48 54 62 70 76 75 76 78 80 84 88 84 72 72 67 50 37 30 33 37 42 42 38 35 34 32 29 23 17 15 15 23 18 32 31 38 16 20 20 31 38
39 45 49 54 68 72 78 81 76 77 81 80 72 70 60 48 38 32 34 38 44 45 41 40 40 38 35 31 22 16 11 13 11 10 24 44 44 36 37 38 34 35 17
39 46 52 56 66 67 68 63 60 61 60 58 53 49 44 35 37 39 44 47 45 44 44 44 43 40 33 24 18 13 9 10 11 9 10 15 28 61 63 47 21 27 24
40 47 55 58 58 57 55 54 56 61 61 56 49 35 33 39 44 49 49 47 48 44 42 44 44 39 30 20 13 10 9 10 13 15 17 15 18 34 45 49 40 47 45
42 50 59 63 60 56 51 46 41 40 38 34 36 39 41 45 49 50 49 48 46 45 45 44 38 30 22 14 10 9 10 11 14 17 18 24 44 45 49 52 51 53 53
47 56 63 62 58 52 46 41 36 37 38 39 41 43 45 49 51 51 50 47 48 48 47 41 32 22 12 9 9 10 12 14 16 19 20 27 31 36 46 50 54 58 56
51 59 64 64 59 51 52 46 44 43 44 44 44 46 49 51 52 53 53 54 53 47 40 33 20 10 9 10 12 13 16 18 20 22 25 29 33 41 46 51 57 60 64
53 58 62 64 60 57 56 51 48 47 46 45 46 49 52 54 56 57 55 50 45 41 31 17 10 10 11 14 17 20 20 20 20 24 27 31 38 45 51 52 54 61 69
52 55 61 65 65 64 60 56 52 49 48 48 50 53 56 59 58 54 48 43 35 25 14 11 11 12 16 20 22 21 18 20 25 28 28 37 47 51 53 57 60 63 67
50 55 61 65 67 67 65 61 56 53 51 52 54 58 61 60 54 48 45 36 22 13 11 11 12 17 21 23 22 19 20 25 33 26 30 45 50 58 61 63 68 70 70
49 56 60 65 68 66 67 62 59 56 55 56 59 63 61 55 49 48 42 27 16 12 11 14 18 22 24 23 22 23 27 35 31 29 35 47 61 64 69 70 68 71 72
50 55 61 67 69 69 67 65 62 59 58 60 64 64 57 51 48 44 34 20 12 11 14 19 23 26 24 24 25 29 37 35 35 38 48 55 70 74 70 68 70 74 85
51 55 62 69 69 68 66 66 64 60 60 65 66 61 54 51 46 40 22 11 11 15 19 24 27 25 27 31 32 40 44 53 56 48 54 76 79 73 72 73 76 88 95
51 54 63 68 67 67 65 65 62 61 65 68 65 58 54 49 40 23 12 12 16 20 26 28 27 29 35 37 46 54 61 66 68 59 77 84 78 76 74 76 87 88 90
51 56 62 65 66 66 63 62 61 63 69 67 61 55 50 40 24 12 13 16 20 27 28 28 33 34 34 35 55 62 66 74 76 82 88 84 79 77 80 82 82 88 98
52 57 61 64 66 65 62 62 62 69 69 64 57 52 41 22 12 13 16 22 28 29 28 26 28 31 30 41 56 62 74 82 82 89 84 84 84 82 81 86 92 95 96
52 58 64 65 66 65 62 64 66 70 67 59 53 42 24 12 14 16 23 30 30 28 25 24 26 32 37 48 55 68 76 80 85 86 91 92 91 86 92 95 97 91 91
55 63 69 68 67 65 64 64 67 70 64 55 42 25 13 14 17 25 31 31 29 23 24 27 30 37 42 44 62 72 76 80 87 94 98 98 92 94 87 95 96 97 94
65 72 73 71 68 66 65 71 73 66 56 44 29 14 15 18 27 32 33 30 26 26 30 31 35 38 43 50 67 74 80 88 92 98 94 97 92 86 95 97 98 97 80
75 75 73 70 69 68 73 74 68 59 48 34 16 15 18 28 33 35 33 28 31 33 32 32 32 37 49 66 77 84 87 92 97 94 89 92 89 97 94 86 94 86 95
73 72 71 70 67 71 75 72 65 58 40 16 15 18 26 34 37 36 32 30 36 38 37 35 35 49 63 84 92 90 89 94 96 96 86 86 98 88 87 87 86 88 93
71 69 68 67 73 76 75 70 68 44 16 15 19 25 34 38 37 35 33 37 39 40 40 46 60 71 86 83 92 96 94 95 93 88 98 100 89 88 88 91 93 96 92
67 67 68 74 78 78 75 70 44 15 16 18 24 33 39 39 37 33 36 40 41 46 54 70 77 82 85 87 87 98 97 98 91 93 97 96 87 89 94 92 91 96 97
67 69 74 78 80 79 72 43 15 16 18 22 29 38 41 41 37 34 38 41 42 54 70 74 78 82 87 87 85 90 90 93 97 96 92 79 92 98 100 99 95 98 96
71 72 75 78 78 72 53 17 16 17 21 24 32 40 44 42 36 36 36 35 40 55 73 77 80 82 84 86 89 89 93 97 94 94 91 99 100 100 100 98 96 96 97

GFSMW_850_rhum_036.txt.gz
RH
30 32 30 29 28 31 34 40 55 62 63 64 68 81 77 81 86 89 90 92 84 47 37 40 39 36 36 37 38 36 32 29 25 23 22 20 19 19 31 24 18 10 8
30 34 34 32 31 34 39 44 44 46 53 67 70 81 80 82 80 86 84 46 36 41 41 37 40 44 43 41 38 34 28 19 14 15 18 18 18 27 17 19 11 11 8
31 37 36 36 37 46 46 47 48 52 67 78 78 83 86 88 84 66 39 38 43 43 41 45 48 48 44 39 34 25 18 14 14 15 24 22 26 22 19 11 11 9 7
33 38 44 50 55 60 60 58 66 81 84 84 83 83 82 76 54 35 39 44 46 44 47 50 50 45 40 35 24 16 14 14 14 15 21 25 28 29 37 23 9 12 10
34 42 49 55 73 71 71 75 76 80 81 80 79 72 66 44 34 41 45 46 47 49 52 49 42 37 32 22 16 14 15 15 17 19 19 18 19 24 47 50 34 14 9
47 55 66 78 83 85 83 84 85 86 84 73 63 49 33 32 40 45 47 48 51 53 47 40 32 27 20 16 15 15 16 18 20 19 18 20 26 33 33 34 42 55 46
54 68 74 76 78 83 82 83 84 77 64 50 41 34 36 43 46 48 50 53 52 47 44 34 26 21 17 15 14 15 18 20 19 18 18 18 23 27 24 23 35 54 56
62 68 70 72 71 70 67 66 62 55 52 44 37 42 46 49 50 52 54 52 50 48 36 26 20 17 14 13 16 19 21 19 17 15 16 20 21 22 21 28 52 70 67
67 66 68 67 68 66 64 59 57 54 47 39 44 48 50 51 53 55 53 52 50 42 30 24 18 12 13 16 21 22 18 16 15 15 18 22 22 23 22 24 46 76 87
74 65 65 64 62 59 57 54 48 43 45 46 47 49 51 55 56 55 53 52 46 34 25 15 11 13 17 22 21 18 16 16 16 20 26 28 34 32 28 42 56 71 81
71 67 64 61 58 53 50 47 46 46 47 48 49 52 55 58 57 54 54 48 36 24 14 11 13 19 23 20 17 16 17 19 24 29 40 47 50 48 46 48 60 75 85
72 68 64 59 56 52 52 49 49 48 48 50 53 57 59 58 56 56 48 36 24 12 12 14 22 23 19 16 16 18 18 24 33 46 54 56 58 56 52 58 79 84 84
72 70 65 61 58 57 55 54 52 50 50 53 57 60 60 58 57 48 38 24 12 12 16 24 23 19 17 17 17 17 23 36 50 57 62 62 67 68 67 87 89 89 97
72 71 68 63 60 60 60 58 56 53 54 57 61 62 60 58 51 40 23 12 13 18 25 24 21 18 19 17 16 22 34 44 55 62 66 72 77 75 91 93 95 98 96
75 70 68 66 65 66 65 62 59 56 55 59 62 62 60 54 43 26 13 13 20 26 25 22 19 19 18 16 19 46 55 57 60 70 74 78 73 91 89 93 95 94 96
73 70 68 68 69 69 68 65 61 59 58 61 64 61 56 46 30 15 14 21 27 25 23 20 21 20 18 18 34 58 61 65 77 77 78 70 77 92 93 93 92 92 95
69 70 67 67 69 69 68 66 64 60 59 64 64 58 49 36 18 15 23 28 26 24 21 22 23 20 20 21 22 35 68 80 78 74 75 74 92 88 81 87 92 80 97
68 68 66 68 69 70 68 66 64 61 62 66 60 51 42 23 15 24 29 28 26 23 23 24 23 22 21 22 25 44 76 72 72 75 76 95 87 88 91 96 95 96 70
63 64 63 65 69 69 68 65 62 60 65 64 55 46 28 15 24 30 30 30 25 24 26 25 24 23 22 28 37 91 84 81 77 72 98 97 94 91 95 97 95 96 79
58 60 64 68 69 69 66 64 61 64 66 59 49 32 15 24 32 34 34 30 27 28 28 23 20 21 29 39 53 92 89 89 80 96 90 97 92 94 98 94 97 92 75
59 63 66 67 68 66 64 62 64 68 62 53 33 16 24 34 38 39 37 32 29 28 25 20 17 21 34 48 77 93 92 92 99 88 96 78 99 98 90 91 93 94 97
65 65 67 68 66 64 64 64 70 65 57 36 16 22 33 38 41 42 40 33 31 29 21 17 17 25 41 62 68 93 90 96 91 96 84 95 97 94 96 98 100 100 99
67 68 67 66 64 63 65 74 68 63 41 16 21 29 37 39 43 45 41 34 31 24 19 25 35 46 60 69 77 98 92 91 94 89 100 98 96 86 73 93 100 100 92
69 69 69 66 65 69 72 70 68 45 17 19 25 31 34 40 47 46 38 35 28 21 26 37 51 65 75 81 93 98 85 94 92 95 93 79 70 70 90 82 82 88 100
72 69 67 68 71 72 70 69 50 18 17 22 25 28 34 44 48 44 38 33 25 28 44 52 74 86 88 94 94 91 96 94 96 95 85 72 77 79 83 84 89 92 94
66 65 68 72 75 73 71 53 20 17 20 22 24 28 38 48 48 42 36 26 23 25 28 35 67 75 94 95 96 94 96 96 100 98 83 90 94 95 97 99 96 90 93

GFSMW_850_rhum_039.txt.gz
RH
34 33 32 32 31 30 31 34 48 60 69 72 80 85 86 89 95 96 96 92 91 86 52 38 39 36 42 42 39 37 35 31 27 24 22 19 19 16 19 27 19 13 7
37 33 31 33 32 31 32 38 56 61 70 70 74 81 86 85 93 94 90 87 69 39 41 39 43 46 46 42 37 34 30 21 19 18 19 16 15 20 25 11 12 9 9
38 34 30 33 34 32 35 40 46 56 66 70 74 84 88 84 86 86 84 64 39 42 41 45 48 47 41 34 31 27 22 19 17 15 21 19 23 19 14 12 12 12 8
40 37 33 33 35 35 40 44 48 50 58 71 76 78 80 76 76 72 58 39 42 44 46 50 47 41 33 28 25 21 19 16 15 16 20 22 25 25 27 18 12 12 8
40 37 35 34 38 46 47 55 61 63 70 80 82 82 84 84 73 53 38 43 45 48 51 47 43 34 27 24 21 18 16 14 17 19 19 18 19 24 44 44 25 11 8
40 38 38 46 52 62 64 70 80 87 88 88 88 87 86 75 55 37 43 46 48 52 48 46 37 28 24 21 19 15 15 18 20 19 18 19 25 32 37 39 35 38 25
41 42 47 63 68 69 76 80 87 90 90 88 82 76 66 46 36 43 47 50 52 50 49 40 29 25 22 17 13 15 18 19 18 17 16 17 23 29 30 33 29 47 35
49 42 55 64 70 74 81 86 89 87 85 74 62 45 36 39 45 48 51 53 51 51 45 33 26 20 14 12 14 18 20 17 16 15 17 22 26 29 35 40 46 58 64
62 57 68 73 78 81 85 87 88 83 69 53 39 39 45 47 49 53 54 53 53 48 36 26 18 13 13 15 20 18 15 13 14 16 19 24 31 36 39 41 45 65 91
84 79 76 79 80 82 84 83 79 64 52 44 42 47 49 51 54 55 54 54 50 37 26 17 12 13 17 20 18 14 14 14 14 17 23 30 40 48 49 53 52 60 81
86 81 78 74 73 74 72 68 62 57 51 46 49 49 52 55 56 56 56 52 38 27 17 12 13 18 20 16 14 14 14 14 16 20 34 41 52 57 64 66 63 76 82
82 76 72 70 68 67 66 63 60 53 50 51 50 52 55 57 57 58 52 39 28 17 12 14 19 20 16 15 16 15 14 15 22 34 46 52 62 71 73 71 83 82 86
78 72 68 66 64 62 60 58 55 52 50 50 52 56 58 59 59 53 43 29 17 13 15 21 21 17 16 16 16 15 15 24 37 48 55 65 72 74 73 86 86 98 100
74 69 67 64 62 59 56 55 53 50 50 52 56 59 60 59 55 46 32 19 14 16 24 22 19 18 17 17 15 16 25 34 44 51 59 66 71 70 91 91 96 99 90
77 70 65 62 59 58 56 54 51 50 51 55 59 61 60 58 50 37 23 15 18 25 23 20 18 19 18 17 16 22 36 44 44 51 49 54 64 84 93 91 90 94 94
80 73 66 62 61 59 58 56 54 53 54 58 61 62 60 53 42 27 17 18 26 25 22 20 20 20 18 16 16 37 39 39 42 43 52 61 74 80 93 95 96 91 97
78 75 66 62 62 62 61 60 57 55 56 58 62 61 56 47 33 20 20 27 26 24 22 22 22 21 18 18 22 29 48 38 48 58 66 78 86 80 84 87 95 98 98
77 76 70 66 65 66 65 63 60 58 58 60 63 59 49 40 24 20 28 29 29 26 24 25 24 21 18 21 25 29 29 48 62 73 82 95 86 90 93 95 98 79 81
68 68 66 66 67 69 68 65 62 60 59 62 61 53 45 26 20 28 32 34 33 30 28 28 24 19 19 24 22 24 53 76 81 85 99 97 96 94 97 97 97 94 77
62 61 66 68 69 71 69 66 63 60 60 63 58 47 30 19 29 36 38 39 37 33 31 28 20 20 22 22 23 61 84 87 87 100 96 94 95 96 98 93 97 96 80
61 65 67 68 70 71 68 65 62 60 63 60 49 38 19 28 36 39 41 42 39 34 31 22 18 17 19 21 30 85 92 88 99 86 88 80 95 98 93 95 96 95 97
69 70 69 72 72 70 67 63 61 63 61 54 42 19 26 36 37 41 44 44 38 34 25 18 16 16 20 29 41 95 94 91 88 95 85 90 99 98 97 95 100 100 100
71 72 70 72 70 66 64 63 65 66 59 44 19 24 33 35 38 44 45 42 38 29 20 20 22 25 28 38 63 94 96 92 95 92 98 100 98 79 64 77 100 100 87
71 72 71 68 64 63 63 66 70 61 45 20 21 28 31 34 42 46 46 42 35 24 21 26 32 33 40 56 86 97 88 97 97 97 96 84 69 62 73 78 80 88 98
70 68 67 66 65 64 68 66 66 50 21 19 24 26 28 34 42 47 45 41 30 26 32 37 44 56 60 86 98 95 96 95 96 98 87 70 69 69 81 83 88 91 92
68 68 68 66 68 69 68 68 47 20 18 22 24 25 27 35 45 48 44 34 25 23 26 29 35 42 60 96 99 96 97 98 100 96 77 76 79 86 92 97 95 90 92

GFSMW_850_rhum_042.txt.gz
RH
44 41 39 36 34 33 32 30 28 28 36 61 75 82 85 94 94 92 97 98 97 93 84 61 38 38 43 44 40 32 27 26 25 22 19 15 17 13 16 18 23 19 9
41 42 40 36 34 34 32 30 27 32 46 67 78 82 88 96 94 96 100 100 92 76 48 39 40 44 46 42 35 27 25 24 23 19 15 12 11 16 16 10 10 10 9
37 39 40 39 33 36 33 30 29 39 60 76 82 86 94 97 99 99 98 89 58 46 40 41 46 47 45 39 28 25 24 22 17 13 13 15 17 16 14 11 11 11 8
25 35 41 40 35 35 36 36 36 47 70 82 83 81 78 90 95 96 85 64 45 42 43 46 48 47 41 29 25 24 22 15 12 14 16 18 19 20 20 13 10 10 9
32 24 37 37 37 36 36 41 42 50 62 80 86 86 89 91 90 78 62 50 43 45 47 49 49 44 32 25 24 20 14 12 15 17 16 14 14 17 39 34 16 11 11
41 32 30 37 39 41 44 47 48 56 63 77 87 85 87 86 77 60 50 44 46 48 50 50 47 36 27 24 19 13 12 15 16 15 14 15 19 23 31 38 34 39 26
35 45 44 42 41 46 50 58 59 62 69 81 85 80 83 80 71 54 44 46 49 50 51 50 41 29 24 17 12 13 16 16 14 12 13 16 21 26 31 39 37 47 32
48 46 45 43 41 46 57 66 73 77 85 84 85 85 81 71 50 44 47 50 51 52 52 45 32 23 16 12 14 17 16 13 13 13 14 17 23 32 41 49 56 59 58
32 51 51 47 47 52 63 75 85 90 91 89 88 76 58 45 45 48 52 52 53 54 48 34 23 16 13 14 18 16 13 13 13 14 16 20 30 40 45 52 61 75 81
40 57 62 61 60 61 76 88 91 91 90 80 64 49 46 48 49 53 53 54 55 49 36 25 16 13 15 19 16 14 14 13 13 14 20 26 33 42 50 64 71 75 76
59 69 75 78 78 78 87 91 91 87 72 56 47 46 50 50 54 54 56 57 50 39 28 18 14 16 20 17 14 14 14 13 13 18 24 26 37 48 61 71 74 73 83
85 86 83 85 86 88 91 90 84 73 56 49 48 50 51 54 55 56 58 51 42 31 20 15 18 20 17 15 15 14 14 14 17 21 27 33 48 57 64 61 70 80 87
90 89 90 89 87 86 85 80 70 59 53 50 50 52 55 56 57 58 54 45 35 23 16 19 21 18 16 16 16 16 15 17 21 27 35 44 52 52 54 78 86 92 98
88 88 88 85 82 79 74 68 62 57 52 52 52 55 57 58 59 56 48 39 27 18 20 22 19 18 17 18 18 16 16 18 21 28 36 42 52 56 86 94 96 97 87
86 82 78 76 74 70 67 63 59 54 52 52 55 57 59 60 57 50 43 32 21 21 23 21 20 20 21 20 17 17 20 23 32 36 46 57 61 72 96 94 93 94 89
85 78 72 69 67 65 62 58 55 52 51 54 57 59 61 59 53 47 36 23 22 25 24 23 23 24 24 20 16 18 28 34 42 50 61 64 72 72 96 96 100 96 97
81 74 68 66 64 61 58 55 51 50 52 56 59 61 59 55 48 38 26 23 27 29 29 28 29 28 24 18 15 16 24 40 52 64 68 77 81 81 84 86 100 98 96
77 72 68 64 61 58 55 52 51 52 55 58 60 60 57 50 41 28 23 29 33 35 35 34 32 28 20 16 15 17 33 55 65 68 80 91 84 90 95 96 99 84 84
70 66 63 60 59 58 57 56 54 55 56 58 60 60 53 44 31 23 30 36 38 39 39 36 32 22 17 16 16 22 63 73 73 82 97 95 95 95 96 96 97 88 77
66 63 65 63 62 62 61 60 58 56 56 60 61 55 45 31 23 31 37 39 41 40 38 35 26 18 16 17 19 66 87 89 86 98 87 89 99 98 99 94 97 92 81
64 67 68 65 65 66 65 62 60 59 59 60 57 46 33 23 31 36 38 41 41 40 38 32 21 16 17 19 26 45 94 93 99 88 94 88 100 97 95 97 96 96 97
72 72 69 70 70 69 68 64 62 59 59 57 46 36 24 30 35 36 41 42 42 42 36 24 17 15 18 24 30 66 98 94 92 96 90 95 97 100 99 88 98 100 100
71 73 70 73 73 70 67 65 61 59 59 49 40 24 27 33 33 38 41 43 44 42 28 19 18 20 21 26 39 72 97 94 96 93 99 100 98 69 60 75 88 87 85
74 75 74 74 72 67 64 62 61 61 55 47 25 24 30 29 33 37 40 44 45 32 22 24 25 24 28 38 72 94 88 96 96 95 94 74 67 61 68 75 78 84 90
77 76 74 72 67 62 60 62 64 59 50 25 21 26 26 28 31 35 42 48 36 26 28 29 31 42 46 67 98 97 94 96 96 100 77 66 66 65 77 80 81 85 89
75 74 70 66 62 61 63 63 60 47 24 20 23 24 25 26 29 38 49 40 26 22 23 26 32 35 39 73 100 100 99 100 100 79 69 70 74 75 87 89 88 87 91

GFSMW_850_rhum_045.txt.gz
RH
42 45 45 43 40 38 35 34 32 32 30 31 39 76 84 93 91 97 93 88 96 98 97 86 57 38 38 43 44 40 28 22 21 19 13 10 15 9 12 17 14 10 12
31 35 41 43 41 38 36 34 34 34 32 35 37 70 86 89 95 100 97 98 98 95 79 53 40 39 43 45 42 29 22 22 20 12 10 9 10 15 15 11 10 9 9
26 21 29 36 41 39 35 33 35 34 35 37 45 80 94 100 100 100 100 100 99 77 50 41 40 44 46 45 35 24 23 19 12 10 12 14 19 13 10 10 9 9 9
31 18 14 26 36 40 34 34 35 36 43 48 61 80 88 99 100 100 100 96 79 55 44 44 45 47 48 41 28 22 18 12 11 13 14 13 13 17 26 11 12 12 11
27 25 15 13 29 40 37 33 35 40 50 63 80 92 97 100 100 99 94 81 61 44 45 47 48 49 45 33 23 18 12 11 14 14 12 11 12 14 25 32 17 14 14
26 30 31 25 18 41 39 35 36 42 53 74 88 96 97 98 98 95 80 56 48 46 48 49 50 48 37 25 18 13 12 14 14 12 11 13 16 19 28 48 47 47 31
21 23 32 39 36 42 41 39 41 46 56 78 92 98 99 99 96 89 70 53 47 48 49 51 50 42 27 19 13 13 15 14 12 11 12 14 16 18 23 33 49 56 49
26 38 32 42 42 44 42 43 46 54 62 80 92 96 98 96 87 67 49 47 49 50 52 52 45 30 20 14 14 16 15 12 12 13 13 13 17 22 28 38 55 57 56
27 32 28 49 50 48 46 45 52 61 70 84 92 93 90 86 71 50 48 50 51 53 53 46 34 22 16 15 17 15 12 13 13 13 13 16 20 24 32 40 52 77 75
30 27 28 48 58 57 56 62 66 64 78 88 88 89 86 65 49 48 51 52 54 55 48 37 25 17 16 17 16 14 14 14 14 15 16 19 23 26 34 46 56 64 84
32 30 36 60 64 69 74 79 81 82 88 83 87 78 56 48 49 52 53 55 56 50 39 29 20 18 19 16 15 15 15 15 16 17 18 20 27 31 35 38 43 52 77
36 45 59 72 83 84 92 92 91 91 88 82 70 55 48 49 52 54 56 56 51 43 33 22 19 20 17 16 17 17 17 17 17 16 18 22 28 30 34 42 54 77 93
71 88 94 99 95 96 97 94 92 89 77 63 53 48 50 53 54 57 58 53 46 37 25 20 20 19 18 19 20 21 19 17 17 20 27 29 34 40 49 69 94 98 100
96 98 99 99 97 97 95 91 82 73 59 51 49 50 53 55 57 58 54 48 40 28 22 22 21 22 23 25 24 21 18 16 18 23 30 36 48 57 80 100 98 99 94
97 96 95 96 96 93 87 77 69 57 52 51 51 53 55 57 58 54 50 42 31 24 23 24 26 28 30 29 24 18 16 19 21 27 33 45 59 75 98 98 97 94 95
94 90 91 92 89 84 75 66 59 53 51 52 54 56 58 58 55 51 45 34 25 24 28 31 33 34 32 28 21 15 17 21 30 35 45 61 74 76 100 97 99 99 96
89 88 87 85 82 76 70 61 56 52 52 53 56 58 59 57 53 46 36 27 27 32 35 37 36 35 31 24 17 15 17 22 29 41 62 82 82 82 87 86 100 98 99
85 84 81 77 73 68 62 58 53 51 53 55 58 59 58 55 47 36 28 28 33 37 38 37 37 35 26 18 15 15 18 26 38 59 79 86 86 96 98 94 99 83 94
80 76 72 70 67 63 58 54 51 52 54 57 59 58 54 47 37 29 29 34 37 38 38 38 38 30 20 16 15 17 25 47 67 73 86 91 100 99 96 96 95 98 96
74 69 68 65 62 58 54 50 51 53 56 58 58 55 46 36 31 29 33 37 38 38 39 41 34 21 17 16 16 21 64 96 94 99 98 99 100 96 100 96 96 100 80
69 69 66 63 59 54 52 52 54 55 56 58 57 50 41 34 29 33 35 38 38 40 43 40 25 17 16 16 18 26 95 98 97 95 98 96 100 100 96 98 99 94 97
75 70 66 62 58 56 56 57 56 56 57 58 53 44 36 29 32 33 37 37 38 43 43 30 18 15 14 17 23 39 97 97 96 99 97 98 99 98 98 82 86 100 100
76 73 67 64 62 60 60 60 58 58 58 56 48 45 33 30 32 33 34 35 42 45 31 19 16 14 16 20 29 56 93 97 97 96 97 98 78 61 58 66 82 81 84
78 76 70 68 66 63 61 63 60 58 58 52 45 30 28 29 28 30 32 41 47 34 20 17 17 19 22 29 54 92 90 98 97 95 89 65 64 60 60 73 76 83 90
80 78 73 71 68 62 60 61 59 59 54 45 29 25 27 26 27 29 38 48 37 23 20 21 23 30 35 52 97 99 96 96 94 100 68 62 64 60 72 80 81 85 90
80 78 74 71 66 61 59 59 59 55 51 29 23 24 25 25 27 34 49 40 23 18 20 21 25 28 36 56 100 100 98 100 100 84 64 66 71 70 85 88 87 88 92

GFSMW_850_rhum_051.txt.gz
RH
27 27 31 32 32 35 38 37 37 44 47 59 76 82 80 87 94 98 100 99 88 83 86 84 91 91 83 44 39 42 42 34 20 14 15 20 15 13 18 19 25 32 18
20 23 28 31 34 39 43 41 39 42 52 58 60 77 84 88 90 99 98 96 90 83 94 92 93 93 61 40 42 42 36 29 17 11 19 28 27 32 22 28 22 16 17
20 18 18 24 31 34 39 43 41 43 52 64 76 84 87 92 96 99 99 100 100 100 98 98 98 88 42 43 44 41 30 21 15 11 11 28 28 24 20 21 27 20 30
22 22 19 17 17 30 37 42 44 46 57 72 80 66 54 68 77 99 100 98 99 100 99 98 78 59 51 44 44 36 27 17 13 14 13 11 11 26 25 24 29 28 26
20 22 22 23 20 17 34 43 48 52 65 79 82 64 68 67 69 99 99 100 99 100 98 78 48 63 63 46 44 31 22 15 13 13 11 12 19 29 37 39 29 27 32
18 19 21 25 26 25 27 42 53 58 72 85 65 58 83 56 70 100 100 100 98 96 82 71 63 46 45 44 36 28 18 14 13 12 12 13 20 29 38 39 34 35 32
16 17 21 25 28 31 31 42 64 69 79 74 82 85 71 66 78 97 99 99 96 88 77 69 54 45 46 38 31 21 16 14 13 13 14 14 18 27 30 42 44 46 34
20 21 21 22 26 32 38 45 70 74 79 83 87 95 78 79 95 100 100 96 93 87 54 52 46 44 39 31 24 17 15 14 14 15 16 17 20 27 34 43 53 55 50
25 26 25 30 30 31 43 55 73 76 82 88 95 89 81 91 100 100 98 92 82 58 48 47 46 38 33 26 19 16 15 16 17 18 20 23 26 30 35 40 51 63 64
34 36 38 37 41 39 45 62 71 78 85 94 91 83 92 94 99 99 92 87 60 47 47 46 39 35 29 21 17 16 18 19 21 23 23 24 26 30 35 44 54 59 62
32 33 42 44 44 42 53 70 74 81 87 88 83 92 98 97 100 92 87 62 57 47 47 41 39 31 23 19 18 20 23 24 25 25 26 26 31 36 41 50 56 61 64
55 52 58 58 48 44 64 74 78 81 78 75 80 93 98 97 92 77 62 58 49 46 43 39 33 25 20 20 23 26 27 27 27 26 30 33 41 43 50 58 63 66 71
70 62 50 49 46 57 76 79 77 74 72 74 84 95 93 91 68 60 52 49 48 45 41 35 28 22 23 26 28 29 29 28 30 36 40 36 49 54 60 66 73 79 80
72 66 58 54 66 76 79 76 73 69 67 76 86 82 72 61 58 50 49 49 44 42 37 29 24 25 29 30 30 30 29 30 35 43 50 54 56 61 71 76 90 87 85
72 69 70 72 75 77 73 69 66 64 68 75 70 62 58 56 49 50 48 46 43 38 31 26 28 30 31 32 32 31 26 24 31 39 47 54 62 68 87 93 91 91 92
77 73 72 73 75 68 62 60 61 69 71 74 64 60 51 53 50 48 46 45 40 33 28 29 32 32 34 34 33 28 20 16 23 34 42 60 70 72 85 89 88 88 95
80 76 73 66 63 59 55 57 70 70 69 68 56 51 52 51 49 46 45 42 35 32 30 32 33 35 36 36 29 20 15 14 24 49 66 73 75 83 85 85 86 88 92
77 73 65 62 59 58 56 65 69 66 65 53 51 51 52 50 47 46 43 38 34 31 32 34 35 37 38 31 20 16 14 18 42 59 74 78 80 83 85 90 87 84 84
73 67 62 59 59 60 61 66 61 59 57 51 51 52 51 51 48 45 39 35 32 33 34 34 36 39 30 22 16 14 13 25 56 73 73 79 84 82 90 90 97 95 82
77 65 62 62 67 70 78 76 57 56 63 53 53 52 52 50 46 42 42 35 34 34 32 34 41 35 22 17 15 13 15 39 73 77 81 81 82 88 91 94 94 92 89
87 92 93 89 90 90 82 81 76 57 53 54 54 52 48 45 43 59 38 34 33 30 33 42 36 26 25 21 15 14 22 75 91 88 88 86 90 92 92 94 94 97 98
74 65 68 74 66 60 56 51 53 54 54 55 54 49 45 55 77 35 32 30 28 32 42 40 25 30 37 33 34 37 85 95 95 91 89 89 94 94 94 96 96 100 100
75 68 66 56 53 53 53 53 54 55 55 54 52 61 90 46 34 30 28 26 29 41 40 25 22 27 30 40 59 78 91 94 94 90 93 94 95 96 86 89 98 100 97
77 78 71 63 55 52 52 52 55 56 58 68 76 58 42 34 29 27 25 28 40 42 24 20 22 20 29 45 59 39 62 83 91 93 88 84 92 80 84 86 88 90 95
68 62 58 56 54 51 52 55 57 62 64 53 46 46 34 27 25 24 27 40 44 25 18 17 16 20 22 31 36 66 86 97 97 98 63 72 76 79 85 88 89 89 94
65 59 57 56 52 51 55 57 60 58 52 48 48 34 26 24 24 26 38 45 27 18 17 16 16 18 26 36 38 62 98 97 92 68 77 81 82 88 88 92 87 90 95

GFSMW_850_rhum_054.txt.gz
RH
25 22 25 23 22 27 32 38 39 39 42 66 79 88 77 79 79 83 78 94 95 83 78 79 78 83 88 83 58 38 39 40 33 22 14 14 18 18 20 16 20 21 22
24 24 25 26 27 27 26 34 37 39 38 42 68 82 77 76 80 81 85 98 98 91 85 83 83 88 91 81 49 38 41 40 29 17 14 22 22 27 28 20 19 21 18
22 21 21 25 27 30 32 32 34 38 40 40 60 81 82 78 84 88 85 93 100 100 89 89 90 92 95 75 69 48 44 38 26 16 13 15 26 24 16 21 22 20 23
24 23 22 20 20 27 29 34 40 38 42 42 60 75 77 80 80 70 81 97 100 99 98 98 97 99 91 67 48 43 42 31 20 17 13 12 11 10 12 19 23 26 28
21 22 22 22 22 21 25 28 36 43 42 46 63 72 74 70 66 74 91 98 100 100 98 99 97 97 72 54 50 42 35 29 19 14 12 12 12 16 24 23 16 17 19
16 18 19 22 22 22 22 30 34 38 44 51 70 77 68 62 73 81 98 99 100 100 100 99 83 63 63 61 46 39 31 25 16 13 12 13 14 19 24 28 21 21 18
18 18 18 19 21 24 26 25 37 42 46 59 76 87 76 69 62 66 77 97 99 99 97 84 69 67 58 52 42 36 27 20 15 14 14 15 16 18 22 27 27 32 22
19 20 20 22 22 26 28 28 28 56 54 68 82 91 90 74 64 63 79 97 95 95 93 74 74 70 47 42 39 33 23 16 15 16 17 19 21 22 24 28 37 40 39
23 25 27 25 25 27 30 32 35 49 68 82 92 90 82 78 76 78 99 97 98 95 83 72 56 47 44 40 36 25 19 16 18 20 22 22 23 24 25 29 37 52 67
34 34 35 35 36 36 38 38 43 53 73 83 89 91 89 89 79 97 99 100 96 84 75 58 47 43 42 34 28 21 18 20 22 24 24 25 26 25 26 28 31 39 52
48 42 44 44 45 36 41 43 44 68 76 89 88 94 95 87 97 100 100 99 90 69 52 47 43 38 37 29 22 20 22 25 25 26 26 28 29 26 26 30 32 43 58
66 68 66 68 59 44 43 46 57 71 81 83 92 96 88 98 100 100 95 83 66 47 45 44 40 37 32 24 22 24 26 26 27 28 30 29 26 26 30 36 50 62 66
76 73 70 66 66 59 49 55 68 82 81 92 93 88 97 98 98 93 78 61 52 51 42 45 36 33 26 24 26 28 28 29 29 30 29 27 30 31 41 52 58 62 66
75 72 76 78 53 55 63 70 80 87 81 88 80 91 91 95 81 79 60 52 48 44 45 38 35 29 26 28 28 29 30 29 26 23 25 32 40 52 60 65 76 88 87
73 72 77 89 72 76 78 79 77 77 79 74 80 82 74 78 71 65 53 50 50 45 37 35 30 28 28 29 31 32 31 25 19 17 20 32 46 53 75 82 87 91 91
75 72 82 94 86 76 77 72 71 69 70 73 63 73 69 61 56 50 49 46 44 40 37 32 29 29 29 32 34 32 25 18 16 15 20 35 45 54 77 86 89 88 91
77 74 72 72 67 68 68 67 61 60 63 61 59 63 57 52 47 46 46 46 42 40 34 30 30 31 31 35 33 25 18 15 12 15 32 45 58 66 78 84 87 90 91
76 72 68 64 62 60 59 56 54 56 55 50 56 54 50 51 58 53 45 44 42 36 31 31 31 32 34 35 25 18 15 12 11 18 38 65 72 79 86 86 95 91 82
73 68 63 61 56 54 54 55 56 53 55 51 52 57 70 55 47 47 46 42 37 34 32 30 30 36 37 28 19 16 12 10 11 23 42 58 74 86 88 92 85 90 90
65 62 60 57 57 62 61 60 54 52 56 74 74 55 46 48 48 46 44 55 36 31 28 29 36 37 28 23 20 15 12 13 24 39 44 65 91 93 92 92 97 97 88
70 70 74 70 65 65 66 80 87 85 76 66 61 56 48 46 49 70 53 32 29 26 27 35 39 29 26 24 22 21 24 46 75 84 79 84 94 94 93 93 95 93 96
97 90 82 91 92 97 100 97 96 94 88 72 50 49 54 57 72 56 31 27 25 26 36 41 29 24 25 25 27 57 80 82 87 85 90 91 97 96 95 94 92 97 98
96 100 100 100 100 100 98 81 59 52 49 48 48 48 72 91 44 30 25 24 26 37 41 28 20 19 18 19 25 26 33 32 68 80 96 99 93 71 77 73 95 97 85
62 62 61 58 57 58 55 52 50 51 53 57 82 98 83 40 29 25 24 25 34 43 27 19 17 15 13 15 19 24 29 39 66 86 90 66 48 61 72 65 72 82 88
67 57 54 52 54 53 53 55 56 67 78 92 92 54 44 30 24 24 26 34 43 29 19 17 15 13 12 20 28 35 68 96 100 99 70 49 52 56 60 72 83 86 88
63 60 61 57 53 53 55 56 69 79 84 60 54 47 30 24 23 24 31 44 30 20 18 15 11 14 22 28 36 57 97 99 97 76 57 57 62 67 73 86 87 87 91

GFSMW_850_rhum_057.txt.gz
RH
27 25 25 25 25 26 27 32 37 53 61 65 71 73 76 86 76 82 82 81 81 81 87 91 86 80 77 79 82 72 38 38 40 39 27 18 16 17 19 19 19 20 20
24 26 26 25 24 23 23 29 37 38 60 64 69 69 67 73 74 72 80 79 78 83 83 92 89 79 79 83 84 62 40 40 42 41 32 16 21 19 24 24 18 21 22
25 23 23 24 25 25 25 25 27 38 39 50 56 62 72 74 71 74 80 82 80 86 86 93 88 83 84 89 83 58 51 45 41 38 25 14 17 16 14 18 25 31 23
25 24 23 23 22 23 26 26 29 33 38 40 41 50 58 67 75 74 76 77 80 84 90 96 92 90 91 90 82 71 42 42 41 36 22 14 12 11 11 15 19 22 22
23 23 23 23 23 22 20 23 26 29 38 40 41 43 62 65 64 67 61 71 77 82 98 95 92 94 93 93 77 51 43 42 42 32 18 14 12 13 15 17 16 16 17
20 22 22 23 23 23 22 22 27 28 29 40 46 44 47 58 65 63 59 72 81 98 100 96 96 98 98 80 66 53 46 37 40 28 16 13 14 15 18 21 19 20 17
18 18 17 18 18 19 23 25 24 25 33 37 42 50 50 53 55 56 55 65 92 98 95 93 98 100 94 70 68 48 38 39 31 20 15 15 16 18 20 23 25 27 21
20 19 20 20 21 22 20 21 24 26 29 41 40 50 58 67 63 62 60 86 99 98 96 93 100 91 71 71 56 40 35 34 22 17 17 18 20 22 24 27 30 32 31
37 37 36 31 27 25 26 25 25 27 33 53 50 58 60 67 72 76 94 100 100 100 98 97 90 79 77 58 38 37 30 21 19 18 20 22 23 24 26 26 31 42 55
42 42 42 40 39 39 33 30 30 34 38 63 61 66 65 75 84 93 92 98 100 95 95 86 83 80 59 44 36 36 39 20 20 22 23 25 26 27 27 27 29 35 45
55 59 59 63 63 49 44 42 39 36 43 66 71 76 76 83 92 88 86 95 94 92 88 85 68 64 51 41 35 27 23 23 23 24 26 28 28 28 27 28 30 32 41
60 70 72 70 67 64 60 51 44 42 43 54 69 85 84 90 91 94 98 100 96 90 81 75 50 43 37 33 25 24 24 24 25 27 28 28 28 27 30 32 33 39 46
77 70 68 71 75 74 71 66 47 46 51 63 76 80 81 90 97 91 99 98 88 83 56 50 45 38 36 28 27 26 26 27 28 29 26 24 26 30 34 38 44 56 66
72 69 71 86 76 63 64 68 72 55 58 69 83 76 88 93 94 99 98 94 71 58 43 44 47 36 41 32 29 27 29 29 28 24 19 20 27 34 42 52 71 80 84
72 71 99 82 84 71 80 78 77 66 76 90 85 77 93 93 96 91 84 72 59 51 60 49 34 40 42 30 28 30 31 28 22 17 16 18 25 39 48 78 83 88 90
77 75 92 91 80 79 81 79 81 91 94 87 84 89 87 88 77 75 69 69 55 45 43 48 45 31 31 30 31 33 28 20 17 14 12 15 26 42 59 81 88 90 91
78 69 71 85 96 91 89 91 90 83 81 82 81 75 73 69 69 63 66 70 45 40 52 57 34 31 30 32 34 28 20 16 13 10 10 17 33 48 61 68 86 92 94
74 68 63 65 71 70 69 71 73 72 73 70 60 62 74 74 84 74 43 46 64 67 37 31 30 30 32 34 29 21 17 13 10 9 17 29 37 44 75 92 94 96 90
72 68 63 61 60 63 66 64 60 62 60 57 59 74 95 89 54 57 85 82 47 34 34 31 30 33 36 30 21 17 13 11 12 17 27 36 43 65 95 94 94 97 93
66 65 60 58 57 56 56 57 57 59 63 71 79 96 89 81 85 60 40 39 41 41 32 29 34 37 29 23 18 14 14 20 18 15 24 38 61 96 95 96 97 96 89
64 60 58 58 59 57 56 57 63 74 96 95 86 98 98 88 44 54 68 76 48 27 28 35 37 28 22 19 18 25 46 53 45 32 34 44 69 98 96 96 97 94 93
91 79 78 82 92 81 78 95 97 99 99 100 97 95 84 75 86 88 76 29 26 28 35 38 28 21 20 19 16 16 20 31 36 43 54 78 98 98 94 90 88 96 98
99 98 98 99 99 99 100 99 100 99 100 100 100 92 97 97 84 33 26 25 27 36 39 26 20 18 15 12 12 16 22 27 40 67 92 100 89 52 47 48 66 72 82
95 94 95 96 99 100 100 99 99 93 60 46 71 99 94 48 30 25 24 26 37 40 26 19 17 14 11 12 17 20 26 40 68 79 89 71 50 46 50 58 74 81 85
94 91 92 92 97 97 83 73 54 54 78 100 99 74 40 30 24 23 26 36 41 27 20 17 13 10 14 19 27 38 70 97 98 96 56 45 43 45 55 74 81 83 86
72 72 75 74 68 60 51 48 61 84 99 96 54 44 31 24 23 25 37 43 27 20 17 12 10 15 27 37 38 48 93 96 73 55 49 47 53 59 72 84 84 83 86

GFSMW_850_rhum_060.txt.gz
RH
26 27 27 27 28 30 29 29 30 37 58 66 68 71 68 80 80 80 82 84 87 82 76 82 86 87 84 86 77 79 77 44 37 39 34 27 21 21 18 20 22 23 22
25 26 26 28 25 25 27 26 27 29 37 55 62 66 65 70 72 79 82 79 82 84 77 79 87 89 90 90 80 84 75 44 38 40 36 25 28 25 18 23 25 21 24
26 24 24 24 26 26 26 25 25 25 30 42 58 64 68 69 70 74 77 76 81 79 81 78 80 89 91 89 83 86 75 47 42 41 34 24 19 18 16 16 19 23 28
28 26 24 24 24 23 23 25 26 25 27 42 50 56 63 61 63 61 66 74 79 74 71 84 84 88 96 90 87 87 82 54 45 40 37 25 23 14 12 16 18 22 26
24 24 24 24 24 24 23 22 23 26 27 33 49 53 55 58 56 57 60 70 73 66 70 70 87 90 95 90 89 90 86 53 38 42 36 27 23 14 13 14 16 18 19
21 22 23 23 22 23 24 23 22 21 26 30 31 42 54 56 57 56 54 66 66 65 71 86 97 100 86 89 93 94 75 45 43 35 31 24 17 15 15 16 17 18 16
27 22 21 19 18 19 22 22 23 23 23 26 32 39 39 46 49 51 56 59 61 60 67 86 100 100 88 92 96 91 69 57 41 40 26 22 17 16 18 20 21 23 20
38 36 37 34 25 22 21 20 21 24 24 23 25 34 43 45 48 53 56 58 59 59 70 95 100 100 94 97 96 80 68 50 42 31 23 20 18 20 21 23 24 26 25
49 48 40 36 36 38 29 27 24 22 22 22 25 28 42 50 48 50 57 62 63 68 92 100 100 100 96 96 77 71 65 33 28 23 23 20 21 22 24 25 26 32 43
52 53 54 54 52 50 42 40 31 26 25 26 25 33 54 52 51 55 59 66 75 98 100 100 100 100 92 75 76 54 50 42 39 22 22 22 22 25 27 27 28 30 38
59 58 61 65 66 61 57 55 44 40 36 32 31 50 76 73 61 57 63 73 97 100 100 100 96 87 76 84 46 53 56 30 25 24 24 25 26 27 27 26 28 30 38
66 71 73 67 66 69 68 63 58 49 47 42 36 36 71 71 65 66 67 98 100 100 100 96 88 79 69 47 42 34 28 28 25 25 27 28 26 25 25 27 28 30 35
73 74 70 72 72 74 76 68 63 63 57 55 42 47 67 76 77 93 96 99 100 100 95 83 79 76 49 31 38 38 31 27 27 27 28 25 22 20 22 25 28 37 48
81 74 70 71 70 76 72 64 71 74 70 62 55 63 87 95 97 87 92 98 100 93 82 69 67 50 59 39 35 42 50 31 27 27 23 19 17 18 21 27 40 55 69
82 75 69 70 82 83 88 97 90 76 85 76 62 80 98 99 96 94 96 96 86 82 78 68 49 37 44 54 60 33 30 30 26 20 17 15 14 16 26 56 63 78 83
81 74 70 73 85 81 88 92 94 96 99 96 94 99 96 95 94 94 92 79 75 70 69 77 84 69 71 41 31 34 32 26 19 16 12 10 11 17 28 37 46 88 93
78 70 67 75 97 93 84 89 92 93 96 99 94 90 92 89 90 88 82 73 66 84 87 88 78 81 50 53 45 32 26 19 15 12 10 10 15 25 26 35 65 86 88
75 66 64 70 77 90 96 97 91 95 94 87 80 83 83 86 92 84 92 86 88 90 95 91 57 39 32 33 33 25 20 16 13 11 13 20 21 22 38 82 93 95 93
73 65 60 64 70 72 78 85 87 86 80 78 76 70 80 95 98 100 98 98 96 96 61 40 39 38 35 32 24 19 16 14 13 15 20 20 24 32 88 96 98 98 92
67 65 59 58 63 66 68 69 68 65 65 64 72 99 99 100 99 98 95 98 98 52 66 59 36 37 31 24 20 16 15 13 14 14 18 23 30 54 97 98 98 97 82
65 63 62 58 59 58 58 61 61 63 78 98 100 100 100 98 98 98 97 71 86 66 35 37 37 30 24 21 20 18 17 21 18 20 22 28 50 99 98 97 89 79 97
65 64 63 64 62 58 58 67 93 100 100 99 99 99 99 100 98 98 96 65 35 34 38 38 28 22 20 16 13 13 16 21 24 29 38 55 93 98 55 42 45 92 93
84 76 83 89 84 78 98 99 99 100 100 100 99 100 100 99 97 57 37 34 36 40 38 26 20 18 14 11 13 18 21 25 34 51 77 76 59 44 41 44 56 75 82
90 90 93 93 96 100 100 98 99 100 100 98 99 99 99 65 39 35 32 32 38 38 25 20 17 13 12 15 18 20 24 34 56 66 45 42 41 41 46 53 73 79 84
92 93 93 95 99 100 100 100 99 92 84 90 98 94 45 37 31 29 29 38 39 26 20 16 12 12 16 20 22 28 50 88 75 54 38 38 38 39 49 71 79 81 84
92 92 92 97 98 99 99 89 63 62 86 99 78 41 35 29 26 28 36 41 26 20 17 13 12 16 21 27 30 31 42 43 41 39 45 44 48 56 72 82 81 82 86

GFSMW_850_rhum_063.txt.gz
RH
28 29 27 28 26 25 31 34 31 32 33 50 71 71 68 68 74 76 75 71 78 84 77 76 79 81 82 85 85 90 85 79 74 38 38 34 29 25 21 20 23 23 24
28 26 27 27 27 28 27 30 31 30 29 30 39 66 66 65 66 67 65 76 74 80 79 77 75 78 83 90 90 91 81 80 64 39 37 32 32 28 26 22 26 26 17
29 26 24 24 25 26 28 27 27 28 28 29 32 49 67 66 64 68 66 72 78 70 66 66 76 74 81 88 90 92 81 83 65 45 38 32 31 25 24 24 22 22 20
32 30 26 25 23 23 25 25 26 26 26 26 28 32 42 58 63 59 61 65 74 65 60 64 76 79 82 89 95 96 84 85 71 53 46 37 31 22 18 20 16 17 24
27 28 28 27 26 26 24 24 24 23 24 28 28 27 29 55 61 60 61 62 66 74 63 59 70 85 89 96 98 96 88 85 81 67 40 38 32 26 19 16 17 18 22
30 25 24 24 25 24 24 24 24 23 23 24 30 34 37 48 64 63 65 63 60 62 67 66 69 71 85 96 99 95 91 87 90 76 39 41 30 26 21 17 17 17 18
36 31 26 23 22 20 22 24 25 24 24 23 25 32 40 43 47 54 60 63 58 60 64 66 66 67 85 100 99 94 87 93 88 63 55 38 30 23 20 18 18 19 18
49 47 40 35 33 29 25 22 21 22 25 26 25 25 30 35 37 40 48 57 60 56 56 63 71 78 100 100 97 90 97 93 63 53 48 32 25 20 20 20 20 22 22
55 53 52 52 47 37 32 29 24 23 22 22 24 23 23 27 38 45 46 54 56 62 60 63 82 100 100 99 98 96 94 76 55 42 36 27 22 22 21 21 24 27 31
58 59 62 63 61 60 55 48 42 30 26 26 26 26 25 25 28 46 60 55 55 60 64 71 92 100 99 100 98 96 70 57 50 30 36 42 24 22 23 24 25 28 31
66 68 69 69 66 64 61 59 56 53 46 35 29 28 31 28 30 52 69 71 62 60 66 90 100 100 99 99 90 71 63 45 56 57 33 25 25 23 24 26 25 27 33
71 70 72 68 66 66 66 70 68 62 56 57 49 36 35 32 63 76 84 90 92 86 95 100 100 100 100 88 66 62 72 57 41 35 26 25 23 25 25 24 22 25 32
70 73 75 69 67 69 70 71 66 65 70 67 61 52 51 45 77 96 100 100 100 100 100 100 100 95 81 65 52 37 38 36 44 55 36 30 26 22 20 19 20 24 28
76 81 75 69 70 78 78 79 82 82 80 76 66 64 74 82 96 100 100 100 100 100 100 100 99 86 64 53 47 52 76 80 59 39 34 26 20 17 15 16 17 28 43
85 80 73 72 77 83 81 90 95 93 88 92 99 98 100 100 100 100 99 100 100 100 98 80 69 67 62 66 73 81 82 73 40 33 22 18 15 12 10 16 25 44 57
83 76 70 68 70 82 84 91 94 93 99 100 100 100 100 99 100 99 100 98 94 92 76 68 62 59 59 79 94 83 52 40 35 21 17 13 11 10 13 18 27 40 78
77 72 69 69 68 81 94 90 93 94 96 97 97 98 98 96 92 87 87 79 74 74 79 82 82 95 97 96 95 94 85 34 20 16 12 10 12 13 16 23 37 54 70
72 69 68 70 69 80 92 99 100 97 95 96 95 92 90 91 88 91 87 84 87 92 91 97 100 99 82 57 45 34 25 21 16 12 12 15 14 16 22 33 70 93 91
72 69 65 66 71 75 83 87 96 95 92 89 96 95 95 95 94 95 93 98 99 100 99 90 66 60 47 39 32 24 19 15 13 17 18 18 17 18 30 98 100 98 72
69 71 69 63 68 73 82 81 80 80 78 77 76 84 96 96 100 100 100 99 100 99 97 98 89 44 36 30 22 17 14 16 14 17 17 18 26 56 100 100 96 72 46
69 69 69 60 63 65 66 66 66 68 73 82 98 100 100 99 100 98 98 100 96 93 68 43 39 36 28 24 22 18 14 15 15 15 18 28 47 98 99 89 55 49 94
66 68 63 63 61 60 63 63 70 90 100 100 100 100 100 100 100 99 97 86 65 41 40 39 33 25 23 21 16 13 14 17 19 26 35 45 62 48 35 34 36 43 69
71 69 68 65 64 66 70 90 99 100 100 100 100 99 99 97 98 72 41 38 37 38 39 31 23 20 17 13 12 17 21 25 33 40 39 36 32 34 33 36 44 68 79
82 84 86 82 91 99 100 99 99 100 100 100 100 99 95 68 40 37 35 34 39 39 28 21 19 15 13 15 19 22 26 32 36 32 28 34 38 40 42 50 73 81 83
87 90 91 98 98 100 100 100 100 100 99 98 94 85 39 32 30 30 33 40 40 28 21 18 14 13 17 22 24 29 38 37 32 30 32 34 35 37 47 71 80 82 85
90 91 92 94 99 99 99 100 98 95 97 97 69 39 33 31 31 32 34 42 30 21 18 15 13 16 20 27 30 28 29 31 37 36 38 41 45 51 69 81 80 83 86

GFSMW_850_rhum_066.txt.gz
RH
29 28 27 27 30 27 26 29 35 35 37 43 56 66 66 69 67 65 68 70 74 72 66 65 70 74 69 74 85 86 91 90 88 82 62 38 36 31 28 24 22 22 22
31 30 26 27 29 28 27 26 27 30 34 34 34 37 43 57 64 63 61 66 70 74 69 77 71 72 70 74 87 88 87 91 89 80 55 36 34 33 33 27 26 23 24
32 30 29 27 28 27 26 27 29 29 32 32 32 36 40 50 64 64 62 62 68 69 69 69 79 78 74 72 82 87 91 94 90 80 55 37 37 33 33 31 25 25 27
28 29 31 31 28 24 25 25 27 28 29 31 32 32 32 34 36 45 48 59 63 63 63 62 61 74 79 76 81 87 94 98 91 86 64 54 46 29 29 30 26 22 22
34 31 29 29 28 27 25 23 24 27 25 25 26 29 33 32 33 37 51 52 58 59 59 60 62 67 75 85 84 88 93 96 95 93 71 81 52 36 30 21 24 22 20
46 42 39 34 28 27 28 27 27 26 25 25 26 27 28 32 33 34 46 61 55 61 61 62 63 63 77 88 89 93 96 97 80 92 82 68 63 43 33 26 22 20 20
48 41 33 30 29 28 26 24 26 27 27 26 25 28 29 30 33 37 49 66 63 63 64 60 62 60 61 73 92 97 98 99 97 95 84 72 53 45 29 25 20 20 20
53 51 48 44 36 31 27 26 24 22 25 28 28 30 34 36 41 43 48 51 58 58 64 65 62 66 67 71 95 100 100 100 99 87 80 49 42 30 22 21 23 21 21
59 56 53 52 49 47 45 40 33 25 25 26 24 26 27 27 28 33 48 56 62 58 60 62 66 69 78 96 100 100 99 100 91 80 65 38 42 30 48 58 26 23 24
64 62 60 58 59 59 57 54 53 50 38 34 32 29 27 26 25 24 26 34 47 59 62 69 77 74 98 100 100 100 97 91 77 60 48 38 53 45 44 43 29 25 25
68 70 69 68 67 66 63 59 57 54 48 49 48 43 37 31 29 30 28 31 55 76 76 79 95 99 100 100 100 98 84 74 47 35 37 51 55 35 28 29 28 27 25
73 74 76 73 68 66 64 67 65 63 57 54 50 53 51 40 38 40 46 58 80 99 100 100 100 100 100 100 97 82 73 61 48 62 63 58 56 46 37 30 24 22 23
77 79 76 71 69 66 72 71 72 68 63 66 69 66 63 48 46 57 87 100 100 100 99 100 100 100 100 98 86 87 84 81 76 48 49 71 82 71 41 22 19 18 16
81 78 75 69 68 68 76 76 78 81 81 76 75 78 81 76 65 97 99 100 100 99 99 100 100 100 97 94 81 62 58 53 63 90 93 90 44 28 20 17 16 14 15
80 78 73 68 68 70 80 84 84 86 88 88 91 99 100 100 100 98 99 100 100 100 100 100 98 92 88 73 62 64 84 97 97 93 92 85 31 16 13 10 12 16 19
81 76 73 70 70 78 92 90 86 90 99 99 99 100 99 100 100 99 100 100 100 100 98 96 95 91 80 81 88 97 97 98 96 98 58 18 15 12 11 12 20 22 26
78 74 71 71 70 77 94 94 91 92 95 99 99 100 100 100 99 100 100 99 98 94 90 73 68 74 86 98 99 100 100 87 31 21 18 14 13 13 14 17 19 31 52
77 72 71 70 71 74 85 95 99 94 95 98 98 99 100 97 96 94 95 80 78 72 72 81 94 100 99 100 98 70 34 25 21 17 16 15 14 14 18 24 63 71 60
74 70 68 68 71 75 81 84 89 98 99 99 99 100 98 93 96 91 84 86 78 95 100 100 99 99 98 54 33 28 26 20 18 18 16 14 15 18 37 95 97 78 45
71 70 72 66 67 72 73 73 77 91 98 99 100 100 100 96 95 91 96 100 100 99 100 100 96 40 37 33 30 21 19 20 15 15 18 22 24 32 97 98 82 57 38
69 71 71 63 66 64 64 68 72 73 77 83 94 100 100 100 100 100 100 99 100 99 80 36 39 37 34 31 24 18 14 12 15 19 22 24 25 28 36 49 54 47 89
69 70 66 62 62 62 63 67 71 85 94 99 98 99 100 100 100 99 100 92 47 36 39 41 36 30 26 23 18 14 14 21 22 20 20 21 25 33 36 35 37 56 68
71 70 66 64 62 65 68 80 98 99 98 100 100 100 100 100 100 90 36 34 38 39 39 33 26 22 18 15 14 17 22 20 18 22 26 31 33 34 34 39 49 69 80
76 77 74 72 70 70 95 100 98 98 99 100 100 100 99 67 34 32 34 36 40 39 30 23 20 17 15 17 20 22 21 24 26 25 29 33 37 41 44 50 72 82 83
84 86 88 98 98 98 99 99 99 100 100 100 100 86 41 30 28 29 34 40 38 28 22 19 16 15 18 20 20 24 27 29 32 33 33 34 35 37 44 70 80 82 85
86 89 90 95 98 99 99 99 99 100 100 95 57 32 28 27 28 31 35 41 31 22 19 16 14 16 18 19 21 26 30 34 36 37 38 36 40 47 66 82 81 84 87

GFSMW_850_rhum_069.txt.gz
RH
28 26 24 26 25 27 28 29 31 43 58 69 69 61 62 60 58 63 64 63 69 72 63 54 47 68 79 78 79 86 89 92 93 91 87 79 52 37 35 31 28 24 23
32 29 30 31 32 30 30 29 28 29 36 37 38 46 52 54 54 58 60 61 63 69 69 66 58 56 71 75 75 81 88 89 95 91 87 66 55 44 37 33 31 28 26
31 29 29 30 30 29 29 30 28 28 30 32 35 38 50 45 46 47 53 56 63 62 69 67 72 68 69 71 71 74 86 88 90 92 83 59 54 44 42 37 35 31 28
29 30 28 28 27 26 26 27 27 27 29 30 33 37 37 40 34 34 35 47 55 61 63 66 66 75 79 76 74 77 80 89 93 93 93 83 70 44 46 50 35 32 30
47 42 36 33 32 30 30 28 26 26 27 29 30 32 37 36 35 34 32 33 43 57 64 64 63 62 70 74 79 82 83 88 95 96 94 89 84 83 77 41 36 34 31
53 50 47 44 40 35 32 30 28 28 28 28 27 27 28 29 35 39 40 38 40 53 57 65 65 63 64 64 70 82 89 90 94 97 99 96 88 80 83 44 28 28 32
57 53 46 39 36 32 32 32 31 30 29 28 27 27 26 30 35 40 46 46 48 45 52 58 63 63 62 63 68 81 93 93 97 99 97 97 97 86 70 62 68 24 23
57 54 51 49 47 44 40 35 31 30 28 29 30 30 30 32 34 36 40 46 54 57 64 71 68 68 67 65 65 83 100 99 100 100 100 98 90 72 65 50 23 26 26
62 59 55 52 50 48 46 44 41 38 35 29 26 26 29 30 29 30 39 48 55 63 65 68 65 68 70 71 72 90 100 100 100 100 100 99 87 52 64 52 69 51 61
66 66 63 62 62 60 59 58 56 51 48 45 40 35 30 27 26 25 26 31 40 53 70 77 81 86 95 98 100 100 100 100 100 100 94 59 54 58 55 51 49 40 32
69 73 70 70 67 66 64 61 61 55 49 46 44 45 45 43 35 29 27 28 33 43 63 85 98 100 100 100 100 100 100 100 97 81 57 55 57 53 63 56 50 63 78
74 77 75 72 68 67 63 66 68 68 62 55 53 55 52 52 51 39 35 37 44 52 70 98 100 100 100 100 100 100 98 94 82 62 53 59 66 86 96 93 99 84 38
76 78 75 70 68 68 66 75 74 76 72 70 70 70 69 64 66 60 55 55 67 95 98 99 100 100 100 100 100 98 92 74 57 56 66 90 93 96 99 95 90 78 23
79 77 73 69 69 67 73 80 82 82 80 78 78 79 78 87 92 94 94 99 100 100 100 100 100 100 100 100 98 86 72 76 85 83 84 98 100 100 98 70 28 19 15
81 76 71 69 69 68 82 84 87 89 92 92 99 98 98 98 98 98 100 100 99 99 100 100 100 100 98 92 86 86 87 68 64 87 100 100 98 42 19 15 14 15 16
78 74 71 69 70 69 84 82 86 90 94 95 98 99 100 100 100 100 99 100 100 99 100 100 99 91 92 92 68 66 73 98 100 100 99 74 24 18 17 20 22 19 17
76 74 72 70 71 70 85 87 92 91 96 99 100 100 100 100 100 100 99 99 99 100 100 98 94 91 90 95 99 99 100 99 94 42 21 19 21 20 18 18 16 22 40
76 73 72 70 72 75 82 92 96 88 92 96 97 99 100 100 100 99 94 96 98 99 97 90 87 90 100 100 100 100 90 38 23 21 22 23 17 16 16 24 46 42 43
75 71 70 69 74 77 77 84 95 97 98 94 97 98 98 100 100 96 97 90 79 80 93 98 99 100 99 95 58 31 26 24 23 20 17 15 14 18 27 72 66 44 32
72 70 72 68 69 74 73 72 78 84 91 95 95 98 98 95 86 81 90 77 92 99 99 99 99 98 78 32 24 21 22 19 16 16 14 15 21 24 68 81 52 42 36
71 71 71 66 68 67 67 68 71 72 77 86 93 98 95 93 93 97 100 100 99 99 98 79 41 34 29 24 20 20 15 14 15 16 19 22 23 27 30 35 34 36 70
70 70 68 64 64 64 66 71 82 88 94 98 99 98 99 100 100 99 99 99 84 48 38 37 32 31 30 27 20 16 16 20 19 22 23 25 26 26 28 29 32 36 49
73 68 65 64 63 63 76 85 94 99 95 98 98 99 100 100 100 90 42 38 39 40 36 32 27 22 18 16 17 21 21 18 21 24 25 26 28 29 31 36 44 65 78
74 74 70 67 66 80 94 92 89 98 100 99 98 99 99 85 40 35 38 40 41 35 27 22 19 16 16 19 21 18 19 19 22 24 28 30 33 36 38 48 74 82 83
81 81 83 76 80 97 97 92 96 98 98 99 98 92 42 32 32 35 39 40 33 25 21 18 16 17 18 18 17 19 23 27 29 28 32 34 34 38 47 72 81 82 85
86 86 90 88 92 95 96 98 98 99 98 97 82 36 31 30 32 34 39 38 27 21 19 16 15 16 17 17 19 23 27 30 33 37 37 38 43 52 73 80 80 84 88

GFSMW_850_rhum_072.txt.gz
RH
31 33 31 30 28 29 30 31 32 36 54 55 66 68 59 53 61 58 63 64 63 74 75 68 56 54 66 80 67 66 70 76 87 94 90 86 82 75 45 36 35 32 28
32 33 30 28 28 27 27 26 28 28 33 36 46 63 61 55 51 59 61 60 61 68 70 71 65 57 57 95 85 80 73 83 88 92 77 69 73 77 67 47 37 34 32
35 33 33 34 30 31 31 30 28 27 28 32 40 48 60 58 51 51 49 52 57 57 63 61 71 73 62 62 75 76 75 77 83 92 81 73 68 60 61 55 44 37 34
34 28 26 27 28 29 30 29 28 30 29 28 64 78 46 39 38 41 43 41 46 56 59 62 59 63 69 62 57 65 72 80 78 91 90 86 66 54 51 48 43 40 39
52 54 37 34 30 28 26 27 28 28 29 29 38 85 90 43 33 40 40 38 37 40 57 56 57 60 63 64 72 68 75 76 81 79 89 90 89 84 66 57 62 56 59
61 61 50 46 41 35 32 30 30 30 30 30 30 35 87 86 70 38 38 37 36 35 41 50 59 61 66 66 70 75 82 83 87 82 89 92 90 90 87 68 69 54 44
64 66 65 53 47 42 37 34 32 31 30 29 29 30 35 82 93 67 38 37 36 36 42 49 61 65 62 66 70 75 89 90 92 90 89 94 95 96 95 90 80 64 39
67 69 57 54 52 50 48 44 38 32 31 32 31 31 30 30 33 43 34 32 33 36 44 52 61 70 81 73 72 73 88 97 100 99 96 98 97 99 97 81 57 80 83
70 67 60 57 56 55 55 53 51 48 45 40 33 30 30 31 32 31 32 38 48 46 61 74 80 92 98 97 94 90 95 100 100 100 100 99 98 99 93 95 77 38 47
72 70 62 59 58 59 59 59 57 55 53 49 47 44 39 34 30 31 33 34 42 51 60 80 89 94 97 100 100 100 100 100 100 100 100 100 99 98 96 81 73 75 76
67 70 66 64 64 63 64 63 59 58 56 54 51 48 48 50 46 39 34 32 34 42 53 70 87 99 100 100 99 100 100 100 100 100 98 92 78 77 69 72 76 76 72
58 73 71 70 66 67 65 66 68 69 69 64 61 58 57 57 56 56 53 44 46 54 60 67 83 99 99 99 100 100 100 100 100 100 98 91 82 73 76 71 90 99 100
70 75 72 69 68 68 69 77 76 77 77 75 73 72 71 70 66 65 68 64 65 63 60 73 96 98 99 99 100 100 100 100 100 93 76 70 68 73 86 98 100 100 99
79 73 74 72 72 72 78 79 82 85 88 83 93 93 94 93 98 98 99 99 97 96 98 98 98 97 100 100 100 100 100 96 82 76 65 72 90 98 100 99 87 34 22
75 70 75 74 74 79 82 79 83 88 92 94 98 98 99 99 99 99 98 99 99 100 100 100 100 100 100 100 97 87 84 82 74 82 88 94 100 98 99 77 20 17 21
74 66 71 72 72 79 84 82 87 92 92 91 96 100 100 100 100 100 100 100 100 99 100 100 100 100 94 93 89 84 91 87 80 95 100 100 98 35 16 17 19 19 32
66 68 72 73 73 80 88 87 87 91 94 96 99 99 99 99 99 100 100 99 99 100 99 99 99 98 100 100 100 98 100 99 100 98 69 21 18 18 19 17 19 25 42
65 72 72 71 73 79 82 86 88 82 89 95 96 99 99 99 99 99 99 99 100 98 99 99 99 99 100 98 99 100 98 76 36 22 20 19 16 15 18 23 38 41 63
72 71 71 71 74 77 77 83 87 88 88 92 95 96 100 98 96 100 100 99 99 96 96 96 98 96 97 99 96 62 30 24 21 17 15 16 18 21 25 92 65 47 32
72 70 71 70 74 75 71 74 81 85 93 93 94 95 97 94 90 84 80 88 95 96 99 97 99 99 81 39 26 21 17 16 15 16 19 21 22 27 42 29 31 29 29
70 70 71 68 69 69 69 71 76 78 89 92 92 91 87 87 86 87 95 100 100 100 100 97 71 38 29 21 16 14 16 17 18 20 22 22 21 22 23 26 31 32 32
71 72 70 68 68 66 70 76 83 90 93 95 93 93 97 98 99 100 100 100 99 72 41 34 28 25 23 19 16 15 17 17 19 21 22 24 23 22 24 26 28 32 42
72 71 68 66 65 68 79 92 96 98 99 99 100 99 99 100 100 97 74 41 39 36 30 25 22 19 17 17 20 23 21 20 20 23 24 23 24 25 26 28 33 50 71
74 70 69 66 66 83 99 96 97 99 97 92 95 98 99 94 50 35 37 39 37 30 24 21 19 17 18 20 22 18 18 18 24 24 27 28 29 28 31 38 61 76 80
77 78 72 67 78 96 99 96 96 98 95 95 99 98 70 37 33 35 39 38 29 22 20 18 16 17 18 18 15 16 22 27 27 29 31 33 33 37 49 72 80 83 85
80 82 78 72 95 96 94 95 96 97 92 90 86 40 29 30 33 37 38 33 24 21 18 16 15 16 16 14 16 21 26 28 30 34 36 37 42 55 76 82 83 85 87

GFSMW_850_rhum_075.txt.gz
RH
21 22 24 28 34 39 41 43 59 80 94 91 68 70 69 73 94 90 90 85 92 92 85 74 78 76 75 81 88 89 87 78 83 79 71 76 82 80 78 72 42 38 36
24 24 26 29 33 36 36 38 39 43 64 80 69 57 57 60 60 68 67 64 67 84 82 75 77 81 81 89 94 92 88 81 75 74 74 75 73 81 80 76 59 45 41
21 22 27 30 36 38 37 37 37 36 39 61 78 61 85 80 55 56 52 48 66 69 74 74 79 86 86 81 87 89 88 86 77 76 78 78 74 64 64 72 68 55 49
30 32 32 31 34 41 40 40 40 34 31 33 61 78 88 75 48 50 51 51 51 62 73 78 76 86 91 84 77 82 83 86 85 79 79 76 68 66 60 62 61 57 50
32 35 43 41 35 30 30 30 30 31 30 32 37 58 70 82 78 79 87 67 46 49 68 92 64 78 85 93 86 87 94 81 89 78 75 80 81 71 62 58 59 54 49
50 60 66 60 44 34 32 30 29 30 31 31 32 40 63 73 85 84 78 86 86 64 46 52 63 68 77 93 96 98 97 88 85 92 87 80 80 84 85 84 68 68 66
54 58 60 64 58 45 41 38 36 40 33 32 32 31 34 62 83 88 93 91 93 90 66 44 50 53 80 89 99 100 100 95 92 90 93 93 88 88 87 88 83 74 68
58 60 66 70 61 50 47 45 42 40 37 35 34 33 32 32 41 68 84 92 94 68 66 72 73 80 96 100 99 100 100 100 100 99 100 100 98 97 94 93 93 81 76
61 63 66 69 63 55 52 51 50 49 48 44 39 37 37 38 36 42 68 62 82 99 100 99 97 96 100 100 99 99 98 99 100 100 100 99 100 100 99 96 91 86 90
62 65 65 71 64 60 58 58 56 54 52 51 50 48 47 45 43 40 38 60 68 64 76 100 100 100 99 99 100 100 100 100 100 100 100 100 100 100 100 100 99 95 92
60 66 68 68 63 62 61 60 59 59 58 55 56 57 56 55 55 56 58 59 52 44 46 66 99 99 98 97 97 100 100 100 100 100 100 100 98 100 98 94 97 97 90
56 71 71 67 66 63 62 61 68 71 73 70 68 65 64 61 61 60 62 61 60 55 57 78 93 98 100 99 99 99 100 100 100 100 100 100 100 100 97 94 90 82 83
59 71 69 70 65 64 65 71 76 79 86 78 78 80 80 83 79 77 76 80 91 93 94 96 94 95 99 100 98 99 100 100 100 100 100 100 96 87 78 76 90 99 100
54 66 66 71 66 67 72 78 80 82 85 86 96 100 99 99 100 99 99 98 99 99 100 99 99 100 99 99 100 100 100 100 100 99 88 74 72 78 94 99 99 97 87
57 67 70 75 70 78 78 80 81 86 89 90 95 98 98 98 99 99 99 100 100 98 100 99 99 99 98 99 100 100 99 97 84 77 79 89 100 99 100 98 84 36 18
62 65 70 74 79 86 83 82 85 88 85 84 90 95 99 100 100 100 100 100 99 100 100 99 99 99 98 93 91 92 92 95 98 99 100 99 100 100 76 17 15 14 15
68 63 69 74 76 82 86 87 85 87 85 97 96 99 99 100 100 98 95 96 96 98 99 97 95 96 96 98 99 99 99 99 100 99 99 96 38 22 16 14 14 16 22
63 64 69 74 74 81 86 87 86 84 87 92 97 99 100 99 95 96 96 96 98 98 97 96 97 93 92 92 91 97 98 98 81 43 23 19 16 15 14 16 25 42 48
61 65 71 72 72 79 88 85 88 85 89 84 92 96 97 95 93 96 96 97 96 95 97 96 94 91 92 99 98 63 27 24 21 17 15 14 17 18 17 17 32 41 58
72 71 71 72 75 78 89 87 87 88 87 83 92 95 94 94 93 89 90 92 92 90 94 96 99 99 76 41 30 24 18 14 16 17 19 19 17 16 18 20 21 22 31
72 70 72 72 72 71 71 76 74 83 90 92 91 90 87 82 83 91 93 93 93 95 97 93 60 42 25 19 15 13 14 18 18 21 23 19 16 17 19 21 23 25 27
71 71 72 71 70 69 68 69 76 84 92 92 86 87 85 92 97 99 99 100 99 84 52 34 26 23 19 14 14 14 15 14 15 16 16 18 20 22 23 25 27 30 34
77 73 71 70 69 66 71 78 85 93 96 91 94 99 99 100 100 100 98 66 41 35 28 24 21 18 16 17 17 16 14 12 15 19 23 24 24 25 26 27 31 40 63
83 82 85 79 68 70 85 94 97 99 98 99 100 100 100 95 77 50 43 40 38 31 23 20 19 16 16 17 19 18 24 25 32 27 26 26 27 28 28 34 48 68 73
84 85 85 74 68 84 96 98 99 100 100 100 100 99 83 45 36 37 43 38 27 22 20 18 16 16 18 17 14 14 17 21 25 26 29 34 36 40 47 57 73 75 76
81 87 85 85 73 95 97 97 99 98 96 99 96 80 41 32 32 35 35 29 23 20 18 16 15 15 15 12 10 12 17 22 26 30 34 37 38 45 61 77 78 78 80

GFSMW_850_rhum_078.txt.gz
RH
21 21 26 31 38 43 55 85 90 83 78 71 73 82 88 92 99 88 90 84 78 68 67 63 65 62 61 57 61 66 80 89 84 81 74 66 68 73 77 76 74 64 43
22 20 21 23 27 34 38 45 64 81 90 81 70 75 64 71 78 83 83 90 84 79 72 68 68 72 73 75 71 71 75 81 85 81 80 70 67 70 77 79 79 74 62
23 24 23 24 26 31 36 38 40 42 54 75 83 75 73 63 58 63 73 73 74 79 86 79 76 80 82 80 79 77 77 75 79 80 76 73 74 66 66 70 79 74 67
24 25 28 30 31 32 35 36 37 37 39 43 57 68 67 60 44 37 40 46 67 78 73 73 81 81 91 92 88 87 86 90 85 83 78 73 73 73 66 65 63 67 64
28 28 30 31 30 33 36 37 37 39 38 40 40 56 79 79 66 70 64 48 53 65 70 74 93 97 98 99 99 97 96 95 92 85 77 77 78 76 64 61 60 61 62
34 35 37 34 34 33 33 32 34 37 38 38 38 37 48 62 74 83 89 92 93 86 73 72 80 86 92 96 100 100 100 99 98 100 96 87 83 82 78 61 61 62 63
53 56 58 64 56 48 44 40 42 38 34 33 33 35 37 44 62 74 84 90 84 91 88 92 93 97 99 100 99 99 99 99 100 100 99 99 96 94 90 86 80 75 68
56 60 65 69 61 53 49 44 43 41 39 36 34 33 34 35 36 52 74 88 94 96 100 100 98 98 94 98 98 98 98 99 100 100 100 100 98 98 99 96 91 84 73
59 64 68 68 60 56 54 52 51 50 47 45 43 40 40 40 40 37 43 70 89 99 99 98 97 99 96 97 99 97 96 98 99 99 100 100 100 100 100 100 99 91 91
63 65 69 65 59 57 57 56 55 54 53 50 50 50 50 50 48 44 42 47 58 64 62 95 99 99 99 97 98 98 100 99 100 98 100 98 100 100 100 100 100 99 99
63 64 68 64 62 61 60 59 57 57 56 56 54 54 54 55 56 58 62 57 56 56 59 52 64 99 99 97 97 99 98 99 100 100 100 100 100 100 100 100 100 99 99
63 68 68 66 64 63 61 60 60 64 65 65 66 66 66 66 67 71 72 70 74 68 65 68 81 100 100 98 99 97 99 95 99 100 100 100 100 100 100 100 98 91 88
60 70 68 68 66 64 63 63 67 72 72 77 77 77 80 81 82 83 88 95 97 96 95 98 95 96 98 98 99 99 98 98 96 98 100 100 100 100 97 92 86 96 96
54 68 68 69 67 65 65 67 71 77 77 84 88 99 99 99 99 99 99 99 98 98 97 100 99 100 99 98 97 98 100 98 99 99 99 98 91 81 85 98 99 100 94
49 66 66 69 70 69 68 71 76 80 84 87 90 96 98 98 97 96 97 97 96 97 97 96 97 95 96 96 97 100 98 99 98 95 86 84 94 99 100 98 98 80 28
48 66 68 72 71 73 75 78 78 85 85 82 86 91 94 90 89 89 91 92 91 88 86 89 88 86 88 85 86 92 91 90 90 93 95 100 99 100 96 41 28 19 19
54 66 64 66 70 73 77 83 82 85 85 82 83 92 96 98 97 93 91 91 88 89 88 91 93 91 94 97 98 98 97 97 99 100 100 98 91 74 45 20 16 23 27
66 66 64 69 72 75 83 85 84 83 82 86 96 99 100 95 87 83 88 92 98 95 94 95 95 90 94 96 96 98 99 97 81 47 22 21 17 15 15 18 22 27 31
62 62 66 71 72 76 81 85 87 86 82 90 96 100 98 92 89 85 85 92 93 96 96 95 93 93 96 97 90 55 32 31 24 17 15 15 16 15 13 12 15 20 30
61 64 68 71 73 80 84 90 89 88 87 84 90 96 94 92 95 93 90 91 92 90 93 91 93 93 79 55 31 18 15 14 15 15 16 16 14 12 13 16 18 19 23
72 72 71 72 74 79 83 90 87 83 87 85 91 95 97 94 91 90 88 89 89 91 90 74 60 36 20 16 13 13 15 15 15 14 14 14 16 18 19 20 20 22 23
74 72 71 72 74 74 73 74 78 86 86 85 91 90 83 87 91 89 93 93 94 93 68 34 24 21 16 14 14 14 14 12 12 14 17 21 22 22 22 22 23 24 27
74 72 72 73 72 72 70 72 76 88 89 88 84 83 93 98 99 98 98 86 49 34 26 22 19 16 16 17 16 15 12 13 14 18 19 22 23 24 25 24 26 33 51
78 77 75 74 71 70 70 76 81 89 92 87 92 98 98 99 99 86 47 38 35 28 22 19 17 16 17 17 16 13 12 12 15 19 22 24 27 28 28 34 41 59 71
78 78 79 76 72 68 76 88 94 94 92 97 98 98 99 90 57 41 42 37 30 23 19 17 16 16 16 16 12 11 13 16 19 23 25 28 30 31 36 44 63 71 72
78 78 80 76 71 72 93 96 97 97 100 100 100 98 75 44 35 36 35 32 24 20 18 16 15 14 14 12 10 10 14 18 22 25 28 30 31 32 42 61 72 72 74

GFSMW_850_rhum_081.txt.gz
RH
27 30 27 29 50 69 84 81 77 74 71 76 87 90 91 90 92 85 77 70 66 69 69 67 66 63 53 50 51 54 62 67 85 91 85 74 70 66 66 68 73 73 71
26 26 29 28 40 46 61 76 87 81 80 72 68 74 78 85 88 79 75 72 72 73 71 67 67 71 69 64 64 66 66 69 81 87 84 80 72 67 62 64 71 75 75
24 23 23 31 32 35 37 43 55 77 84 70 71 72 80 82 81 80 77 76 75 70 75 65 69 70 77 75 72 74 76 75 79 84 82 78 72 63 57 57 63 72 77
28 27 24 25 27 27 38 40 41 42 43 55 61 80 74 71 64 63 62 64 68 69 70 84 86 82 86 88 84 83 84 85 84 88 89 85 69 68 69 63 62 68 75
29 29 28 30 30 31 32 35 37 38 39 40 41 44 58 68 70 65 57 51 54 67 75 79 86 91 95 99 99 97 95 93 94 92 91 89 88 82 78 71 66 66 66
31 30 30 29 30 31 33 32 34 36 37 37 40 41 44 56 71 77 79 78 81 78 73 70 76 77 98 98 100 100 98 95 96 96 97 96 94 90 86 82 80 69 65
35 36 35 35 34 32 31 31 31 32 35 40 40 42 42 44 51 67 84 96 90 94 90 80 89 97 98 100 100 98 100 98 99 99 92 96 96 98 96 95 90 79 70
47 46 46 42 42 40 38 37 37 37 36 35 35 36 38 39 40 44 54 77 88 92 88 96 97 98 98 98 98 93 90 89 90 97 99 97 98 100 100 100 100 95 90
58 59 64 61 55 53 51 49 46 45 42 39 38 37 36 36 36 35 36 39 64 84 83 84 88 99 97 97 97 96 97 88 88 93 95 99 99 100 100 100 100 100 99
63 66 68 67 63 60 58 57 56 53 51 50 48 47 45 43 40 40 39 38 39 51 73 87 92 98 97 96 98 96 95 94 88 92 85 99 100 100 100 100 100 100 100
64 67 70 66 62 62 61 59 58 55 54 54 52 52 52 52 52 53 53 50 48 47 52 60 57 56 90 99 98 98 98 95 92 95 100 100 100 100 100 99 100 99 100
65 67 68 65 65 64 62 61 60 58 60 61 60 60 59 61 60 64 66 70 65 62 63 65 65 61 68 93 98 97 98 100 98 93 90 91 96 97 100 100 100 100 99
67 68 68 66 65 65 63 62 62 62 65 69 72 72 70 71 72 76 79 86 86 81 79 84 95 98 100 100 97 96 97 97 97 97 94 98 100 100 100 99 95 89 93
66 69 68 68 68 66 65 65 64 66 70 75 80 84 95 98 99 99 99 99 99 99 98 99 100 99 98 97 98 99 99 98 98 99 100 100 99 98 92 88 96 99 100
57 67 67 67 70 69 67 68 69 72 78 82 86 94 98 98 98 98 98 98 98 98 98 97 97 96 94 94 92 92 97 100 100 99 97 92 88 91 97 100 99 99 90
49 65 67 67 70 70 69 70 72 79 82 82 85 89 90 91 89 88 87 89 90 89 88 87 87 86 86 84 88 90 88 88 87 87 90 95 97 98 99 99 88 73 48
48 61 65 67 71 71 70 71 75 82 82 81 83 87 89 92 90 88 85 87 88 86 85 88 91 87 89 95 95 94 91 94 95 94 98 97 95 63 26 19 17 20 27
49 60 65 66 70 73 73 77 82 82 81 81 88 95 96 95 88 86 88 86 86 88 87 90 91 89 88 88 92 96 96 92 72 49 27 22 18 16 16 18 23 29 36
61 64 66 66 73 75 78 78 82 83 81 87 94 98 96 91 90 84 86 94 95 98 96 92 89 86 89 90 68 42 35 34 22 15 14 15 16 15 14 15 18 22 26
64 62 63 68 72 75 79 79 82 85 84 79 90 95 96 94 94 89 87 91 95 94 92 90 91 89 77 56 28 15 14 14 14 14 15 14 14 16 17 16 17 18 19
62 63 66 70 73 78 81 81 80 81 85 78 81 87 93 97 95 91 89 89 89 88 89 84 61 31 18 14 13 13 13 13 12 11 12 14 16 19 19 19 20 21 23
71 72 72 71 75 80 80 80 80 83 85 75 88 91 98 95 91 88 88 89 87 79 67 45 24 18 15 13 13 13 12 10 10 12 15 17 19 20 21 23 25 27 27
74 74 72 72 74 77 78 77 77 80 80 83 93 93 87 89 89 90 89 90 84 52 27 21 18 15 14 14 13 12 9 10 11 15 17 20 23 25 26 27 27 30 41
76 75 73 73 74 74 73 73 73 79 88 89 87 84 91 97 98 99 90 55 33 27 21 17 15 14 14 15 14 10 9 10 13 16 20 22 24 26 24 29 35 46 64
79 76 76 74 74 73 71 70 76 85 91 87 86 97 98 98 99 77 41 35 31 24 19 17 15 14 15 15 11 8 9 13 18 21 22 26 28 27 30 38 47 66 72
80 78 78 80 78 72 69 80 89 93 90 90 98 98 99 98 74 40 36 36 34 23 19 16 14 14 14 14 9 9 12 15 20 22 25 28 29 28 30 41 60 70 71

GFSMW_850_rhum_084.txt.gz
RH
30 31 40 42 49 50 71 72 79 75 86 81 80 82 86 86 87 86 81 73 67 67 67 68 69 66 61 55 54 57 62 68 80 90 93 92 88 82 78 70 64 63 65
31 30 29 36 43 35 50 78 79 77 75 82 82 82 86 87 83 80 76 85 78 72 72 71 69 69 68 68 64 60 63 65 75 86 90 94 85 78 72 69 67 64 65
28 28 27 31 36 51 38 56 74 79 79 75 77 81 86 88 86 84 80 69 63 69 71 70 73 73 77 75 74 71 68 70 75 77 87 86 82 68 60 58 61 64 65
28 26 25 24 29 43 54 53 49 52 78 81 76 73 71 76 77 79 72 72 73 73 75 71 68 69 83 90 86 85 83 78 78 82 84 88 87 77 72 68 66 64 65
28 28 27 28 32 40 47 54 59 59 52 63 65 72 81 86 83 82 80 78 80 88 87 75 75 78 86 91 95 97 95 91 88 87 87 88 92 92 90 85 81 80 74
29 31 30 30 34 38 41 44 43 42 42 42 42 43 44 54 65 68 66 61 64 68 72 77 82 74 89 93 94 96 96 94 98 99 96 96 96 93 93 94 92 90 88
31 32 32 31 32 33 36 38 38 38 38 38 40 40 41 42 44 48 55 55 57 66 80 84 83 82 80 85 90 90 97 93 99 89 88 87 97 97 100 100 100 100 98
38 36 34 34 35 33 32 32 33 34 35 35 36 41 42 42 43 45 48 56 65 69 76 78 90 82 83 93 96 97 92 88 90 90 88 92 96 99 100 100 100 100 100
50 45 46 43 40 38 37 34 34 34 34 34 36 36 39 41 42 42 42 42 44 57 85 93 94 85 79 85 92 97 97 98 92 85 85 81 87 99 100 98 100 100 100
58 56 58 55 52 50 48 48 46 45 44 43 42 41 38 36 36 38 40 41 42 42 47 73 91 85 78 93 98 99 91 96 96 96 90 89 89 87 87 99 100 100 100
63 64 65 62 57 55 56 54 53 52 50 49 48 48 48 48 48 49 48 47 48 50 52 60 76 91 92 91 94 91 97 98 96 96 95 90 99 99 100 100 100 100 100
64 66 67 65 60 60 60 58 57 56 55 54 54 54 54 54 55 57 60 63 65 66 65 63 63 65 63 62 78 96 98 99 98 97 94 91 91 94 93 93 95 98 98
68 69 69 66 63 63 63 62 61 61 61 61 62 64 66 66 65 71 78 82 82 83 82 82 81 80 78 96 94 98 98 97 97 98 97 93 91 91 90 95 99 98 95
68 68 69 67 66 66 66 64 64 65 68 70 75 76 76 78 85 93 100 100 100 100 100 99 99 99 99 99 98 99 97 98 99 98 97 92 94 90 95 98 93 92 96
69 68 70 68 68 69 67 66 68 69 72 78 81 85 94 98 98 99 98 98 99 98 98 98 98 98 97 96 98 98 98 98 98 88 89 92 96 92 91 93 94 96 95
61 62 66 66 66 69 68 67 69 71 77 81 84 88 89 92 91 90 90 92 92 91 91 90 89 88 90 92 92 97 96 91 87 86 88 90 93 95 96 97 95 78 49
44 49 56 63 66 68 69 68 71 76 79 82 84 82 87 92 92 88 86 90 89 86 86 85 84 86 85 86 87 86 85 86 90 92 93 90 89 81 56 24 13 13 16
42 46 56 66 69 71 72 72 74 77 79 81 83 84 93 95 89 91 90 88 85 86 84 86 87 86 83 85 89 88 87 86 74 52 36 31 23 16 13 14 15 17 22
52 49 57 66 69 70 73 75 80 82 80 81 84 91 94 92 88 86 87 86 89 88 92 89 86 84 85 89 68 46 38 33 21 13 13 13 13 13 10 11 12 14 17
60 61 67 68 68 73 77 78 81 85 83 81 86 96 96 93 90 88 83 87 95 94 93 88 88 88 64 49 24 15 14 13 12 12 12 10 10 12 14 13 15 17 19
66 66 65 64 69 74 76 78 81 83 84 79 81 91 94 93 93 90 86 94 95 91 89 85 78 50 22 14 13 13 13 11 9 9 10 12 13 16 19 20 21 22 23
65 64 65 68 73 77 80 82 80 81 86 80 76 85 92 95 93 91 93 92 90 86 81 63 27 17 14 13 12 12 11 8 8 9 12 13 16 19 21 23 24 25 24
80 74 73 74 75 78 82 82 82 80 84 82 75 84 95 97 94 90 89 89 87 76 49 26 19 16 14 13 13 11 8 8 9 12 14 16 19 22 24 25 25 25 30
74 75 74 73 74 76 80 84 83 78 81 84 86 92 92 92 92 92 90 87 78 41 24 20 16 14 14 14 13 10 9 9 11 14 17 19 22 23 24 26 30 35 44
78 76 76 74 74 75 76 76 76 77 83 90 91 90 90 93 91 92 90 72 35 28 22 18 16 14 14 15 12 8 8 10 13 18 20 22 23 25 25 27 35 43 60
78 78 77 75 75 75 75 74 74 77 84 89 89 87 96 97 100 92 66 36 35 28 21 18 16 15 14 14 10 8 9 12 16 18 20 21 23 25 26 27 37 50 66

GFSMW_850_rhum_087.txt.gz
RH
33 51 54 60 62 59 69 84 84 79 73 81 84 87 83 80 79 78 77 76 70 65 62 64 67 68 64 61 59 58 61 64 74 84 83 86 89 89 86 85 79 74 68
32 32 36 57 47 56 52 70 74 81 75 81 82 83 82 80 75 73 74 78 75 69 67 66 68 70 71 69 70 69 66 67 73 78 82 87 81 73 73 74 73 73 73
30 30 32 30 35 50 55 62 69 71 82 83 87 86 85 84 82 79 76 76 72 64 67 71 75 77 77 75 76 80 79 74 72 73 82 87 87 76 70 65 66 66 64
34 29 28 28 28 36 53 66 73 72 74 76 83 87 85 85 81 78 70 62 66 71 75 78 76 71 82 87 86 91 91 90 84 79 79 82 86 86 85 78 78 78 79
34 32 30 27 26 27 37 50 64 59 76 79 78 79 80 78 84 80 85 84 79 78 75 72 77 79 85 86 91 94 97 98 91 87 86 86 88 91 94 95 83 74 80
33 35 31 28 26 25 27 41 61 77 72 62 65 65 73 77 77 76 78 83 83 81 81 78 74 72 77 85 88 97 99 96 93 96 94 92 95 93 94 95 95 96 94
35 35 34 31 30 36 41 54 65 70 75 76 62 54 52 50 51 59 70 74 75 74 72 72 73 78 78 78 77 91 92 93 97 95 100 97 92 96 100 100 96 99 99
33 35 35 32 32 32 39 42 45 46 44 43 42 42 41 40 40 42 44 45 46 46 48 51 63 84 76 82 82 76 79 92 88 94 100 100 99 88 90 99 100 99 99
34 37 36 35 33 33 32 34 35 36 37 37 37 38 38 38 40 42 44 45 45 45 44 47 62 84 91 94 87 90 75 89 91 86 91 91 84 78 82 84 84 100 100
51 46 42 40 38 36 35 34 34 34 35 35 36 37 36 35 36 37 40 40 40 40 40 41 50 82 79 88 88 90 75 91 92 87 88 90 88 87 98 94 85 98 100
59 57 56 54 50 48 47 45 44 44 44 45 45 45 46 46 46 45 42 41 41 42 44 46 53 77 95 90 90 93 87 86 96 83 94 92 90 87 90 93 99 99 100
60 60 61 61 60 59 58 58 56 55 53 52 51 50 50 51 51 52 53 56 58 60 58 58 60 66 83 96 99 96 98 99 86 97 95 92 91 89 85 85 84 82 81
72 71 69 65 62 61 61 60 59 58 57 56 56 57 57 58 60 62 64 69 76 79 80 80 79 79 80 79 78 82 96 89 97 98 96 96 95 92 86 86 82 85 88
71 70 70 68 64 62 62 62 61 60 60 61 60 64 66 69 71 76 82 91 97 100 99 98 100 99 99 99 100 99 99 97 97 98 98 97 91 88 85 89 92 94 91
73 70 68 67 65 64 63 64 63 63 63 64 69 73 77 82 90 98 99 99 97 98 98 98 98 98 98 98 99 98 97 98 98 99 92 90 86 89 92 90 90 92 92
68 69 69 68 66 64 65 66 66 66 68 71 75 79 84 91 93 93 96 98 96 96 96 93 93 94 94 95 95 97 98 98 99 95 90 86 87 91 93 93 95 90 74
64 66 62 62 61 62 64 68 67 69 72 76 79 82 85 86 85 87 88 89 90 90 88 89 88 89 92 93 95 92 89 86 84 84 87 88 88 87 75 49 20 13 12
44 46 49 55 63 66 69 71 71 73 77 79 81 83 82 86 88 87 90 90 88 87 85 83 86 88 88 90 84 87 86 83 82 75 58 40 26 18 14 13 13 12 13
51 47 42 48 62 66 69 73 73 76 81 83 82 85 88 92 90 89 91 93 91 86 85 90 86 87 84 88 89 72 53 40 24 15 13 13 12 11 10 8 9 11 12
59 56 55 56 67 68 72 74 76 79 80 82 84 88 95 96 92 91 90 90 92 92 91 90 86 85 73 47 38 19 13 12 12 12 12 9 9 10 10 10 12 14 15
68 64 65 67 69 70 72 77 79 79 82 83 85 90 97 98 95 92 92 90 95 95 94 89 84 61 42 15 14 13 12 10 9 8 9 10 11 12 15 16 17 18 18
66 67 68 67 66 70 76 78 77 80 82 86 86 80 87 94 94 95 93 93 95 93 90 84 69 28 15 12 12 12 10 8 8 8 10 12 13 15 16 18 19 21 21
66 67 68 72 69 72 77 80 81 83 82 86 88 84 83 91 95 94 93 91 91 88 82 64 23 15 13 12 12 11 8 7 8 10 12 14 15 17 20 22 20 20 25
92 90 80 74 75 77 78 82 87 87 84 86 88 87 90 95 97 95 94 90 85 81 64 30 20 16 14 14 14 10 8 8 9 12 14 15 17 18 20 22 23 26 29
74 76 76 76 75 75 77 81 85 88 84 85 88 91 95 96 93 91 86 86 82 65 31 22 18 15 14 15 13 10 7 8 10 13 15 16 17 19 22 23 22 28 36
81 77 77 78 76 76 76 78 80 82 82 83 89 93 96 90 90 90 90 91 70 35 26 21 19 17 15 14 14 10 7 9 12 14 16 17 17 19 22 23 23 25 37

GFSMW_850_rhum_090.txt.gz
RH
43 35 48 54 55 58 57 59 66 77 78 82 88 90 86 88 83 75 77 77 76 71 68 66 67 67 65 67 69 65 62 62 66 72 68 66 68 69 71 76 78 79 83
39 36 37 58 56 53 56 57 55 64 68 72 73 71 69 71 78 75 73 74 76 75 71 65 65 68 70 71 73 76 72 71 70 75 76 79 71 69 71 73 72 68 71
35 35 34 43 55 55 43 58 68 71 63 69 64 68 70 77 83 80 81 73 74 74 73 70 69 71 72 69 73 80 82 81 80 79 82 86 81 76 75 75 76 77 77
35 33 31 31 33 40 54 63 66 75 85 83 71 73 72 74 76 73 76 67 59 69 70 74 75 72 74 81 78 88 92 93 92 90 87 82 82 86 85 77 70 72 71
39 35 32 29 29 30 28 52 66 74 82 88 92 91 77 84 87 85 84 78 66 75 65 62 66 65 72 67 84 85 93 98 98 95 93 94 91 90 92 97 86 84 76
36 34 33 32 29 28 27 32 48 58 56 77 84 85 82 79 81 78 75 74 74 73 69 69 68 66 72 72 70 72 83 94 91 93 96 98 99 93 91 94 96 96 98
29 32 33 32 30 29 27 26 30 43 52 52 58 60 60 67 72 74 74 70 70 72 75 78 80 78 73 71 75 78 82 86 97 94 93 98 97 96 100 100 99 99 100
35 35 36 36 32 31 29 30 35 48 57 61 57 57 60 59 56 51 46 47 51 62 69 72 67 61 60 67 84 81 86 87 75 76 98 94 97 98 98 100 100 99 99
36 35 38 38 34 33 35 41 49 59 62 62 62 57 48 44 42 40 40 41 42 43 44 45 44 45 48 65 94 90 94 93 87 81 84 87 85 78 89 92 94 97 100
31 35 41 42 41 40 40 41 42 42 42 42 40 40 39 38 38 36 36 36 37 41 44 43 42 42 47 70 91 82 86 88 93 74 83 92 83 79 85 86 85 96 99
52 54 54 51 47 43 41 39 38 37 36 36 37 38 38 37 37 36 35 34 35 38 40 42 43 44 47 66 100 98 97 88 88 86 81 83 84 86 89 88 84 90 95
62 65 61 56 53 50 48 46 44 44 44 44 44 45 46 46 46 47 47 49 50 51 52 53 52 56 65 99 100 87 85 89 94 92 90 90 86 90 89 89 84 80 80
68 64 62 59 57 55 55 55 56 56 57 56 55 53 52 52 52 54 56 58 61 65 69 72 73 73 72 75 87 94 91 89 95 96 89 87 92 92 90 90 83 86 80
71 69 67 65 62 60 60 60 61 61 60 60 60 59 59 59 60 62 64 69 73 75 79 84 89 93 95 92 89 89 90 92 94 94 96 98 97 95 90 86 85 83 86
74 70 68 67 66 64 64 63 63 63 62 62 63 63 62 64 70 69 80 89 96 98 99 98 99 99 99 99 99 99 98 99 99 98 99 96 95 91 90 88 90 88 87
71 70 69 68 66 64 64 64 65 65 65 64 66 67 68 73 80 86 94 97 98 98 98 97 96 95 96 97 96 98 98 98 98 98 99 93 90 89 88 90 91 88 84
68 67 66 65 66 66 64 65 66 66 66 68 69 70 74 78 83 85 88 88 90 93 94 94 93 92 94 95 95 97 99 99 100 96 89 88 89 86 83 75 48 24 14
63 63 64 60 62 67 64 66 68 68 69 72 72 74 77 80 84 82 83 87 90 92 93 91 87 87 92 96 97 93 88 86 86 85 86 76 49 26 15 12 11 11 10
42 42 43 48 58 64 65 68 69 71 71 74 76 80 81 82 87 87 89 92 94 94 90 89 88 85 89 91 90 88 87 81 59 35 18 12 10 9 7 7 9 10 12
59 57 55 55 51 62 68 69 71 74 75 77 80 82 90 91 92 92 92 95 95 95 91 90 91 89 91 92 84 56 32 16 12 11 10 8 7 7 8 10 12 13 15
68 67 63 60 59 67 70 71 74 75 79 81 83 84 90 99 99 95 93 94 92 96 96 95 92 90 66 43 22 14 12 12 9 7 7 8 9 10 12 13 15 16 17
67 69 70 71 73 74 74 73 76 79 80 83 84 85 92 97 99 97 95 94 97 99 98 96 87 58 31 15 13 13 12 8 8 8 8 10 11 12 14 15 15 17 17
73 67 69 72 72 73 82 82 80 80 81 85 88 88 88 95 98 98 96 95 97 98 97 91 75 37 15 12 12 12 8 7 7 8 10 11 12 12 14 16 17 17 19
94 88 76 76 84 76 75 79 82 84 87 88 90 94 88 91 100 100 100 96 93 94 92 80 44 17 14 13 13 12 9 8 8 9 11 13 13 13 15 18 19 19 22
96 90 90 86 81 78 77 78 80 85 89 91 95 92 90 94 100 100 99 95 94 89 82 60 24 18 15 15 15 14 10 8 8 10 12 13 13 14 14 15 17 20 23
82 88 78 78 79 77 75 76 78 82 88 91 96 88 90 95 100 100 98 96 96 85 64 36 26 19 16 14 15 14 10 7 8 10 12 14 15 14 12 14 16 20 22

GFSMW_850_rhum_093.txt.gz
RH
50 47 42 56 61 62 57 60 62 64 79 81 77 84 88 88 86 86 77 79 81 81 80 76 76 74 65 62 64 62 59 60 61 65 62 62 63 63 63 66 69 72 78
54 49 45 39 58 58 53 54 59 66 69 83 82 76 73 78 85 78 71 79 82 78 76 73 70 68 70 70 71 73 73 73 71 72 72 74 67 65 66 69 70 68 74
51 46 44 41 45 51 59 57 55 58 61 60 65 76 71 70 70 75 77 77 76 75 73 72 71 70 73 74 75 78 80 82 83 83 83 84 78 75 73 72 72 71 72
45 48 52 44 45 44 42 47 47 46 48 48 57 60 60 60 53 63 72 67 71 73 76 77 71 71 72 72 77 83 75 88 89 91 92 87 86 87 86 79 74 72 74
39 37 36 35 35 44 52 50 41 43 42 51 58 57 56 54 56 64 63 69 56 55 59 64 67 68 67 60 62 63 71 77 94 90 94 91 94 95 97 98 88 82 72
38 38 35 35 32 29 31 30 34 49 50 54 58 61 60 60 60 60 63 62 68 72 73 66 63 66 69 68 72 76 75 80 86 93 96 94 98 97 98 99 97 96 94
34 31 31 31 32 31 29 29 29 31 48 55 55 59 59 67 71 69 71 72 72 72 70 71 74 74 75 77 81 78 76 74 78 85 93 90 90 91 98 100 100 93 100
32 33 32 32 31 31 30 28 28 28 40 54 49 53 57 58 61 62 64 68 68 62 61 70 75 76 76 78 74 68 70 80 84 83 90 78 83 86 83 90 100 99 99
37 31 31 33 36 34 31 29 29 30 36 56 64 60 62 55 59 63 58 48 44 42 41 43 47 48 49 48 46 46 62 90 88 87 86 84 86 90 88 85 87 88 99
37 39 39 39 39 38 36 35 38 47 56 68 74 73 68 62 53 46 43 41 39 37 37 37 37 39 42 44 46 58 91 100 98 94 95 85 81 83 85 77 83 85 95
42 35 34 41 44 43 44 45 48 50 52 50 49 47 45 43 41 38 36 34 34 34 34 35 37 39 38 39 41 66 97 99 99 100 98 88 84 87 86 83 82 88 89
61 55 53 56 55 52 51 50 48 46 44 43 41 40 39 38 37 36 35 36 37 39 42 45 46 47 43 47 78 85 92 96 100 84 91 92 89 87 89 84 87 88 86
72 68 64 60 55 52 50 49 48 47 47 45 45 45 46 48 48 48 48 48 49 51 54 58 60 65 72 77 93 98 99 99 93 95 98 99 92 89 88 88 89 87 83
68 65 64 61 58 56 54 54 55 56 57 57 57 55 55 55 56 57 58 59 60 61 62 69 73 78 87 87 87 89 93 94 94 94 97 95 90 92 90 93 88 83 84
68 64 62 62 62 60 59 60 60 60 60 59 58 59 59 60 61 64 66 70 76 80 86 87 93 96 97 100 99 99 99 98 98 95 96 97 98 96 93 90 86 89 88
67 67 68 67 64 63 61 60 62 62 63 62 60 61 63 63 64 68 76 84 92 99 99 98 97 97 97 98 98 98 99 99 98 99 98 98 96 94 90 87 87 88 84
64 66 66 64 64 63 62 61 63 64 65 65 65 65 66 66 68 73 80 86 88 90 91 94 92 94 93 96 97 100 97 98 98 99 100 97 89 87 86 83 79 53 24
64 65 66 67 68 69 68 66 64 66 68 68 70 71 72 73 75 77 78 80 83 89 90 91 92 92 90 93 95 96 99 99 100 96 90 86 83 66 32 14 10 10 8
61 59 55 57 65 67 67 66 65 67 69 69 71 72 74 77 82 82 78 81 86 92 94 95 91 89 87 93 99 94 88 89 88 86 71 34 14 11 9 7 7 7 8
53 57 56 55 53 51 66 69 67 68 69 73 76 78 79 83 87 92 87 89 93 96 95 93 92 92 91 92 93 92 89 75 45 15 11 10 8 7 7 8 9 10 11
64 65 64 62 60 61 62 71 70 69 74 75 78 80 82 87 94 97 96 96 97 97 97 95 95 94 96 95 85 54 25 13 11 10 8 8 8 8 9 10 11 11 12
71 66 70 68 65 66 71 74 73 76 76 80 79 82 86 87 94 100 100 98 98 99 100 100 97 93 78 52 27 15 13 11 8 7 8 9 9 11 12 12 11 11 11
82 82 69 74 75 77 78 78 78 83 84 80 81 86 88 92 94 100 100 99 98 100 100 98 96 78 49 19 14 13 11 8 7 7 9 10 11 12 13 12 12 12 13
86 90 87 70 70 72 80 90 87 83 85 84 85 89 94 96 92 96 100 100 100 98 98 99 92 67 31 14 12 12 9 7 7 8 10 12 13 13 12 13 13 14 14
78 94 94 92 94 93 91 89 86 80 83 87 90 91 98 99 98 93 100 100 100 100 99 97 84 55 18 14 14 14 12 10 9 9 10 13 14 14 12 12 13 14 15
81 84 88 81 80 86 87 84 83 78 81 88 92 96 100 100 96 96 100 99 100 100 99 90 70 29 22 20 16 15 14 9 7 8 10 12 14 14 13 12 11 11 12

GFSMW_850_rhum_096.txt.gz
RH
40 44 43 48 52 70 79 69 80 81 84 88 96 98 98 92 92 97 94 91 85 81 80 84 78 76 70 66 67 58 54 54 56 60 60 58 59 59 59 62 65 69 73
42 43 43 44 48 70 66 62 73 85 87 79 86 89 88 87 87 87 88 91 86 82 82 84 84 83 78 75 71 70 68 67 63 70 75 80 79 72 66 67 68 69 69
45 47 45 49 48 58 73 67 65 68 75 88 87 89 91 87 79 76 76 81 80 87 82 81 80 77 76 73 72 73 74 76 76 78 81 88 77 80 76 73 73 72 71
58 52 52 51 47 46 69 61 68 67 54 61 76 74 72 78 79 76 77 77 75 79 78 77 80 77 73 71 70 71 72 76 82 82 84 87 86 86 85 81 76 76 77
50 51 51 51 48 48 48 53 58 65 70 52 70 72 74 68 67 66 67 65 69 72 72 68 64 61 75 73 69 66 78 76 83 84 87 92 94 92 93 98 90 81 81
46 51 52 45 52 48 46 48 52 45 47 56 58 54 62 68 67 64 53 66 65 63 69 55 44 50 58 59 65 63 80 80 78 81 90 93 94 96 95 96 93 91 96
44 46 42 48 44 42 37 45 47 48 49 54 56 54 55 57 63 60 65 65 56 60 68 67 61 56 58 62 67 75 67 76 80 77 83 88 98 100 98 100 99 98 99
41 44 43 39 36 34 33 30 30 32 32 55 55 55 58 56 57 59 59 58 57 62 62 58 60 66 71 71 72 77 81 81 77 77 84 92 95 98 85 84 98 98 99
38 40 44 36 36 36 34 32 30 30 31 42 50 54 52 51 51 54 54 55 55 52 52 48 48 47 51 57 60 61 65 67 72 80 94 96 90 82 84 83 90 94 100
40 44 38 34 35 35 34 33 31 31 32 40 52 52 55 52 56 57 58 62 62 49 44 42 40 39 39 41 42 44 46 52 61 100 100 95 94 92 84 82 80 80 90
52 52 49 40 37 36 39 37 37 38 45 59 71 76 75 75 75 66 56 48 45 44 41 38 36 34 33 34 38 42 45 51 82 96 99 99 97 96 89 85 86 86 84
64 58 50 45 44 45 45 44 46 51 55 57 57 55 53 50 48 46 44 42 40 39 37 38 38 38 39 38 40 42 46 81 100 80 99 99 99 98 91 91 91 88 86
75 68 58 59 56 54 53 52 52 51 49 47 45 44 43 43 43 43 43 43 44 45 46 48 49 52 52 55 56 64 67 99 97 100 99 100 100 98 97 93 90 88 86
74 72 73 64 58 56 53 51 48 48 47 47 47 48 49 49 49 50 50 50 50 52 53 58 62 67 69 76 80 87 100 94 94 99 100 95 99 99 95 91 88 88 89
73 70 66 63 58 56 54 53 53 52 52 53 54 55 56 56 56 56 56 57 58 60 64 67 75 77 78 79 90 99 99 100 100 100 100 99 98 93 93 92 92 89 86
71 71 63 60 60 59 58 56 57 59 60 60 59 58 58 58 59 58 57 60 65 70 78 87 92 93 94 98 98 98 98 98 98 98 97 95 96 95 96 94 90 87 88
69 64 65 64 62 60 60 60 61 61 62 62 62 62 62 63 61 61 65 68 74 81 85 87 89 90 90 92 93 96 98 99 97 96 98 98 97 97 93 89 87 85 82
65 65 65 66 66 65 64 63 62 62 63 64 66 66 68 68 68 68 73 77 75 77 82 86 87 92 90 90 94 100 99 99 99 97 99 100 94 90 86 73 41 17 10
64 65 64 65 67 67 67 65 63 62 63 65 68 68 70 72 72 74 77 82 82 76 82 89 95 94 92 92 99 100 100 99 99 100 97 92 84 54 18 9 7 6 6
52 48 44 44 45 48 64 69 68 66 64 67 70 71 73 74 76 79 83 83 91 91 87 94 94 92 90 92 98 98 98 98 93 91 76 30 12 9 6 6 7 8 8
64 64 64 62 60 59 59 61 70 70 70 72 73 76 79 78 81 86 88 91 94 96 94 94 95 95 96 95 95 96 95 88 65 25 12 10 7 7 8 8 8 9 10
76 75 68 67 68 68 68 71 74 77 76 76 76 79 82 82 84 87 95 98 98 100 100 98 97 97 97 97 95 75 39 18 13 10 9 8 8 8 8 8 8 9 10
74 76 82 72 74 74 74 78 81 79 78 78 80 86 88 87 90 93 96 100 100 100 100 100 100 99 94 76 54 23 16 14 11 9 8 9 9 10 9 8 8 9 11
77 80 89 86 70 73 79 80 82 86 90 89 86 88 90 90 94 100 96 99 99 100 100 100 100 99 83 49 22 15 13 10 8 8 8 10 11 10 10 9 10 11 12
77 80 92 94 93 86 86 90 91 92 92 90 86 92 99 93 98 100 100 98 99 100 100 100 100 99 80 48 17 13 12 9 9 9 10 10 12 12 12 11 11 11 11
80 80 82 84 82 90 94 92 87 82 82 83 92 87 91 97 100 100 100 100 100 100 100 100 100 100 77 31 18 16 15 15 11 9 9 11 12 13 13 12 11 11 11

GFSMW_850_rhum_099.txt.gz
RH
29 37 49 53 44 47 81 80 91 87 88 92 96 96 96 91 98 99 99 100 99 98 84 93 89 86 87 82 78 69 73 51 54 69 60 57 55 57 56 60 64 80 69
30 34 45 46 51 47 76 79 88 81 80 89 88 82 90 96 100 100 99 97 95 99 100 98 99 96 76 72 78 76 65 58 57 58 76 76 76 74 67 74 70 69 70
33 32 40 46 47 51 62 82 93 76 74 88 98 92 94 98 100 98 97 96 94 92 86 93 98 99 92 84 78 75 69 71 70 66 72 85 76 76 75 69 71 72 71
35 35 36 46 45 47 57 76 77 78 75 80 91 82 83 92 94 93 89 86 87 90 86 89 93 88 82 81 82 81 78 77 85 88 77 77 80 83 80 82 79 79 79
36 40 37 48 50 47 51 71 77 86 77 70 63 74 79 80 82 85 85 81 78 81 82 87 88 81 84 78 78 75 75 82 77 83 76 73 80 87 92 92 91 87 84
37 41 48 53 51 50 52 56 79 85 82 82 62 57 66 67 70 77 86 81 80 86 77 79 80 73 75 72 72 68 72 70 72 70 77 89 87 83 88 94 93 93 94
37 42 52 56 51 54 56 58 56 66 75 71 72 69 56 50 57 70 74 81 82 85 85 78 77 72 63 60 67 54 54 65 71 80 64 85 94 94 96 99 96 99 99
36 40 43 54 50 47 44 54 58 55 53 58 68 72 63 63 61 57 60 68 77 84 95 86 62 62 60 63 65 69 64 64 63 69 80 85 90 92 100 99 100 99 97
33 39 42 46 46 43 50 58 55 43 64 79 60 59 62 66 70 71 79 84 78 66 72 84 57 60 68 70 67 63 59 72 86 87 92 97 100 100 100 100 87 83 97
29 36 40 42 47 44 48 46 38 36 34 38 35 52 60 60 61 60 65 64 64 66 67 68 68 71 67 65 55 52 56 58 57 66 99 100 99 97 100 95 94 82 80
35 36 37 40 50 49 40 36 38 37 35 45 57 72 68 63 64 65 66 67 62 64 71 64 55 50 46 43 41 42 41 45 50 54 98 83 96 100 99 97 93 84 85
43 43 42 47 62 48 46 43 46 50 52 55 63 67 73 76 78 77 75 69 61 52 47 44 41 39 40 40 40 39 41 42 51 73 100 95 98 100 98 96 94 86 89
60 57 60 61 64 70 64 56 54 52 53 56 58 57 55 52 49 46 44 42 40 39 39 42 44 46 46 49 52 53 54 60 59 90 99 100 99 100 100 99 97 93 91
60 57 58 62 66 70 72 65 55 53 52 50 48 45 44 45 44 44 45 46 48 49 52 54 56 60 63 65 66 70 72 79 90 98 99 99 100 98 100 100 97 93 91
60 61 62 63 69 72 73 66 54 51 50 49 51 51 52 52 52 54 55 56 57 58 59 62 65 68 71 72 74 77 87 99 98 99 98 99 99 100 96 98 92 90 90
59 62 66 65 66 69 64 55 53 52 53 54 55 56 57 57 58 58 57 57 58 59 61 66 72 78 82 84 91 96 97 99 99 97 99 99 99 96 96 92 91 94 90
60 64 65 66 66 66 63 57 56 57 59 60 60 61 61 61 62 61 60 59 58 61 68 72 75 82 86 85 90 92 95 98 97 96 95 94 93 93 95 95 95 92 90
62 66 67 70 66 60 60 60 59 59 60 61 61 63 64 65 66 64 63 63 66 66 70 76 76 76 80 82 84 86 91 95 95 98 95 98 95 96 98 94 90 88 82
64 68 70 71 73 68 65 63 60 59 59 60 61 63 65 66 67 66 68 70 73 74 74 80 83 81 86 89 92 96 100 97 98 99 97 97 98 97 90 76 36 17 9
62 64 60 54 62 75 68 64 64 63 63 63 65 66 67 69 71 72 73 75 77 80 78 81 89 88 87 87 92 100 100 100 97 99 99 98 92 74 27 10 6 6 6
62 62 62 63 61 59 59 58 68 70 71 69 67 68 72 75 78 78 76 79 83 86 86 88 92 92 91 91 92 96 100 100 99 96 91 68 22 11 7 6 7 8 8
72 70 70 70 66 67 68 67 69 69 71 74 72 73 75 76 80 82 82 82 88 92 94 93 95 96 96 95 96 99 99 97 92 65 27 13 10 8 8 8 8 8 8
73 73 78 80 74 71 72 73 73 75 77 78 76 76 77 81 86 88 88 91 94 96 99 100 99 99 100 100 100 99 79 41 20 15 12 10 10 9 9 9 8 8 9
75 75 79 86 84 71 76 76 78 79 78 78 80 86 89 87 87 89 93 96 99 97 99 99 99 100 100 99 87 63 31 18 15 12 11 10 9 10 11 10 9 9 11
74 73 78 85 90 90 78 75 80 86 90 92 93 93 90 90 97 99 99 100 100 99 99 100 100 100 100 99 89 36 19 16 11 9 9 10 10 11 13 11 10 10 11
80 80 80 81 81 81 88 94 95 92 92 88 86 89 96 97 90 94 99 100 100 100 100 100 99 99 100 99 82 36 19 16 12 10 11 11 10 12 13 12 11 11 10

GFSMW_850_rhum_102.txt.gz
RH
36 44 48 51 64 68 71 74 72 82 88 92 92 85 84 92 95 94 95 96 91 80 67 71 81 77 78 72 72 70 68 59 63 69 56 50 51 51 52 56 61 69 69
29 43 48 54 62 64 64 72 77 74 79 81 92 91 83 84 89 96 96 97 100 99 88 74 78 86 79 77 83 81 73 67 64 58 61 72 65 66 65 68 67 73 75
26 42 47 50 56 66 75 77 79 78 72 83 87 86 89 99 92 92 92 98 98 100 96 81 88 95 91 82 78 81 75 70 71 66 69 82 76 78 77 73 69 72 74
28 31 42 45 51 58 76 81 83 75 72 84 81 81 85 98 98 99 100 98 100 100 99 98 95 91 92 85 85 88 76 77 75 78 78 78 78 81 80 80 78 77 77
32 32 40 44 49 48 58 78 78 72 78 81 90 90 93 100 96 96 91 74 95 93 90 93 98 98 99 91 84 85 83 78 78 79 74 69 68 81 93 88 86 86 86
33 35 35 48 49 48 52 78 77 77 83 83 76 72 77 87 88 88 88 90 90 89 88 93 94 97 94 92 85 87 84 76 72 68 72 71 70 64 81 93 94 95 94
32 35 39 51 51 50 51 58 76 82 84 78 66 68 68 70 67 85 81 76 78 80 83 96 87 90 88 80 76 75 75 64 58 47 58 60 77 82 95 100 97 99 99
29 33 41 54 55 53 51 54 56 60 67 71 63 60 59 63 58 64 73 60 57 76 78 80 90 86 79 79 68 70 62 53 48 64 70 71 71 98 100 100 100 97 94
30 34 43 45 54 54 51 51 51 52 56 56 74 73 67 64 65 71 69 66 59 57 57 68 65 60 66 65 72 76 58 54 59 67 77 94 100 100 100 99 100 97 100
30 36 38 44 55 53 50 44 42 45 53 55 59 60 66 68 70 67 71 73 71 68 69 68 74 82 87 86 88 74 70 71 71 83 98 99 99 100 99 99 94 98 100
31 34 40 42 46 50 48 43 43 42 44 49 56 64 75 76 74 78 70 65 64 68 68 79 78 92 94 97 88 75 64 54 47 45 44 73 89 98 99 98 100 100 100
34 36 39 42 46 47 49 44 41 40 40 47 53 55 72 84 74 72 77 84 88 84 80 78 74 66 57 51 46 41 38 38 38 38 43 51 67 97 99 100 88 94 100
42 39 39 45 48 49 51 54 50 49 51 59 65 70 79 75 74 70 68 63 58 53 50 47 46 45 43 42 40 42 44 45 47 53 62 62 99 91 83 96 94 100 97
55 53 52 54 56 56 62 61 58 57 57 58 58 59 58 55 51 48 46 45 44 45 46 46 46 47 48 50 51 53 55 60 63 66 75 97 96 100 100 100 98 99 100
58 58 61 63 67 71 73 68 61 58 56 56 53 51 49 48 47 48 48 49 50 51 52 52 52 52 54 57 62 64 67 72 79 98 100 99 100 98 98 99 100 99 94
61 62 63 67 70 72 73 69 61 56 54 52 49 49 51 52 53 53 53 54 54 53 52 52 52 53 60 65 73 80 82 84 90 98 98 98 94 92 100 100 98 92 93
62 64 64 66 69 67 64 60 57 56 55 53 53 56 58 58 58 58 59 58 56 55 55 55 56 60 68 76 82 88 93 96 97 97 97 95 95 99 96 94 92 91 92
63 65 66 66 65 65 62 59 57 57 58 59 61 61 62 62 64 65 64 61 61 62 64 66 67 68 72 74 78 82 84 88 90 93 95 97 90 92 94 92 94 94 93
66 68 69 70 68 64 63 61 60 61 61 60 59 60 63 64 66 67 67 67 68 69 70 70 70 71 75 83 81 88 78 87 94 100 100 98 99 92 99 95 93 90 87
68 70 71 74 76 73 69 67 65 63 62 61 61 62 64 66 69 70 71 73 73 73 74 77 77 77 82 86 87 89 94 100 100 100 100 100 100 98 97 88 56 24 10
61 62 61 58 59 69 76 71 72 70 70 72 69 65 68 70 73 74 75 76 76 77 77 80 84 84 87 89 90 93 97 100 100 100 100 98 100 88 53 19 8 7 7
70 68 67 68 68 67 70 73 75 76 75 74 74 75 73 73 75 75 78 80 79 80 85 88 91 91 91 94 96 98 99 100 100 100 98 88 47 18 9 8 7 8 8
76 76 76 77 76 72 72 75 78 79 80 81 81 78 76 77 78 81 84 86 87 89 93 95 93 95 100 99 98 100 100 100 99 87 51 23 15 11 10 10 8 9 8
75 76 76 83 85 80 72 77 78 79 81 80 80 80 80 85 89 88 88 88 92 96 100 98 90 95 100 99 98 100 100 95 57 26 18 15 13 10 10 10 10 9 10
76 78 80 83 84 90 90 80 77 82 86 88 91 92 92 92 91 91 94 97 99 100 100 100 99 98 99 100 100 100 96 54 25 19 16 13 11 10 10 11 12 11 11
79 81 83 83 80 80 79 83 92 95 94 93 94 91 87 87 90 95 91 92 99 100 100 100 100 100 100 100 99 100 82 32 24 18 13 10 10 11 12 14 14 12 11

GFSMW_850_rhum_105.txt.gz
RH
42 58 71 68 69 71 76 76 74 79 85 90 83 99 94 88 89 92 92 89 86 80 69 58 61 69 70 74 75 72 72 69 72 70 58 55 47 48 51 55 57 64 72
52 57 56 65 75 67 61 65 72 77 80 75 93 85 93 86 77 85 90 94 92 85 78 70 65 67 71 69 68 69 76 72 65 62 62 59 56 54 53 62 66 70 75
47 51 49 47 51 64 64 56 58 64 70 82 81 84 84 89 83 96 92 99 97 90 91 90 81 82 82 77 72 71 76 76 70 64 61 71 67 67 64 65 71 76 77
32 48 50 51 48 47 72 72 73 69 68 72 82 83 78 81 89 86 83 80 93 99 99 99 90 99 98 88 82 82 84 85 85 80 75 72 71 74 76 76 77 80 87
32 45 51 53 53 46 50 78 80 84 82 74 83 84 88 90 88 92 100 100 100 95 99 100 99 92 96 99 86 78 86 85 90 90 79 77 80 79 82 75 84 84 84
38 44 48 52 52 52 54 55 66 74 75 84 88 90 92 89 95 98 98 86 99 99 99 100 90 66 99 99 98 92 98 97 93 93 78 78 83 70 77 83 86 92 93
34 44 47 50 49 50 57 67 81 78 82 82 81 83 82 76 79 82 83 87 94 92 85 98 98 97 100 99 100 93 92 91 88 78 73 72 66 68 62 77 86 99 99
33 42 48 50 50 49 52 62 68 75 82 84 72 64 63 57 60 71 62 68 78 76 58 77 76 87 94 92 87 91 85 80 79 76 77 76 73 63 63 85 89 100 97
32 39 45 48 50 51 52 54 66 74 80 80 66 60 60 61 62 60 60 58 60 64 59 68 78 98 77 68 72 83 83 73 81 80 80 74 62 64 76 97 100 99 100
31 34 43 52 53 53 53 53 55 58 57 60 59 61 59 61 64 65 66 62 50 62 68 66 66 67 62 58 66 67 71 79 71 79 93 82 61 62 86 97 99 99 100
30 31 43 45 45 46 55 56 55 53 53 56 56 53 55 62 74 66 67 60 55 57 61 65 79 70 68 68 72 73 72 75 84 89 81 63 50 46 82 100 86 95 98
31 32 37 40 47 49 54 53 49 53 53 55 54 49 47 55 55 58 70 70 74 72 72 81 76 73 79 84 98 96 95 83 63 48 41 36 37 41 55 68 92 100 94
40 40 43 46 48 48 51 52 55 53 52 47 46 47 44 39 51 62 81 96 93 89 93 91 84 78 74 67 60 52 48 47 46 45 44 43 45 49 56 72 98 100 100
45 47 52 50 50 51 51 49 49 50 49 47 44 46 47 61 69 72 69 69 65 60 55 51 48 49 49 50 50 50 52 51 50 52 53 56 60 69 93 99 90 98 100
55 56 55 55 55 54 53 52 54 54 50 49 51 53 58 61 59 52 51 50 50 52 52 51 52 52 53 54 54 55 57 60 61 63 66 70 86 94 98 97 99 100 99
58 60 62 64 63 62 61 62 62 61 58 57 57 57 56 53 50 52 56 57 56 57 55 53 52 53 54 55 56 60 68 76 79 82 87 92 96 96 97 100 100 100 97
61 62 63 64 66 67 64 63 62 62 59 58 57 57 56 56 57 59 61 60 58 56 55 55 56 57 58 59 63 69 77 83 88 93 94 95 95 95 96 95 98 100 100
64 63 63 65 67 66 65 64 62 59 58 59 60 59 60 61 62 62 62 61 60 59 59 61 62 62 61 61 65 70 74 78 78 84 86 92 95 96 96 97 97 98 98
66 67 68 66 65 66 65 62 61 61 61 61 61 62 64 64 63 62 63 64 63 62 64 67 66 68 68 67 69 72 78 81 75 78 89 97 100 100 97 95 91 91 93
71 70 72 73 73 71 68 66 65 63 62 62 63 64 65 65 66 67 68 70 69 72 72 72 75 75 76 75 77 81 83 86 89 95 99 99 100 99 99 98 96 95 93
68 69 71 75 75 74 74 73 69 67 67 66 66 66 65 67 68 71 74 75 75 74 74 77 79 80 79 82 82 87 90 95 99 99 100 100 100 100 100 98 85 51 23
70 70 68 67 68 69 71 72 71 70 69 70 72 73 73 72 72 72 75 76 77 79 80 82 86 91 92 91 93 92 94 97 99 100 100 99 100 97 76 48 18 9 8
75 75 72 74 74 72 72 74 77 80 80 81 80 79 81 79 78 78 80 82 85 87 88 91 94 97 94 87 98 100 96 99 100 100 99 98 83 36 20 11 11 9 10
74 73 75 78 79 80 72 73 79 81 83 86 84 82 81 81 82 86 91 91 91 93 96 98 100 100 97 94 99 100 100 100 99 99 96 49 24 18 15 12 11 12 12
79 78 78 80 81 80 88 83 78 80 82 82 83 85 89 93 96 95 94 94 95 97 100 100 100 100 99 100 100 100 100 100 99 78 38 24 19 14 12 12 12 13 13
78 79 79 80 80 80 80 82 88 96 99 100 100 99 98 94 92 92 90 94 93 90 94 100 100 100 99 100 100 100 100 100 91 45 28 22 17 12 11 12 13 15 14

GFSMW_850_rhum_108.txt.gz
RH
64 72 64 70 73 76 78 84 81 81 84 87 91 88 88 86 84 84 83 79 77 76 77 85 84 89 88 80 83 89 89 81 71 72 74 70 57 51 44 48 51 54 60
67 66 68 60 72 75 78 80 79 77 79 86 88 89 94 90 86 87 82 70 72 72 66 73 77 75 76 77 82 84 79 75 73 77 75 69 54 50 50 55 59 61 68
66 69 68 60 60 72 75 75 77 81 84 87 94 90 66 76 91 85 79 75 71 79 82 73 66 69 75 73 66 65 68 71 76 74 70 66 58 64 61 62 68 76 74
54 62 79 57 51 52 60 65 71 70 62 93 78 79 78 83 87 84 87 85 78 78 87 88 60 72 84 84 83 80 74 81 79 81 75 67 76 77 74 73 73 77 77
47 56 74 54 46 47 40 47 65 70 75 79 84 82 80 76 80 78 79 82 98 98 88 86 61 91 96 100 97 84 93 95 90 72 77 80 79 82 86 80 70 80 82
43 40 64 45 43 46 52 49 58 73 78 76 73 78 72 70 72 77 85 88 98 94 75 79 67 87 87 95 97 88 88 98 88 83 79 90 94 90 91 89 83 84 88
37 54 53 49 48 48 52 50 54 57 69 73 77 78 81 80 82 78 76 72 74 74 72 72 76 87 95 81 90 99 100 100 100 100 98 93 90 84 82 87 86 88 89
37 51 56 56 53 51 48 48 57 62 69 71 76 84 85 82 68 70 77 76 78 76 82 76 78 97 99 99 100 94 96 100 96 98 99 87 83 87 82 87 80 86 91
37 50 57 56 53 49 48 50 52 56 69 72 78 74 64 57 52 64 63 60 66 73 68 61 67 73 79 93 78 78 79 81 95 91 93 92 82 80 76 80 81 74 86
37 42 50 52 50 50 49 54 55 56 59 72 78 69 64 64 59 63 62 66 70 72 70 68 62 61 64 84 73 79 82 73 82 86 81 74 80 77 80 80 72 68 76
33 36 48 52 49 48 50 51 53 60 66 75 79 64 61 61 63 64 66 70 71 70 70 74 77 78 72 68 69 73 72 77 77 82 91 98 98 97 89 74 83 85 97
32 34 42 50 51 53 52 54 55 62 70 68 76 71 65 65 62 60 50 53 65 67 64 71 64 70 76 77 86 90 87 80 79 95 93 81 64 51 44 45 50 54 89
30 36 44 54 55 55 55 56 58 56 57 63 65 61 57 61 54 56 45 49 60 64 74 74 73 75 84 95 99 100 92 77 64 56 52 50 48 46 51 56 59 78 75
44 37 48 58 58 58 55 55 56 53 56 60 61 61 56 46 48 54 58 65 80 77 80 83 82 75 69 64 58 53 50 51 50 50 52 54 56 56 56 60 72 80 97
61 58 56 61 59 56 53 54 59 58 56 54 53 52 52 55 61 65 64 63 60 57 53 51 52 52 52 51 51 49 49 50 51 54 57 61 67 76 83 89 94 100 98
58 62 62 61 60 58 57 58 58 58 57 57 56 56 64 65 62 56 52 52 51 51 53 54 53 53 52 52 52 54 55 54 55 59 69 80 86 88 94 97 95 100 96
61 59 57 57 56 56 57 58 62 65 65 65 65 64 61 56 53 54 55 54 55 55 56 54 53 55 58 59 60 60 61 61 64 69 76 81 90 93 94 90 90 96 100
64 65 66 67 67 66 67 68 68 69 69 67 64 60 56 55 56 57 57 58 58 59 58 58 60 64 66 66 66 66 67 67 70 72 74 72 78 84 90 96 97 99 100
63 62 63 64 66 65 64 63 62 62 61 60 59 58 59 61 61 61 61 62 63 64 64 65 69 70 69 70 70 69 69 70 72 74 78 79 85 95 99 100 100 98 93
68 69 69 69 68 67 67 64 62 62 61 61 63 64 65 66 64 64 66 68 70 71 71 72 72 69 73 71 70 72 75 77 81 82 88 96 96 100 100 100 100 100 98
74 74 73 73 73 73 72 71 69 66 66 67 67 66 65 65 66 68 70 72 74 75 75 75 75 78 77 79 82 80 81 85 88 90 98 100 100 100 100 100 100 96 83
71 70 70 72 73 73 73 72 71 72 73 72 72 72 72 72 71 71 73 76 78 79 78 79 81 84 86 88 90 88 87 93 94 95 98 99 100 100 100 100 93 80 44
74 73 72 72 71 71 71 74 77 78 78 77 76 77 78 78 78 77 77 79 81 81 83 86 85 86 93 95 95 92 94 97 94 95 99 99 99 99 84 53 20 12 10
76 75 77 79 78 78 73 73 75 78 81 84 84 84 84 83 82 81 80 80 86 88 88 90 93 96 98 99 99 99 100 99 99 98 99 99 99 78 32 20 15 12 11
80 80 79 78 78 78 82 79 78 78 80 82 84 84 84 82 85 87 89 89 86 85 88 91 95 98 98 99 100 99 99 100 99 99 99 97 77 34 21 17 15 13 14
75 75 74 73 74 77 80 80 82 90 92 92 90 91 93 96 97 96 93 90 89 92 88 86 88 95 98 100 99 100 100 100 100 99 99 84 75 27 20 16 14 15 16

GFSMW_850_rhum_111.txt.gz
RH
62 69 69 85 82 94 91 92 91 90 87 89 92 90 86 86 85 80 78 74 70 67 66 72 77 74 71 69 81 82 81 84 86 85 74 66 64 60 56 58 54 53 56
58 65 64 74 70 85 81 75 88 84 82 86 89 86 83 86 85 85 85 85 80 78 74 72 74 76 73 80 88 87 88 91 92 89 79 76 56 45 44 49 49 53 61
63 65 61 77 80 75 84 75 88 88 84 80 85 89 94 83 83 90 89 89 87 86 77 70 70 79 86 80 79 75 81 85 82 72 76 73 59 58 53 49 54 62 69
64 62 57 72 69 80 82 98 90 96 88 84 84 92 92 87 73 78 77 81 80 80 75 81 82 72 71 65 83 76 76 82 82 83 65 77 72 81 73 70 69 70 73
59 58 56 66 67 76 86 99 86 91 87 91 98 99 99 76 67 58 64 86 80 67 81 75 66 69 71 71 70 68 79 88 92 96 73 76 77 72 66 74 77 77 77
62 62 54 69 64 70 70 84 79 92 63 66 81 76 78 82 82 80 78 79 75 71 75 68 68 74 72 81 91 82 74 85 92 92 93 87 85 76 82 89 91 95 93
54 48 45 59 55 71 55 53 55 57 68 65 78 76 80 83 86 85 91 88 85 87 85 84 83 82 80 88 92 92 82 100 100 98 100 98 100 100 100 96 87 85 81
50 49 40 52 56 61 47 47 50 53 62 69 68 69 71 72 71 71 72 71 74 79 84 88 90 84 83 90 99 98 99 100 100 96 97 100 100 100 100 96 93 93 92
54 39 47 47 55 52 48 47 48 52 54 58 64 70 71 67 67 70 78 77 74 74 85 67 66 72 70 81 81 88 84 98 92 97 99 98 93 99 93 95 94 95 95
38 47 54 57 58 51 50 51 52 51 54 57 62 74 74 63 59 73 74 64 68 72 74 67 66 64 66 76 92 84 78 76 79 91 92 82 85 93 90 94 93 90 89
36 36 53 63 60 55 50 51 56 59 61 61 66 79 66 65 59 59 59 64 68 66 66 68 69 71 73 74 71 70 72 76 77 84 90 95 94 92 98 100 100 95 100
34 32 36 52 56 54 53 52 53 51 58 65 80 79 71 70 68 68 70 71 71 69 66 69 72 75 78 80 87 89 91 92 98 98 99 100 95 75 61 54 52 52 60
35 34 36 44 53 52 52 53 52 55 65 75 87 84 74 72 73 71 72 66 60 66 67 82 91 88 84 86 89 93 99 98 94 71 59 54 52 50 52 54 55 55 63
40 36 37 43 53 54 54 56 58 62 61 68 69 73 69 63 62 62 53 52 58 67 74 84 96 98 94 87 78 67 58 53 54 55 55 54 54 54 54 56 61 83 99
58 48 45 49 56 57 60 60 63 61 59 59 62 63 64 61 58 50 52 64 65 69 70 71 67 61 56 51 50 52 51 50 51 52 53 52 52 52 61 70 79 88 94
69 70 65 67 62 62 61 64 67 64 62 62 62 60 56 55 55 63 68 65 59 53 50 51 52 52 50 51 51 53 54 56 56 54 54 55 58 66 77 92 96 94 93
62 66 70 72 72 70 66 63 63 61 58 57 57 57 57 62 68 66 58 54 52 52 53 54 54 53 53 56 60 61 60 61 61 61 61 64 68 70 74 78 86 88 91
63 65 63 62 63 62 61 60 59 59 62 64 65 65 67 66 61 56 54 56 56 56 58 58 58 59 62 67 66 68 68 67 68 68 68 69 70 71 78 85 90 97 100
65 65 65 66 66 66 65 63 63 64 66 68 69 68 65 61 59 60 61 62 61 62 63 62 63 64 70 68 69 67 69 69 70 72 73 75 75 78 88 98 100 99 100
68 67 67 67 66 66 66 64 64 64 64 64 66 66 66 64 66 67 67 66 66 67 68 69 70 73 72 71 71 69 75 76 75 74 79 85 86 98 100 99 99 99 99
73 72 72 72 71 70 70 68 67 66 68 68 68 68 68 70 70 69 68 71 71 71 74 75 75 74 73 76 77 82 85 87 85 88 93 95 99 99 99 99 100 99 99
75 76 77 76 74 73 71 71 71 73 72 70 70 69 69 69 69 70 71 70 72 75 76 77 76 79 82 85 90 93 92 90 88 89 88 90 94 94 99 99 99 99 98
76 75 74 71 70 69 70 71 73 73 73 73 73 74 74 75 75 75 75 76 77 78 79 78 82 86 88 90 94 95 99 96 94 92 94 88 88 95 98 100 96 54 22
77 75 75 76 75 74 72 72 74 75 77 80 81 81 81 81 82 82 82 81 81 83 89 89 89 90 92 94 97 100 99 99 99 100 99 99 94 92 96 96 67 24 17
77 77 76 77 77 78 80 79 74 76 78 81 83 84 85 86 86 84 83 85 90 91 88 88 86 84 81 84 88 97 99 100 100 100 99 94 88 94 95 71 28 22 20
75 73 74 73 73 74 76 79 81 84 89 88 87 87 87 87 88 92 93 94 93 93 90 91 82 82 81 84 90 98 99 99 100 99 99 99 95 96 89 66 26 24 18

GFSMW_850_rhum_114.txt.gz
RH
70 68 67 81 81 98 92 94 90 67 76 86 87 91 87 83 74 62 64 67 71 68 56 50 36 36 36 38 46 61 69 72 76 82 79 71 66 60 56 57 53 52 53
65 64 64 79 73 67 95 97 98 80 76 75 76 85 86 84 83 66 68 78 74 70 71 69 60 60 64 69 74 82 83 80 84 89 92 84 52 44 48 52 58 56 57
67 58 64 70 94 85 93 94 84 87 77 81 80 88 93 86 86 88 84 84 82 79 73 73 76 83 83 79 80 81 80 77 87 88 96 81 62 51 44 46 50 56 54
68 60 59 66 80 88 79 86 90 96 96 88 96 89 94 89 90 89 86 89 89 87 88 87 87 84 85 80 73 87 85 67 67 78 74 77 76 77 65 63 63 63 61
71 62 56 63 73 77 85 89 97 93 98 99 100 100 100 100 100 94 92 93 92 89 81 88 91 90 76 83 75 70 72 70 87 89 80 82 89 90 88 74 68 74 74
74 64 57 60 70 82 83 76 81 90 85 98 97 99 98 98 100 85 98 90 86 85 78 74 77 73 83 77 77 75 74 81 96 92 90 96 100 95 92 90 77 78 84
71 62 52 51 66 82 69 65 74 80 95 87 91 93 79 85 70 86 89 89 87 86 87 89 83 82 90 83 83 81 92 98 100 100 98 100 100 100 99 100 100 99 97
65 60 47 45 49 74 72 65 66 72 92 88 93 95 82 82 92 94 75 83 83 73 80 78 80 92 89 97 95 100 100 100 100 99 100 99 100 98 100 98 98 98 100
63 50 52 42 44 70 70 70 66 75 79 79 80 79 76 80 91 86 83 81 83 90 91 99 100 99 100 91 94 92 85 87 94 85 88 100 98 94 100 98 92 96 99
61 45 46 45 47 66 60 64 62 60 64 63 65 68 71 78 77 82 85 88 84 90 94 70 69 69 68 68 74 80 74 74 77 80 83 88 97 97 97 98 99 99 99
46 40 41 55 57 66 63 62 54 54 58 61 62 67 69 69 80 86 76 67 70 75 78 75 75 74 70 70 73 74 72 72 74 75 82 92 99 100 99 99 99 97 92
40 36 48 60 65 63 57 52 52 51 54 62 66 80 69 66 68 67 65 68 70 70 69 72 72 73 76 78 78 79 80 86 94 99 99 95 83 60 56 56 56 61 62
36 39 45 64 63 61 55 50 51 50 56 61 69 79 72 72 70 71 73 74 75 78 78 77 84 83 81 83 93 98 100 99 98 88 62 54 52 50 50 48 47 52 54
38 35 40 46 62 63 58 55 53 54 60 69 76 82 78 71 70 70 69 60 60 53 55 65 74 84 88 90 96 94 82 62 55 53 50 49 50 50 49 48 49 51 60
52 42 39 39 57 65 63 62 62 63 66 71 72 72 81 80 70 66 67 55 53 66 69 72 76 78 73 64 56 54 54 52 52 53 54 53 53 54 54 53 55 60 78
72 62 51 53 58 65 66 66 65 67 68 68 68 70 72 72 67 63 57 64 71 69 64 58 55 53 54 56 54 55 57 59 59 59 59 59 59 59 61 63 67 72 81
68 74 78 76 75 72 70 69 66 65 67 67 66 66 63 61 59 62 67 68 62 56 54 55 56 57 56 56 58 62 62 62 64 65 66 67 66 64 65 65 68 73 78
71 69 69 73 75 74 73 70 68 65 63 62 61 61 62 64 69 72 66 60 59 60 59 60 60 59 58 60 64 64 64 62 64 65 67 68 71 71 69 70 75 80 84
69 70 69 68 67 66 64 63 62 61 64 66 66 66 68 70 67 62 58 57 58 59 60 60 61 60 61 65 66 69 68 70 71 72 72 71 74 78 76 78 87 91 96
68 67 68 68 67 66 64 63 64 66 70 73 74 73 71 69 67 66 65 65 66 68 69 70 69 69 70 72 71 74 76 75 78 79 78 80 87 92 99 100 100 100 100
72 73 72 71 68 67 66 65 65 65 66 68 70 70 69 70 71 72 72 72 72 72 72 73 74 76 78 77 78 78 77 84 84 86 85 86 88 91 95 96 98 99 100
74 75 77 76 76 75 73 73 72 70 69 68 70 71 71 71 71 72 72 73 74 74 75 76 77 78 77 79 81 81 85 88 92 93 92 90 87 78 85 91 94 98 97
75 71 69 69 69 69 69 71 73 74 74 74 73 73 73 73 74 75 75 75 76 75 75 76 78 81 85 86 88 91 94 97 96 96 99 98 95 77 80 90 99 97 84
82 80 80 79 75 72 70 70 72 74 76 77 78 79 78 77 78 79 80 80 79 80 80 80 86 86 85 86 85 84 90 98 98 100 99 99 90 80 86 92 96 90 47
80 80 79 79 79 78 80 80 77 76 76 78 81 84 85 86 86 86 85 83 83 83 87 90 87 86 81 83 81 86 93 100 100 99 99 99 96 88 91 96 92 62 31
90 86 80 77 77 77 76 76 78 82 85 86 84 84 86 87 88 87 86 86 91 94 94 92 91 88 80 84 85 88 94 97 100 99 100 100 100 98 98 100 93 74 31

GFSMW_850_rhum_117.txt.gz
RH
67 60 51 68 90 83 99 100 99 100 86 89 85 84 85 76 82 71 40 34 43 46 47 49 49 47 45 43 46 49 50 54 68 77 74 71 71 62 52 49 48 48 50
74 54 49 64 82 95 74 98 100 98 100 98 86 77 82 81 75 80 79 58 40 43 41 41 42 44 44 44 44 48 61 76 80 81 81 76 56 46 44 45 46 52 50
72 56 47 69 80 96 97 100 99 98 97 82 92 87 89 94 90 77 83 81 74 74 65 55 53 38 38 42 50 67 77 81 81 74 81 89 64 57 61 57 50 56 50
85 57 60 74 91 97 86 58 81 100 97 100 100 97 87 93 81 70 72 74 80 87 88 88 76 70 76 82 81 79 78 72 69 89 82 79 88 93 83 74 68 72 58
74 63 66 74 99 98 86 73 69 84 86 99 97 96 87 81 85 74 59 73 87 90 92 92 93 91 91 90 88 82 77 78 83 89 89 94 96 98 100 98 88 77 75
68 70 79 70 87 90 99 83 64 57 76 99 98 100 98 97 98 81 88 86 92 93 94 94 94 91 84 79 80 76 84 88 93 89 98 96 99 98 100 100 99 93 84
78 74 73 88 78 87 95 99 95 83 92 95 98 87 99 100 98 89 95 96 97 99 97 88 87 86 92 82 79 81 83 90 92 97 100 100 98 98 99 100 100 99 98
78 82 63 80 85 69 77 88 92 100 95 82 80 92 92 90 98 100 100 100 97 99 96 91 87 78 70 67 74 84 89 92 99 100 100 99 97 90 99 98 93 98 98
83 80 55 59 86 67 61 82 78 77 80 86 100 78 83 89 82 83 93 96 81 82 92 72 82 66 73 89 91 89 100 92 84 90 86 84 96 94 92 95 89 90 92
87 75 69 53 82 80 71 64 61 65 70 75 82 94 96 98 96 90 77 75 69 81 69 83 84 90 95 100 98 87 83 77 78 77 80 84 85 94 99 100 99 98 100
67 62 64 57 72 70 69 70 75 68 66 72 83 84 84 85 86 85 82 88 94 86 96 99 97 86 91 82 80 85 81 74 75 79 80 86 98 100 100 98 97 95 95
50 45 48 48 66 69 60 60 64 70 66 68 70 77 77 80 82 90 92 96 90 97 89 78 74 74 73 74 77 78 86 88 84 93 99 98 98 75 57 54 53 54 54
43 45 70 70 74 72 66 62 60 59 60 62 64 75 71 73 81 83 79 76 78 84 82 78 73 72 74 74 78 80 87 97 100 98 96 65 54 51 48 46 46 46 47
42 51 67 77 85 62 63 62 60 55 61 69 78 76 76 76 79 76 77 81 83 81 78 76 79 80 83 86 89 93 99 100 90 62 53 50 50 51 51 50 50 50 50
68 50 54 63 69 76 59 59 55 57 63 77 91 82 79 80 77 76 77 74 70 64 60 65 71 79 88 94 98 88 68 55 51 51 54 55 56 57 56 56 55 54 54
79 81 67 67 67 72 79 72 63 60 64 64 73 81 84 82 78 70 69 67 57 59 72 78 80 80 74 64 56 54 52 53 57 58 61 62 63 64 64 62 60 57 58
73 79 83 80 81 76 76 75 72 67 67 66 69 71 74 74 71 65 58 56 62 67 68 62 57 56 55 54 55 56 60 62 64 64 62 62 63 64 68 68 67 64 66
72 73 76 82 86 83 78 74 72 71 73 68 68 70 69 66 63 62 65 69 68 62 57 56 56 57 57 57 60 64 66 66 65 64 64 65 66 66 66 70 75 75 78
69 68 73 74 72 73 73 71 68 67 67 66 65 64 66 69 71 74 72 67 61 60 61 62 61 61 60 62 68 69 69 67 66 67 67 68 70 70 66 73 80 82 88
71 69 67 68 71 68 66 65 66 64 60 62 69 74 76 78 77 73 68 65 65 65 65 66 66 64 64 65 70 72 73 75 72 72 73 76 71 75 74 85 96 98 99
77 77 75 72 69 68 68 67 65 66 69 71 70 71 72 74 73 71 71 71 70 71 71 72 73 73 73 75 77 77 78 76 75 78 82 83 84 84 81 82 89 95 97
77 79 80 79 77 76 76 73 71 70 69 71 72 74 74 74 75 76 76 76 76 74 74 76 76 76 76 76 76 74 73 77 81 88 94 93 89 89 88 75 82 89 97
79 77 76 73 72 72 73 76 77 76 75 74 74 74 73 73 73 74 73 72 72 72 71 71 72 74 75 78 83 85 83 86 89 94 98 99 99 97 92 81 84 92 94
84 82 81 78 74 75 75 75 76 77 79 80 80 80 80 79 80 79 78 78 78 79 78 80 82 83 88 89 86 85 86 87 93 99 99 98 98 100 95 85 90 92 92
82 81 80 80 80 75 75 77 78 78 78 80 82 85 87 87 87 86 86 87 86 87 87 86 86 91 90 88 84 87 85 87 98 99 93 92 100 100 100 88 92 94 89
94 93 93 86 80 76 75 77 76 77 81 84 85 85 86 88 90 91 92 91 90 90 91 95 97 95 91 89 81 84 88 88 94 97 100 99 100 100 100 99 97 95 94

GFSMW_850_rhum_120.txt.gz
RH
66 71 66 62 67 90 74 81 96 100 99 99 90 75 54 32 37 34 50 81 93 91 96 98 93 63 60 64 57 48 49 53 57 60 71 66 64 59 58 61 62 61 59
69 76 64 64 58 93 73 74 87 99 91 93 96 77 61 46 25 32 37 75 68 65 77 74 77 69 62 58 51 46 49 57 54 79 88 80 78 63 52 50 50 51 60
71 69 67 54 61 88 83 73 78 79 99 97 98 99 89 79 63 36 29 37 45 53 63 60 63 63 59 49 48 51 49 55 76 81 91 86 72 73 69 62 71 66 59
72 75 75 60 69 98 90 64 99 89 100 99 100 97 94 76 70 66 51 34 36 42 50 52 55 54 52 52 50 44 55 82 98 88 85 82 89 92 83 85 87 80 74
78 80 75 66 87 100 97 76 72 100 98 97 97 98 100 91 83 79 76 67 51 43 45 53 50 58 49 45 56 74 84 86 95 88 95 84 89 99 99 97 92 98 94
83 86 77 76 97 99 99 79 79 86 99 100 100 99 98 100 100 89 80 82 75 74 88 92 94 87 81 90 92 90 89 85 86 89 91 90 97 99 100 100 93 98 99
89 88 68 96 100 100 99 94 97 79 81 93 100 100 100 99 99 91 67 76 78 81 89 93 94 95 96 92 87 87 83 80 82 83 93 92 99 98 93 93 91 91 98
92 75 84 100 99 100 100 97 99 98 86 98 81 84 84 100 100 99 81 68 69 87 94 96 99 94 86 83 85 86 82 85 96 96 98 99 99 97 96 96 97 83 88
87 83 98 100 99 99 99 98 98 99 94 90 82 88 92 82 99 100 99 76 80 93 99 99 91 85 78 80 82 93 94 76 99 100 100 94 84 95 96 89 96 84 93
90 82 100 100 93 85 78 81 87 93 89 78 77 75 73 88 95 93 87 99 91 97 98 95 78 82 95 94 90 73 89 99 83 93 97 79 77 81 88 94 97 97 100
82 97 100 100 97 84 75 76 77 81 84 90 88 90 78 88 88 84 85 76 99 92 82 80 93 81 90 96 86 81 99 83 78 89 80 79 81 94 99 98 98 97 98
92 99 100 95 76 93 83 73 71 70 67 76 76 71 86 93 94 78 75 89 76 73 66 84 79 82 96 95 90 87 89 80 77 77 80 84 92 99 86 62 55 54 52
94 95 94 98 84 82 80 78 70 67 67 73 73 79 81 90 92 90 83 90 92 90 88 92 94 91 91 85 80 82 89 89 88 91 99 98 96 60 52 48 48 47 47
93 99 100 97 88 79 72 67 70 72 72 71 70 78 82 88 88 91 99 100 100 97 90 87 87 85 81 80 81 83 90 96 100 99 98 69 53 50 51 52 52 53 53
87 91 98 97 72 64 69 66 70 63 74 78 78 75 79 87 84 82 79 79 79 78 78 78 80 82 84 85 89 97 100 99 99 79 54 52 54 56 57 60 60 60 59
94 85 90 97 99 96 82 65 68 68 77 80 82 79 78 80 80 80 81 79 77 80 78 72 70 71 78 91 96 100 98 73 54 52 54 58 60 58 57 58 62 64 63
90 90 88 84 91 94 96 90 82 71 77 84 86 84 82 81 84 84 84 78 73 65 68 78 83 86 90 90 78 61 55 53 56 60 61 59 59 60 61 62 64 66 68
84 82 86 90 86 84 84 80 80 76 75 75 78 84 85 82 79 76 74 68 68 70 73 73 73 68 60 57 56 55 57 61 63 62 62 62 63 64 66 66 66 70 75
75 75 72 73 80 84 83 82 81 80 76 72 70 73 73 74 72 68 65 67 69 71 69 63 58 57 57 57 57 60 64 66 65 64 65 67 67 70 72 73 71 76 80
81 77 73 70 68 68 69 69 69 71 70 69 67 68 68 69 71 73 74 74 72 67 66 64 62 62 62 62 64 68 68 69 69 70 70 72 75 77 81 79 77 80 89
82 83 80 73 69 67 68 69 68 66 65 68 70 70 71 75 79 78 76 72 68 67 67 67 66 66 65 66 70 74 74 73 74 75 75 77 80 83 86 82 82 79 80
78 78 80 80 81 79 75 72 70 70 70 71 72 74 77 77 76 74 73 72 73 73 72 72 70 69 69 71 73 77 77 75 76 79 82 85 90 90 90 89 86 79 78
80 80 80 78 76 75 79 78 74 74 76 76 75 74 75 75 76 77 77 76 76 77 76 75 75 76 76 78 78 76 77 80 83 86 90 94 97 98 96 93 83 79 83
80 80 83 84 81 79 78 77 78 80 78 78 78 78 78 80 80 81 82 84 82 81 80 79 80 82 81 80 80 82 84 86 84 83 87 93 98 95 96 98 90 83 88
89 87 83 80 79 80 79 80 82 80 81 81 82 83 84 83 82 82 83 85 86 86 86 84 85 85 82 84 89 87 83 82 82 80 82 86 87 90 98 99 96 89 89
93 91 91 90 91 88 83 79 79 81 83 86 87 86 87 89 90 89 88 87 88 88 88 88 87 88 89 90 88 89 85 83 86 83 82 86 96 98 98 100 99 99 95

GFSMW_850_rhum_123.txt.gz
RH
50 53 65 80 65 67 60 81 83 70 94 100 94 88 87 84 84 82 92 97 99 94 92 96 92 93 94 93 86 80 79 80 82 82 71 70 70 64 69 71 66 78 72
48 50 66 75 79 67 64 99 77 86 85 100 94 83 80 86 88 86 94 95 96 92 85 90 95 96 95 95 89 75 65 67 59 75 86 80 82 78 79 83 80 65 71
47 51 59 64 76 70 77 82 82 66 82 99 98 94 89 91 93 90 94 92 94 97 95 94 97 95 94 93 75 63 55 72 57 63 88 81 73 70 72 70 69 76 72
48 56 57 67 82 63 94 92 73 61 71 92 100 92 76 78 83 83 92 94 95 99 100 99 98 94 92 82 63 55 55 63 70 85 82 81 87 88 84 85 84 88 87
53 61 60 70 77 71 98 100 81 57 71 87 96 90 76 79 92 89 86 89 93 80 76 76 84 79 71 61 53 52 54 54 92 97 90 96 90 87 88 96 86 90 88
67 70 70 78 92 92 96 93 97 64 74 83 100 99 97 96 92 85 87 77 68 60 66 72 70 59 54 55 53 48 48 69 87 93 89 91 94 92 92 99 98 95 75
70 74 80 88 88 100 99 88 84 60 78 68 99 100 100 98 84 82 62 50 61 58 53 56 53 50 51 53 47 71 88 93 91 87 84 90 97 98 96 93 100 90 79
76 84 90 88 100 99 96 88 78 56 58 69 81 100 88 99 98 91 88 76 67 52 48 61 73 76 78 86 94 90 90 90 81 80 82 86 86 87 84 96 97 99 91
89 99 86 100 100 100 98 96 96 65 81 86 73 78 100 99 99 100 100 99 95 96 98 96 94 98 100 95 84 88 83 76 79 90 84 84 96 93 89 94 98 98 93
97 84 100 100 100 99 100 100 87 68 80 87 94 95 84 76 100 99 100 98 100 99 96 98 100 98 91 84 80 80 81 78 76 79 82 84 81 74 91 91 92 92 99
99 100 99 100 100 100 100 98 100 100 95 98 96 93 97 91 94 94 100 100 94 86 98 99 93 78 78 76 80 86 95 91 89 71 77 73 82 79 90 94 100 98 99
100 100 100 99 100 100 99 100 98 98 98 95 93 87 93 94 96 100 91 100 100 100 97 90 77 74 72 82 89 94 95 94 74 79 81 77 78 87 91 98 86 64 60
100 100 100 99 97 99 99 100 99 98 100 100 100 98 83 93 98 100 91 99 85 100 99 88 74 79 85 69 71 88 100 86 75 76 76 79 94 93 94 60 50 47 48
100 100 100 99 97 92 86 87 85 86 89 86 87 95 98 97 98 85 90 84 99 100 100 92 81 71 79 87 95 96 93 85 84 85 96 99 100 87 53 48 50 52 54
94 89 99 97 88 87 83 75 74 77 74 76 78 87 86 87 89 87 81 83 93 95 93 80 78 85 98 100 95 86 89 95 98 100 99 100 74 51 52 56 59 59 58
100 97 94 79 84 66 72 78 73 73 76 77 83 94 95 100 98 100 100 100 99 95 89 82 82 83 89 92 90 90 96 99 99 99 97 59 52 56 58 57 57 59 62
91 97 98 99 99 100 99 96 85 80 86 83 80 83 94 90 88 86 84 85 85 87 87 85 85 82 77 82 93 100 99 99 99 72 53 55 59 57 56 58 59 60 62
86 90 94 94 98 100 100 98 89 90 93 90 86 85 86 85 83 83 85 86 86 83 76 72 71 78 82 92 99 100 95 71 56 55 57 59 58 59 60 62 64 65 66
86 88 87 87 87 88 91 96 94 97 100 100 98 94 91 90 89 86 82 82 80 76 75 81 76 83 96 97 85 66 58 57 57 60 61 61 62 64 66 69 71 72 72
78 80 83 79 72 73 75 79 83 86 87 89 90 92 90 89 87 83 78 75 73 74 75 82 82 80 70 64 62 59 57 60 64 65 66 68 70 71 74 76 77 77 76
80 80 76 73 71 68 68 68 69 69 72 73 74 74 73 74 75 75 75 77 79 80 78 74 71 67 63 64 61 63 66 68 69 70 71 72 75 77 78 81 85 83 84
76 74 74 73 73 72 69 67 65 64 64 67 72 75 75 76 78 79 81 82 80 76 74 73 72 69 68 65 68 63 72 72 73 75 77 78 82 84 88 91 89 90 88
82 76 74 75 77 76 79 86 78 75 72 70 68 69 72 77 78 78 78 77 76 76 75 74 73 72 71 72 71 73 78 78 80 82 82 85 86 88 93 94 95 92 84
88 82 80 77 74 73 73 74 76 78 78 79 80 78 76 74 75 78 81 83 80 80 80 77 77 76 76 76 77 78 79 80 81 84 86 86 80 78 83 96 97 97 91
96 97 96 96 93 85 79 75 77 81 80 82 84 83 82 82 82 80 79 80 82 83 83 80 80 82 80 78 79 78 78 81 85 86 83 81 79 80 85 90 95 100 96
83 83 84 87 90 89 85 86 84 77 82 86 85 85 86 88 87 88 88 89 89 85 87 87 86 84 84 83 85 86 90 90 85 83 81 84 84 88 92 92 93 90 92

GFSMW_850_rhum_126.txt.gz
RH
37 43 40 38 55 61 56 59 73 83 70 66 95 98 99 85 82 83 83 81 95 87 90 84 83 85 83 80 79 76 85 84 79 80 70 65 61 61 63 65 72 78 78
44 42 50 64 67 66 57 61 96 100 62 69 78 94 93 83 89 87 83 81 91 97 92 86 82 88 85 82 78 74 83 82 83 76 82 82 84 80 63 68 69 67 69
47 45 44 58 66 64 59 65 100 99 59 70 87 100 78 81 84 85 88 96 93 93 92 80 85 92 90 79 72 68 71 69 76 71 76 79 78 72 72 74 73 78 82
41 45 44 52 62 60 60 74 99 80 69 81 92 97 99 89 80 82 79 87 79 92 92 95 91 94 90 80 76 68 61 59 54 63 78 83 80 73 79 84 85 90 87
41 44 46 52 58 61 64 93 100 97 66 95 84 94 98 94 84 86 84 89 92 90 88 93 94 92 89 84 74 68 66 61 57 68 80 82 79 75 80 80 80 83 83
42 45 52 58 66 70 79 100 100 99 70 77 65 87 92 100 92 88 88 87 96 91 94 96 88 85 92 79 70 64 57 58 70 83 83 79 81 83 86 88 88 95 76
45 58 64 71 74 81 98 100 99 100 65 78 70 73 100 93 82 79 85 93 95 88 97 99 99 97 91 75 66 61 58 52 56 86 92 86 79 78 86 96 98 98 87
69 69 75 82 82 84 100 100 100 96 84 73 68 79 97 94 84 70 75 91 90 87 92 98 95 91 86 79 62 55 49 52 89 90 82 76 73 72 80 77 84 96 98
89 89 85 81 83 94 98 99 97 78 63 56 65 77 98 98 87 79 78 87 88 86 78 85 92 89 71 57 56 48 72 92 87 77 74 76 76 79 67 70 84 96 98
95 88 81 85 94 100 95 93 95 68 64 65 60 66 70 100 100 96 89 82 86 88 91 93 90 96 95 71 76 86 90 89 82 74 75 76 84 77 70 63 92 73 96
89 86 100 100 100 98 95 89 90 86 71 81 83 87 83 90 96 99 100 86 90 92 88 85 96 99 93 98 97 85 88 82 76 72 68 69 69 55 72 57 76 78 96
93 100 99 100 100 100 92 99 99 93 92 89 96 100 100 88 81 99 100 100 99 100 97 97 99 100 97 92 85 81 78 74 74 75 78 76 69 55 72 67 79 90 92
100 100 100 100 100 100 100 100 100 99 100 99 100 96 91 96 96 99 99 98 99 100 99 100 99 96 86 79 76 79 85 85 82 89 93 88 66 55 68 74 79 70 55
100 100 100 100 100 100 100 100 100 99 94 90 89 88 96 89 96 97 94 88 99 100 100 99 96 86 84 80 79 81 87 88 96 98 100 98 84 67 77 82 62 50 52
100 100 99 100 100 100 98 100 99 100 98 98 97 91 95 95 99 98 98 98 100 100 100 100 98 97 87 78 85 90 94 91 88 99 93 95 79 81 91 59 52 55 56
99 84 92 98 99 100 100 100 100 100 98 97 97 99 99 100 100 96 92 92 94 99 97 88 96 95 78 79 86 94 95 87 100 100 98 97 96 97 56 55 58 54 54
92 96 98 100 100 99 100 100 100 100 100 100 100 100 100 100 100 100 100 93 93 94 95 100 98 90 89 81 97 96 96 100 94 98 98 98 96 57 59 59 57 59 60
87 88 90 92 97 99 98 100 100 100 100 100 100 100 100 100 100 100 99 99 96 96 96 93 93 91 86 90 89 96 98 99 99 99 100 80 58 60 59 60 61 62 63
82 80 79 82 84 88 92 95 98 98 99 100 100 100 100 99 97 97 96 94 92 90 91 92 91 89 95 99 98 99 100 99 100 96 64 59 62 61 63 64 65 67 68
85 78 72 69 68 72 75 78 81 85 90 94 98 100 100 98 98 99 99 95 93 90 87 84 83 90 98 100 100 100 100 96 69 58 61 64 65 66 67 69 70 73 74
76 77 77 74 72 70 68 64 65 67 71 73 74 73 74 78 81 82 81 78 78 78 77 78 83 89 96 98 97 89 71 62 61 64 66 68 69 70 73 75 76 79 84
78 76 73 70 70 71 71 71 70 70 69 69 72 72 70 68 69 73 74 72 74 76 77 79 80 78 77 77 72 69 66 68 66 65 69 71 75 76 77 78 81 82 88
80 77 78 77 76 74 72 71 74 76 76 74 73 75 76 77 79 78 77 78 80 79 77 76 75 72 70 71 73 74 67 74 74 74 74 75 79 81 81 82 85 90 94
84 84 83 84 84 84 81 79 76 75 76 78 79 78 78 80 81 84 82 80 79 77 76 76 74 74 74 72 70 71 73 77 78 80 80 82 86 86 86 83 86 89 97
82 80 83 83 84 84 86 87 87 84 82 86 88 85 83 85 84 83 83 85 87 88 86 81 80 80 79 76 76 77 76 78 80 85 85 86 86 87 81 81 86 90 92
84 83 82 83 83 83 83 84 93 96 92 89 86 93 100 99 98 98 95 94 92 89 86 85 86 86 84 84 85 85 87 86 87 89 90 90 86 83 82 81 82 86 88